
Distance (Route):
Temperature : 19.6°C
Humidity : 79.8%
Pressure : 0hPa| Receiver | Frames | First received | Last received |
|---|---|---|---|
| IW2NTF | 864 | 2026-09-01 10:06:38 | 2026-09-01 12:38:54 |
| DO3MHA-12 | 221 | 2026-09-01 11:22:28 | 2026-09-01 12:13:18 |
| DB0UT-7 | 102 | 2026-09-01 11:11:56 | 2026-09-01 12:14:43 |
| RDZBGO | 101 | 2026-09-01 11:24:02 | 2026-09-01 12:10:48 |
| AUTORXJP | 60 | 2026-09-01 11:35:43 | 2026-09-01 12:11:27 |
| Receiver | Date | Latitude | Longitude | Direction | Speed | Altitude | Climb | Temperature | Humidity | Pressure | Voltage | Killtimer | Uptime | BKT | XDATA |
|---|---|---|---|---|---|---|---|---|---|---|---|---|---|---|---|
| IW2NTF | 2026-09-01 12:38:54 | 44.70834 | 9.01872 | 151° | 9km/h | 1223m | -6.1m/s | 19.6°C | 79.8% | 0hPa | 2.7V | 07:59:51 | 03:00:28 | 00:00:00 | |
| IW2NTF | 2026-09-01 12:38:48 | 44.70343 | 8.93950 | 86° | 86km/h | 7666m | -12.4m/s | -23.8°C | 49.8% | 0hPa | 2.5V | 08:10:24 | 02:49:55 | 00:00:00 | |
| IW2NTF | 2026-09-01 12:38:48 | 44.70245 | 8.92168 | 87° | 91km/h | 8252m | -10.7m/s | -28.9°C | 44.7% | 0hPa | 2.6V | 08:11:20 | 02:48:59 | 00:00:00 | |
| IW2NTF | 2026-09-01 12:38:48 | 44.70243 | 8.92102 | 87° | 91km/h | 8275m | -11.8m/s | -29.1°C | 44.6% | 0hPa | 2.5V | 08:11:22 | 02:48:57 | 00:00:00 | |
| IW2NTF | 2026-09-01 12:38:48 | 44.70242 | 8.92037 | 88° | 91km/h | 8297m | -11.5m/s | -29.3°C | 44.3% | 0hPa | 2.6V | 08:11:24 | 02:48:55 | 00:00:00 | |
| IW2NTF | 2026-09-01 12:38:48 | 44.70241 | 8.91970 | 87° | 95km/h | 8319m | -11.5m/s | -29.5°C | 43.2% | 0hPa | 2.5V | 08:11:26 | 02:48:53 | 00:00:00 | |
| IW2NTF | 2026-09-01 12:38:48 | 44.70237 | 8.91767 | 86° | 97km/h | 8386m | -11.3m/s | -30°C | 42.3% | 0hPa | 2.6V | 08:11:32 | 02:48:47 | 00:00:00 | |
| IW2NTF | 2026-09-01 12:25:19 | 44.70226 | 8.91427 | 88° | 97km/h | 8498m | -11.6m/s | -31°C | 61.2% | 0hPa | 2.5V | 08:11:42 | 02:48:37 | 00:00:00 | |
| IW2NTF | 2026-09-01 12:25:10 | 44.70213 | 8.91073 | 85° | 102km/h | 8608m | -11.4m/s | -31.9°C | 54.5% | 0hPa | 2.5V | 08:11:52 | 02:48:27 | 00:00:00 | |
| IW2NTF | 2026-09-01 12:25:01 | 44.70197 | 8.90709 | 85° | 102km/h | 8722m | -12.3m/s | -32.5°C | 42.8% | 0hPa | 2.5V | 08:12:02 | 02:48:17 | 00:00:00 | |
| IW2NTF | 2026-09-01 12:24:51 | 44.70177 | 8.90334 | 84° | 104km/h | 8842m | -12.4m/s | -32.9°C | 27.7% | 0hPa | 2.5V | 08:12:12 | 02:48:07 | 00:00:00 | |
| IW2NTF | 2026-09-01 12:24:38 | 44.70152 | 8.89964 | 83° | 106km/h | 8960m | -12m/s | -34°C | 25.6% | 0hPa | 2.5V | 08:12:22 | 02:47:57 | 00:00:00 | |
| IW2NTF | 2026-09-01 12:24:28 | 44.70126 | 8.89588 | 85° | 104km/h | 9072m | -11.3m/s | -34.7°C | 27.7% | 0hPa | 2.6V | 08:12:32 | 02:47:47 | 00:00:00 | |
| IW2NTF | 2026-09-01 12:24:20 | 44.70106 | 8.89224 | 85° | 97km/h | 9187m | -11.8m/s | -35.6°C | 21.8% | 0hPa | 2.5V | 08:12:42 | 02:47:37 | 00:00:00 | |
| IW2NTF | 2026-09-01 12:24:06 | 44.70088 | 8.88879 | 84° | 100km/h | 9307m | -12.6m/s | -36.4°C | 13.6% | 0hPa | 2.6V | 08:12:52 | 02:47:27 | 00:00:00 | |
| IW2NTF | 2026-09-01 12:24:00 | 44.70066 | 8.88555 | 83° | 82km/h | 9427m | -12.4m/s | -37.2°C | 8% | 0hPa | 2.6V | 08:13:02 | 02:47:17 | 00:00:00 | |
| IW2NTF | 2026-09-01 12:23:47 | 44.70030 | 8.88268 | 77° | 86km/h | 9542m | -11.1m/s | -37.9°C | 7.4% | 0hPa | 2.5V | 08:13:12 | 02:47:07 | 00:00:00 | |
| IW2NTF | 2026-09-01 12:23:39 | 44.70007 | 8.87962 | 89° | 82km/h | 9653m | -11.5m/s | -38.7°C | 9.7% | 0hPa | 2.5V | 08:13:22 | 02:46:57 | 00:00:00 | |
| IW2NTF | 2026-09-01 12:23:27 | 44.70015 | 8.87710 | 94° | 60km/h | 9761m | -10.8m/s | -39.4°C | 14.3% | 0hPa | 2.5V | 08:13:32 | 02:46:47 | 00:00:00 | |
| IW2NTF | 2026-09-01 12:23:16 | 44.70006 | 8.87508 | 79° | 57km/h | 9868m | -10.8m/s | -40.4°C | 18.2% | 0hPa | 2.6V | 08:13:42 | 02:46:37 | 00:00:00 | |
| IW2NTF | 2026-09-01 12:23:06 | 44.69973 | 8.87297 | 78° | 66km/h | 9971m | -10.3m/s | -41.5°C | 21.5% | 0hPa | 2.5V | 08:13:52 | 02:46:27 | 00:00:00 | |
| IW2NTF | 2026-09-01 12:22:57 | 44.69952 | 8.87047 | 89° | 75km/h | 10080m | -11.1m/s | -42.3°C | 20.3% | 0hPa | 2.5V | 08:14:02 | 02:46:17 | 00:00:00 | |
| IW2NTF | 2026-09-01 12:22:49 | 44.69962 | 8.86724 | 98° | 73km/h | 10207m | -10.7m/s | -43.2°C | 16.7% | 0hPa | 2.6V | 08:14:14 | 02:46:05 | 00:00:00 | |
| IW2NTF | 2026-09-01 12:22:36 | 44.69989 | 8.86486 | 98° | 64km/h | 10315m | -11.2m/s | -44.1°C | 18.9% | 0hPa | 2.6V | 08:14:24 | 02:45:55 | 00:00:00 | |
| IW2NTF | 2026-09-01 12:22:29 | 44.70002 | 8.86280 | 89° | 55km/h | 10424m | -11.4m/s | -45.1°C | 19.9% | 0hPa | 2.5V | 08:14:34 | 02:45:45 | 00:00:00 | |
| IW2NTF | 2026-09-01 12:22:15 | 44.69985 | 8.86078 | 80° | 64km/h | 10536m | -11.8m/s | -46.1°C | 22.1% | 0hPa | 2.5V | 08:14:44 | 02:45:35 | 00:00:00 | |
| IW2NTF | 2026-09-01 12:22:08 | 44.69950 | 8.85842 | 78° | 75km/h | 10650m | -11.7m/s | -47°C | 23.9% | 0hPa | 2.6V | 08:14:54 | 02:45:25 | 00:00:00 | |
| IW2NTF | 2026-09-01 12:21:55 | 44.69914 | 8.85563 | 83° | 86km/h | 10766m | -11.8m/s | -48.1°C | 27.2% | 0hPa | 2.6V | 08:15:04 | 02:45:15 | 00:00:00 | |
| IW2NTF | 2026-09-01 12:21:45 | 44.69905 | 8.85256 | 90° | 88km/h | 10880m | -11.7m/s | -49°C | 28.8% | 0hPa | 2.6V | 08:15:14 | 02:45:05 | 00:00:00 | |
| IW2NTF | 2026-09-01 12:21:38 | 44.69915 | 8.84962 | 95° | 80km/h | 10995m | -12.1m/s | -50°C | 28.2% | 0hPa | 2.5V | 08:15:24 | 02:44:55 | 00:00:00 | |
| IW2NTF | 2026-09-01 12:21:24 | 44.69941 | 8.84701 | 98° | 69km/h | 11113m | -11.9m/s | -50.9°C | 25.7% | 0hPa | 2.6V | 08:15:34 | 02:44:45 | 00:00:00 | |
| IW2NTF | 2026-09-01 12:21:18 | 44.69960 | 8.84477 | 94° | 60km/h | 11230m | -12.1m/s | -51.7°C | 28.4% | 0hPa | 2.6V | 08:15:44 | 02:44:35 | 00:00:00 | |
| IW2NTF | 2026-09-01 12:21:08 | 44.69952 | 8.84264 | 79° | 62km/h | 11352m | -12.5m/s | -52.8°C | 29.9% | 0hPa | 2.6V | 08:15:54 | 02:44:25 | 00:00:00 | |
| IW2NTF | 2026-09-01 12:20:59 | 44.69909 | 8.84033 | 71° | 73km/h | 11474m | -12.2m/s | -53.7°C | 29.7% | 0hPa | 2.6V | 08:16:04 | 02:44:15 | 00:00:00 | |
| IW2NTF | 2026-09-01 12:20:48 | 44.69842 | 8.83766 | 70° | 88km/h | 11592m | -11.6m/s | -54.5°C | 29.5% | 0hPa | 2.5V | 08:16:14 | 02:44:05 | 00:00:00 | |
| IW2NTF | 2026-09-01 12:20:39 | 44.69770 | 8.83442 | 75° | 102km/h | 11712m | -12.4m/s | -54.9°C | 27.9% | 0hPa | 2.5V | 08:16:24 | 02:43:55 | 00:00:00 | |
| IW2NTF | 2026-09-01 12:20:29 | 44.69720 | 8.83077 | 82° | 106km/h | 11832m | -12.4m/s | -55.6°C | 27.7% | 0hPa | 2.6V | 08:16:34 | 02:43:45 | 00:00:00 | |
| IW2NTF | 2026-09-01 12:20:18 | 44.69696 | 8.82717 | 83° | 99km/h | 11950m | -12.4m/s | -56.1°C | 28.3% | 0hPa | 2.6V | 08:16:44 | 02:43:35 | 00:00:00 | |
| IW2NTF | 2026-09-01 12:20:09 | 44.69643 | 8.82362 | 74° | 110km/h | 12075m | -12.8m/s | -56°C | 30.1% | 0hPa | 2.6V | 08:16:54 | 02:43:25 | 00:00:00 | |
| IW2NTF | 2026-09-01 12:19:55 | 44.69552 | 8.81971 | 72° | 124km/h | 12198m | -13.2m/s | -57°C | 34.9% | 0hPa | 2.5V | 08:17:04 | 02:43:15 | 00:00:00 | |
| IW2NTF | 2026-09-01 12:19:49 | 44.69455 | 8.81527 | 76° | 139km/h | 12326m | -13.1m/s | -57.8°C | 32.1% | 0hPa | 2.6V | 08:17:14 | 02:43:05 | 00:00:00 | |
| IW2NTF | 2026-09-01 12:19:38 | 44.69377 | 8.81035 | 79° | 144km/h | 12454m | -13.3m/s | -57.9°C | 25.6% | 0hPa | 2.6V | 08:17:24 | 02:42:55 | 00:00:00 | |
| IW2NTF | 2026-09-01 12:19:29 | 44.69330 | 8.80547 | 84° | 133km/h | 12583m | -13.5m/s | -58.6°C | 20.9% | 0hPa | 2.6V | 08:17:34 | 02:42:45 | 00:00:00 | |
| IW2NTF | 2026-09-01 12:19:19 | 44.69310 | 8.80109 | 86° | 120km/h | 12710m | -13.2m/s | -59.1°C | 18.4% | 0hPa | 2.6V | 08:17:44 | 02:42:35 | 00:00:00 | |
| IW2NTF | 2026-09-01 12:19:09 | 44.69283 | 8.79697 | 81° | 110km/h | 12837m | -13.1m/s | -59.1°C | 12.2% | 0hPa | 2.6V | 08:17:54 | 02:42:25 | 00:00:00 | |
| IW2NTF | 2026-09-01 12:18:59 | 44.69229 | 8.79324 | 75° | 110km/h | 12966m | -13.5m/s | -58.3°C | 9.6% | 0hPa | 2.6V | 08:18:04 | 02:42:15 | 00:00:00 | |
| IW2NTF | 2026-09-01 12:18:49 | 44.69155 | 8.78917 | 76° | 126km/h | 13098m | -13.1m/s | -57.6°C | 7.9% | 0hPa | 2.6V | 08:18:14 | 02:42:05 | 00:00:00 | |
| IW2NTF | 2026-09-01 12:18:39 | 44.69096 | 8.78485 | 83° | 120km/h | 13232m | -14m/s | -56.3°C | 6.3% | 0hPa | 2.6V | 08:18:24 | 02:41:55 | 00:00:00 | |
| IW2NTF | 2026-09-01 12:18:28 | 44.69062 | 8.78080 | 82° | 110km/h | 13369m | -14.2m/s | -56°C | 5.9% | 0hPa | 2.6V | 08:18:34 | 02:41:45 | 00:00:00 | |
| IW2NTF | 2026-09-01 12:18:18 | 44.69033 | 8.77674 | 84° | 86km/h | 13529m | -14.1m/s | -56.4°C | 6% | 0hPa | 2.6V | 08:18:46 | 02:41:33 | 00:00:00 | |
| IW2NTF | 2026-09-01 12:18:03 | 44.69001 | 8.77370 | 77° | 91km/h | 13671m | -15.5m/s | -56.9°C | 6% | 0hPa | 2.7V | 08:18:56 | 02:41:23 | 00:00:00 | |
| IW2NTF | 2026-09-01 12:17:57 | 44.68923 | 8.77053 | 69° | 104km/h | 13811m | -15.4m/s | -57°C | 6% | 0hPa | 2.7V | 08:19:06 | 02:41:13 | 00:00:00 | |
| IW2NTF | 2026-09-01 12:17:43 | 44.68837 | 8.76679 | 74° | 119km/h | 13954m | -14.5m/s | -57.3°C | 6.1% | 0hPa | 2.7V | 08:19:16 | 02:41:03 | 00:00:00 | |
| IW2NTF | 2026-09-01 12:17:37 | 44.68775 | 8.76270 | 81° | 115km/h | 14101m | -14.8m/s | -58°C | 6.5% | 0hPa | 2.7V | 08:19:26 | 02:40:53 | 00:00:00 | |
| IW2NTF | 2026-09-01 12:17:23 | 44.68754 | 8.75887 | 89° | 100km/h | 14248m | -15.2m/s | -58°C | 6.6% | 0hPa | 2.7V | 08:19:36 | 02:40:43 | 00:00:00 | |
| IW2NTF | 2026-09-01 12:17:17 | 44.68758 | 8.75567 | 90° | 77km/h | 14398m | -15.7m/s | -58.3°C | 6.7% | 0hPa | 2.6V | 08:19:46 | 02:40:33 | 00:00:00 | |
| IW2NTF | 2026-09-01 12:17:02 | 44.68746 | 8.75317 | 77° | 69km/h | 14549m | -15.8m/s | -57.6°C | 6.1% | 0hPa | 2.7V | 08:19:56 | 02:40:23 | 00:00:00 | |
| IW2NTF | 2026-09-01 12:16:53 | 44.68688 | 8.75070 | 67° | 80km/h | 14705m | -15.7m/s | -58.1°C | 6.1% | 0hPa | 2.7V | 08:20:06 | 02:40:13 | 00:00:00 | |
| IW2NTF | 2026-09-01 12:16:43 | 44.68590 | 8.74677 | 76° | 93km/h | 14909m | -15.8m/s | -58.3°C | 5.9% | 0hPa | 2.6V | 08:20:19 | 02:40:00 | 00:00:00 | |
| IW2NTF | 2026-09-01 12:16:31 | 44.68560 | 8.74369 | 88° | 82km/h | 15066m | -16.1m/s | -58.5°C | 5.8% | 0hPa | 2.6V | 08:20:29 | 02:39:50 | 00:00:00 | |
| IW2NTF | 2026-09-01 12:16:21 | 44.68550 | 8.74112 | 83° | 62km/h | 15224m | -16.3m/s | -58.6°C | 5.8% | 0hPa | 2.7V | 08:20:39 | 02:39:40 | 00:00:00 | |
| IW2NTF | 2026-09-01 12:16:11 | 44.68507 | 8.73908 | 65° | 60km/h | 15385m | -16.5m/s | -58.5°C | 5.7% | 0hPa | 2.7V | 08:20:49 | 02:39:30 | 00:00:00 | |
| IW2NTF | 2026-09-01 12:16:01 | 44.68430 | 8.73700 | 64° | 73km/h | 15547m | -16.2m/s | -57.9°C | 5.3% | 0hPa | 2.7V | 08:20:59 | 02:39:20 | 00:00:00 | |
| IW2NTF | 2026-09-01 12:15:53 | 44.68376 | 8.73447 | 83° | 75km/h | 15715m | -16.1m/s | -57.8°C | 5.1% | 0hPa | 2.6V | 08:21:09 | 02:39:10 | 00:00:00 | |
| IW2NTF | 2026-09-01 12:15:41 | 44.68378 | 8.73189 | 92° | 64km/h | 15877m | -17.7m/s | -58.2°C | 5.2% | 0hPa | 2.7V | 08:21:19 | 02:39:00 | 00:00:00 | |
| IW2NTF | 2026-09-01 12:15:32 | 44.68382 | 8.73017 | 79° | 38km/h | 16045m | -17.6m/s | -58.6°C | 5.4% | 0hPa | 2.6V | 08:21:29 | 02:38:50 | 00:00:00 | |
| IW2NTF | 2026-09-01 12:15:22 | 44.68340 | 8.72866 | 62° | 57km/h | 16218m | -17.4m/s | -59.1°C | 5.6% | 0hPa | 2.7V | 08:21:39 | 02:38:40 | 00:00:00 | |
| IW2NTF | 2026-09-01 12:15:11 | 44.68293 | 8.72649 | 84° | 68km/h | 16390m | -17.7m/s | -58.3°C | 5.2% | 0hPa | 2.7V | 08:21:49 | 02:38:30 | 00:00:00 | |
| IW2NTF | 2026-09-01 12:15:02 | 44.68295 | 8.72434 | 97° | 53km/h | 16564m | -17.8m/s | -57.9°C | 4.9% | 0hPa | 2.7V | 08:21:59 | 02:38:20 | 00:00:00 | |
| IW2NTF | 2026-09-01 12:14:50 | 44.68303 | 8.72297 | 80° | 31km/h | 16740m | -18.9m/s | -58.2°C | 5.1% | 0hPa | 2.6V | 08:22:09 | 02:38:10 | 00:00:00 | |
| DB0UT-7 | 2026-09-01 12:14:43 | 44.68286 | 8.72250 | 54° | 68km/h | 16832m | -19.1m/s | -58.2°C | 5.2% | 0hPa | 2.7V | 00:00:00 | 02:38:05 | 00:00:00 | |
| IW2NTF | 2026-09-01 12:14:40 | 44.68250 | 8.72197 | 41° | 49km/h | 16923m | -18.2m/s | -57.9°C | 4.9% | 0hPa | 2.7V | 08:22:19 | 02:38:00 | 00:00:00 | |
| IW2NTF | 2026-09-01 12:14:30 | 44.68158 | 8.72040 | 61° | 64km/h | 17111m | -18.6m/s | -57.8°C | 5% | 0hPa | 2.7V | 08:22:29 | 02:37:50 | 00:00:00 | |
| IW2NTF | 2026-09-01 12:14:23 | 44.68116 | 8.71785 | 88° | 78km/h | 17296m | -19.7m/s | -58.1°C | 5.3% | 0hPa | 2.6V | 08:22:39 | 02:37:40 | 00:00:00 | |
| DB0UT-7 | 2026-09-01 12:14:11 | 44.68134 | 8.71613 | 108° | 26km/h | 17432m | -20.3m/s | -56.6°C | 4.8% | 0hPa | 2.6V | 00:00:00 | 00:00:00 | 00:00:00 | |
| IW2NTF | 2026-09-01 12:14:10 | 44.68162 | 8.71534 | 129° | 42km/h | 17530m | -20.1m/s | -56.2°C | 4.6% | 0hPa | 2.6V | 08:22:51 | 02:37:28 | 00:00:00 | |
| IW2NTF | 2026-09-01 12:13:59 | 44.68216 | 8.71496 | 194° | 16km/h | 17725m | -20.3m/s | -55.3°C | 4.3% | 0hPa | 2.7V | 08:23:01 | 02:37:18 | 00:00:00 | |
| IW2NTF | 2026-09-01 12:13:49 | 44.68201 | 8.71497 | 26° | 22km/h | 17966m | -20.2m/s | -55.6°C | 4.2% | 0hPa | 2.6V | 08:23:13 | 02:37:06 | 00:00:00 | |
| DB0UT-7 | 2026-09-01 12:13:41 | 44.68181 | 8.71480 | 40° | 29km/h | 18025m | -19.3m/s | -55.6°C | 4.1% | 0hPa | 2.6V | 00:00:00 | 02:37:03 | 00:00:00 | |
| IW2NTF | 2026-09-01 12:13:40 | 44.68138 | 8.71409 | 61° | 38km/h | 18165m | -20.6m/s | -56.1°C | 4.1% | 0hPa | 2.7V | 08:23:23 | 02:36:56 | 00:00:00 | |
| IW2NTF | 2026-09-01 12:13:29 | 44.68130 | 8.71296 | 101° | 26km/h | 18368m | -20.3m/s | -57.3°C | 4.6% | 0hPa | 2.7V | 08:23:33 | 02:36:46 | 00:00:00 | |
| IW2NTF | 2026-09-01 12:13:20 | 44.68132 | 8.71223 | 61° | 18km/h | 18576m | -21.5m/s | -58°C | 5.1% | 0hPa | 2.6V | 08:23:43 | 02:36:36 | 00:00:00 | |
| DO3MHA-12 | 2026-09-01 12:13:18 | 44.68137 | 8.71249 | 85° | 22km/h | 18492m | -21.4m/s | -58.1°C | 5.0% | 0hPa | 2.7V | 00:00:00 | 02:36:40 | 00:00:00 | |
| DB0UT-7 | 2026-09-01 12:13:12 | 44.68122 | 8.71204 | 50° | 35km/h | 18638m | -21.0m/s | -58.1°C | 5.1% | 0hPa | 2.7V | 00:00:00 | 00:00:00 | 00:00:00 | |
| IW2NTF | 2026-09-01 12:13:09 | 44.68089 | 8.71149 | 61° | 35km/h | 18786m | -23.1m/s | -57.9°C | 5% | 0hPa | 2.7V | 08:23:53 | 02:36:26 | 00:00:00 | |
| DO3MHA-12 | 2026-09-01 12:13:08 | 44.68108 | 8.71184 | 46° | 35km/h | 18700m | -20.9m/s | -58.1°C | 5.1% | 0hPa | 2.7V | 00:00:00 | 02:36:30 | 00:00:00 | |
| IW2NTF | 2026-09-01 12:13:00 | 44.68059 | 8.71018 | 80° | 42km/h | 19002m | -22.1m/s | -57°C | 4.7% | 0hPa | 2.7V | 08:24:03 | 02:36:16 | 00:00:00 | |
| DO3MHA-12 | 2026-09-01 12:12:58 | 44.68069 | 8.71076 | 75° | 40km/h | 18917m | -23.1m/s | -56.4°C | 4.5% | 0hPa | 2.7V | 00:00:00 | 02:36:20 | 00:00:00 | |
| IW2NTF | 2026-09-01 12:12:49 | 44.68073 | 8.70880 | 145° | 22km/h | 19267m | -22.2m/s | -55.6°C | 4.4% | 0hPa | 2.7V | 08:24:15 | 02:36:04 | 00:00:00 | |
| DO3MHA-12 | 2026-09-01 12:12:48 | 44.68056 | 8.70932 | 97° | 26km/h | 19132m | -22.0m/s | -57.8°C | 5.2% | 0hPa | 2.7V | 00:00:00 | 02:36:10 | 00:00:00 | |
| DB0UT-7 | 2026-09-01 12:12:41 | 44.68077 | 8.70876 | 156° | 16km/h | 19289m | -21.8m/s | -55.3°C | 4.3% | 0hPa | 2.7V | 00:00:00 | 02:36:03 | 00:00:00 | |
| DO3MHA-12 | 2026-09-01 12:12:38 | 44.68092 | 8.70872 | 191° | 9km/h | 19354m | -24.9m/s | -55.1°C | 4.2% | 0hPa | 2.7V | 00:00:00 | 02:36:00 | 00:00:00 | |
| IW2NTF | 2026-09-01 12:12:35 | 44.68101 | 8.70884 | 338° | 5km/h | 19490m | -23.5m/s | -55.8°C | 4.5% | 0hPa | 2.7V | 08:24:25 | 02:35:54 | 00:00:00 | |
| IW2NTF | 2026-09-01 12:12:28 | 44.68075 | 8.70852 | 51° | 24km/h | 19719m | -22.1m/s | -54.9°C | 4.1% | 0hPa | 2.7V | 08:24:35 | 02:35:44 | 00:00:00 | |
| DO3MHA-12 | 2026-09-01 12:12:27 | 44.68090 | 8.70878 | 43° | 22km/h | 19606m | -23.3m/s | -55.3°C | 4.3% | 0hPa | 2.7V | 00:00:00 | 02:35:49 | 00:00:00 | |
| DO3MHA-12 | 2026-09-01 12:12:17 | 44.68064 | 8.70812 | 81° | 22km/h | 19833m | -23.7m/s | -54.6°C | 4.0% | 0hPa | 2.7V | 08:24:00 | 02:35:39 | 00:00:00 | |
| IW2NTF | 2026-09-01 12:12:15 | 44.68072 | 8.70773 | 123° | 20km/h | 19951m | -23.9m/s | -55.3°C | 4.3% | 0hPa | 2.7V | 08:24:45 | 02:35:34 | 00:00:00 | |
| DB0UT-7 | 2026-09-01 12:12:11 | 44.68075 | 8.70767 | 131° | 27km/h | 19975m | -23.3m/s | -55.2°C | 4.3% | 0hPa | 2.7V | 08:24:00 | 00:00:00 | 00:00:00 | |
| DO3MHA-12 | 2026-09-01 12:12:07 | 44.68094 | 8.70752 | 163° | 22km/h | 20069m | -23.7m/s | -55.4°C | 4.4% | 0hPa | 2.7V | 00:00:00 | 02:35:29 | 00:00:00 | |
| IW2NTF | 2026-09-01 12:12:04 | 44.68119 | 8.70760 | 227° | 20km/h | 20191m | -26.4m/s | -55.3°C | 4.3% | 0hPa | 2.7V | 08:24:55 | 02:35:24 | 00:00:00 | |
| IW2NTF | 2026-09-01 12:11:58 | 44.68106 | 8.70849 | 323° | 33km/h | 20440m | -26.4m/s | -54.4°C | 4.2% | 0hPa | 2.7V | 08:25:05 | 02:35:14 | 00:00:00 | |
| DO3MHA-12 | 2026-09-01 12:11:57 | 44.68125 | 8.70800 | 275° | 31km/h | 20316m | -24.7m/s | -55.0°C | 4.4% | 0hPa | 2.7V | 00:00:00 | 02:35:19 | 00:00:00 | |
| DO3MHA-12 | 2026-09-01 12:11:47 | 44.68069 | 8.70861 | 7° | 37km/h | 20569m | -25.4m/s | -54.0°C | 4.0% | 0hPa | 2.7V | 00:00:00 | 02:35:09 | 00:00:00 | |
| IW2NTF | 2026-09-01 12:11:46 | 44.68026 | 8.70834 | 41° | 38km/h | 20697m | -25.5m/s | -54.1°C | 4% | 0hPa | 2.7V | 08:25:15 | 02:35:04 | 00:00:00 | |
| DB0UT-7 | 2026-09-01 12:11:41 | 44.68019 | 8.70825 | 43° | 37km/h | 20722m | -26.0m/s | -54.0°C | 4.0% | 0hPa | 2.6V | 00:00:00 | 02:35:03 | 00:00:00 | |
| IW2NTF | 2026-09-01 12:11:35 | 44.68018 | 8.70728 | 135° | 31km/h | 20957m | -27.2m/s | -53.6°C | 3.7% | 0hPa | 2.6V | 08:25:25 | 02:34:54 | 00:00:00 | |
| IW2NTF | 2026-09-01 12:11:27 | 44.68072 | 8.70747 | 266° | 31km/h | 21224m | -28.6m/s | -54.5°C | 4.1% | 0hPa | 2.6V | 08:25:35 | 02:34:44 | 00:00:00 | |
| AUTORXJP | 2026-09-01 12:11:27 | 44.68052 | 8.70714 | 192° | 26km/h | 21089m | -27.1m/s | -53.8°C | 1.0% | -1.0hPa | 2.6V | 00:00:00 | 00:00:00 | 00:00:00 | |
| IW2NTF | 2026-09-01 12:11:15 | 44.67997 | 8.70847 | 351° | 55km/h | 21491m | -27.2m/s | -55.5°C | 4.7% | 0hPa | 2.6V | 08:25:45 | 02:34:34 | 00:00:00 | |
| DB0UT-7 | 2026-09-01 12:11:11 | 44.67983 | 8.70849 | 1° | 46km/h | 21519m | -28.3m/s | -55.4°C | 4.7% | 0hPa | 2.7V | 00:00:00 | 00:00:00 | 00:00:00 | |
| IW2NTF | 2026-09-01 12:11:08 | 44.67902 | 8.70761 | 87° | 47km/h | 21773m | -28.4m/s | -54.4°C | 4.3% | 0hPa | 2.7V | 08:25:55 | 02:34:24 | 00:00:00 | |
| DO3MHA-12 | 2026-09-01 12:11:04 | 44.67907 | 8.70792 | 64° | 46km/h | 21716m | -29.6m/s | -54.6°C | 4.4% | 0hPa | 2.7V | 00:00:00 | 02:34:26 | 00:00:00 | |
| IW2NTF | 2026-09-01 12:10:58 | 44.67966 | 8.70659 | 186° | 38km/h | 22055m | -29.2m/s | -52.9°C | 3.8% | 0hPa | 2.7V | 08:26:05 | 02:34:14 | 00:00:00 | |
| AUTORXJP | 2026-09-01 12:10:57 | 44.67985 | 8.70669 | 212° | 40km/h | 22112m | -29.0m/s | -52.8°C | 1.0% | -1.0hPa | 2.6V | 00:00:00 | 00:00:00 | 00:00:00 | |
| DO3MHA-12 | 2026-09-01 12:10:54 | 44.67947 | 8.70662 | 159° | 40km/h | 21999m | -28.2m/s | -53.4°C | 4.0% | 0hPa | 2.6V | 00:00:00 | 02:34:16 | 00:00:00 | |
| RDZBGO | 2026-09-01 12:10:48 | 44.67993 | 8.70678 | 220° | 42km/h | 22141m | -28.8m/s | -52.7°C | 1.0% | 0hPa | 2.7V | 00:00:00 | 00:00:00 | 00:00:00 | |
| IW2NTF | 2026-09-01 12:10:47 | 44.68011 | 8.70777 | 288° | 46km/h | 22348m | -29.8m/s | -52.4°C | 3.6% | 0hPa | 2.7V | 08:26:15 | 02:34:04 | 00:00:00 | |
| DO3MHA-12 | 2026-09-01 12:10:44 | 44.68014 | 8.70744 | 274° | 40km/h | 22291m | -30.8m/s | -52.3°C | 3.6% | 0hPa | 2.7V | 00:00:00 | 02:34:06 | 00:00:00 | |
| DB0UT-7 | 2026-09-01 12:10:42 | 44.68007 | 8.70791 | 295° | 26km/h | 22378m | -31.0m/s | -52.4°C | 3.7% | 0hPa | 2.7V | 00:00:00 | 02:34:03 | 00:00:00 | |
| IW2NTF | 2026-09-01 12:10:36 | 44.67944 | 8.70844 | 14° | 27km/h | 22650m | -31.6m/s | -53.2°C | 3.8% | 0hPa | 2.6V | 08:26:25 | 02:33:54 | 00:00:00 | |
| DO3MHA-12 | 2026-09-01 12:10:34 | 44.67958 | 8.70845 | 358° | 22km/h | 22590m | -30.5m/s | -53.1°C | 3.8% | 0hPa | 2.7V | 00:00:00 | 02:33:56 | 00:00:00 | |
| IW2NTF | 2026-09-01 12:10:24 | 44.67938 | 8.70803 | 194° | 16km/h | 22955m | -31.2m/s | -53.5°C | 4% | 0hPa | 2.7V | 08:26:35 | 02:33:44 | 00:00:00 | |
| DO3MHA-12 | 2026-09-01 12:10:24 | 44.67931 | 8.70804 | 148° | 27km/h | 22894m | -31.1m/s | -53.4°C | 4.0% | 0hPa | 2.7V | 08:26:00 | 02:33:46 | 00:00:00 | |
| IW2NTF | 2026-09-01 12:10:15 | 44.67960 | 8.70876 | 290° | 31km/h | 23268m | -32.2m/s | -53.5°C | 4.2% | 0hPa | 2.6V | 08:26:45 | 02:33:34 | 00:00:00 | |
| DB0UT-7 | 2026-09-01 12:10:12 | 44.67956 | 8.70886 | 306° | 29km/h | 23300m | -32.4m/s | -53.4°C | 4.2% | 0hPa | 2.6V | 00:00:00 | 00:00:00 | 00:00:00 | |
| IW2NTF | 2026-09-01 12:10:04 | 44.67896 | 8.70904 | 33° | 29km/h | 23588m | -32.5m/s | -52.6°C | 4% | 0hPa | 2.6V | 08:26:55 | 02:33:24 | 00:00:00 | |
| RDZBGO | 2026-09-01 12:10:00 | 44.67890 | 8.70899 | 43° | 27km/h | 23621m | -33.9m/s | -52.6°C | 1.0% | 0hPa | 2.7V | 00:00:00 | 00:00:00 | 00:00:00 | |
| IW2NTF | 2026-09-01 12:09:57 | 44.67892 | 8.70828 | 139° | 24km/h | 23918m | -33.1m/s | -51.9°C | 3.9% | 0hPa | 2.7V | 08:27:05 | 02:33:14 | 00:00:00 | |
| AUTORXJP | 2026-09-01 12:09:55 | 44.67892 | 8.70828 | 139° | 24km/h | 23918m | -33.1m/s | -51.9°C | 0.9% | -1.0hPa | 2.7V | 00:00:00 | 00:00:00 | 00:00:00 | |
| IW2NTF | 2026-09-01 12:09:47 | 44.67945 | 8.70873 | 269° | 31km/h | 24250m | -36.6m/s | -51.1°C | 3.7% | 0hPa | 2.7V | 08:27:15 | 02:33:04 | 00:00:00 | |
| DB0UT-7 | 2026-09-01 12:09:41 | 44.67945 | 8.70884 | 274° | 27km/h | 24287m | -36.5m/s | -51.2°C | 3.7% | 0hPa | 2.7V | 00:00:00 | 02:33:03 | 00:00:00 | |
| IW2NTF | 2026-09-01 12:09:37 | 44.67891 | 8.70954 | 5° | 29km/h | 24599m | -35.6m/s | -50.6°C | 3.7% | 0hPa | 2.7V | 08:27:25 | 02:32:54 | 00:00:00 | |
| RDZBGO | 2026-09-01 12:09:34 | 44.67916 | 8.70946 | 333° | 37km/h | 24493m | -35.4m/s | -50.5°C | 0.9% | 0hPa | 2.6V | 08:28:00 | 00:00:00 | 00:00:00 | |
| DO3MHA-12 | 2026-09-01 12:09:29 | 44.67873 | 8.70945 | 34° | 33km/h | 24705m | -36.2m/s | -50.6°C | 3.7% | 0hPa | 2.6V | 00:00:00 | 02:32:51 | 00:00:00 | |
| IW2NTF | 2026-09-01 12:09:27 | 44.67867 | 8.70908 | 140° | 11km/h | 24955m | -37.3m/s | -50.2°C | 3.6% | 0hPa | 2.6V | 08:27:35 | 02:32:44 | 00:00:00 | |
| AUTORXJP | 2026-09-01 12:09:23 | 44.67877 | 8.70910 | 223° | 18km/h | 25065m | -37.1m/s | -49.6°C | 0.8% | -1.0hPa | 2.7V | 00:00:00 | 00:00:00 | 00:00:00 | |
| IW2NTF | 2026-09-01 12:09:14 | 44.67875 | 8.70979 | 307° | 40km/h | 25327m | -39.8m/s | -48.1°C | 3.1% | 0hPa | 2.7V | 08:27:45 | 02:32:34 | 00:00:00 | |
| RDZBGO | 2026-09-01 12:09:12 | 44.67879 | 8.70968 | 297° | 37km/h | 25289m | -38.6m/s | -48.0°C | 0.8% | 0hPa | 2.6V | 08:28:00 | 00:00:00 | 00:00:00 | |
| DB0UT-7 | 2026-09-01 12:09:11 | 44.67868 | 8.70990 | 318° | 37km/h | 25366m | -40.4m/s | -48.1°C | 3.1% | 0hPa | 2.6V | 00:00:00 | 00:00:00 | 00:00:00 | |
| IW2NTF | 2026-09-01 12:09:08 | 44.67785 | 8.70984 | 60° | 33km/h | 25719m | -39.7m/s | -47.8°C | 3% | 0hPa | 2.7V | 08:27:55 | 02:32:24 | 00:00:00 | |
| IW2NTF | 2026-09-01 12:08:58 | 44.67813 | 8.70952 | 261° | 29km/h | 26124m | -43.2m/s | -48.1°C | 3.1% | 0hPa | 2.6V | 08:28:05 | 02:32:14 | 00:00:00 | |
| AUTORXJP | 2026-09-01 12:08:52 | 44.67814 | 8.70962 | 276° | 31km/h | 26166m | -41.9m/s | -48.2°C | 0.7% | -1.0hPa | 2.6V | 00:00:00 | 00:00:00 | 00:00:00 | |
| IW2NTF | 2026-09-01 12:08:46 | 44.67717 | 8.71012 | 28° | 46km/h | 26626m | -40.6m/s | -48.5°C | 3.3% | 0hPa | 2.6V | 08:28:17 | 02:32:02 | 00:00:00 | |
| RDZBGO | 2026-09-01 12:08:45 | 44.67775 | 8.71018 | 348° | 46km/h | 26420m | -43.2m/s | -48.3°C | 0.8% | 0hPa | 2.7V | 08:29:00 | 00:00:00 | 00:00:00 | |
| DO3MHA-12 | 2026-09-01 12:08:41 | 44.67728 | 8.71019 | 20° | 29km/h | 26586m | -41.4m/s | -48.5°C | 3.4% | 0hPa | 2.7V | 00:00:00 | 02:32:03 | 00:00:00 | |
| IW2NTF | 2026-09-01 12:08:35 | 44.67690 | 8.70948 | 4° | 11km/h | 27071m | -47.6m/s | -46.6°C | 2.9% | 0hPa | 2.7V | 08:28:27 | 02:31:52 | 00:00:00 | |
| DO3MHA-12 | 2026-09-01 12:08:31 | 44.67691 | 8.70950 | 58° | 11km/h | 27025m | -46.2m/s | -46.6°C | 3.0% | 0hPa | 2.7V | 00:00:00 | 02:31:53 | 00:00:00 | |
| IW2NTF | 2026-09-01 12:08:24 | 44.67667 | 8.70931 | 85° | 20km/h | 27549m | -47m/s | -46.4°C | 3% | 0hPa | 2.7V | 08:28:37 | 02:31:42 | 00:00:00 | |
| AUTORXJP | 2026-09-01 12:08:21 | 44.67667 | 8.70925 | 98° | 16km/h | 27597m | -47.2m/s | -46.3°C | 0.7% | -1.0hPa | 2.6V | 00:00:00 | 00:00:00 | 00:00:00 | |
| RDZBGO | 2026-09-01 12:08:18 | 44.67667 | 8.70925 | 100° | 18km/h | 27597m | -47.2m/s | -46.3°C | 0.7% | 0hPa | 2.6V | 08:29:00 | 00:00:00 | 00:00:00 | |
| IW2NTF | 2026-09-01 12:08:13 | 44.67672 | 8.70875 | 94° | 5km/h | 28013m | -48.1m/s | -45.9°C | 2.9% | 0hPa | 2.6V | 08:28:47 | 02:31:32 | 00:00:00 | |
| DO3MHA-12 | 2026-09-01 12:08:11 | 44.67672 | 8.70877 | 100° | 4km/h | 27966m | -48.1m/s | -45.8°C | 2.9% | 0hPa | 2.7V | 00:00:00 | 02:31:33 | 00:00:00 | |
| IW2NTF | 2026-09-01 12:08:06 | 44.67673 | 8.70874 | 72° | 4km/h | 28480m | -45.8m/s | -45.2°C | 2.8% | 0hPa | 2.7V | 08:28:57 | 02:31:22 | 00:00:00 | |
| DO3MHA-12 | 2026-09-01 12:08:01 | 44.67673 | 8.70876 | 88° | 11km/h | 28435m | -46.0m/s | -45.1°C | 2.8% | 0hPa | 2.6V | 00:00:00 | 02:31:23 | 00:00:00 | |
| RDZBGO | 2026-09-01 12:07:58 | 44.67672 | 8.70874 | 347° | 7km/h | 28526m | -46.1m/s | -44.9°C | 0.6% | 0hPa | 2.7V | 08:29:00 | 00:00:00 | 00:00:00 | |
| IW2NTF | 2026-09-01 12:07:52 | 44.67643 | 8.70872 | 31° | 15km/h | 28945m | -46.3m/s | -44.1°C | 2.6% | 0hPa | 2.7V | 08:30:00 | 02:31:12 | 00:00:00 | |
| AUTORXJP | 2026-09-01 12:07:50 | 44.67640 | 8.70870 | 27° | 16km/h | 28992m | -48.1m/s | -44.2°C | 0.6% | -1.0hPa | 2.7V | 00:00:00 | 00:00:00 | 00:00:00 | |
| IW2NTF | 2026-09-01 12:07:43 | 44.67617 | 8.70860 | 345° | 7km/h | 29404m | -45.4m/s | -43.8°C | 2.6% | 0hPa | 2.7V | 08:30:00 | 02:31:02 | 00:00:00 | |
| DB0UT-7 | 2026-09-01 12:07:41 | 44.67619 | 8.70859 | 359° | 24km/h | 29359m | -46.0m/s | -44.0°C | 2.7% | 0hPa | 2.7V | 08:29:00 | 02:31:03 | 00:00:00 | |
| DO3MHA-12 | 2026-09-01 12:07:40 | 44.67617 | 8.70860 | 346° | 15km/h | 29405m | -45.3m/s | -43.7°C | 2.6% | 0hPa | 2.7V | 00:00:00 | 02:31:02 | 00:00:00 | |
| RDZBGO | 2026-09-01 12:07:37 | 44.67614 | 8.70865 | 294° | 13km/h | 29497m | -47.9m/s | -43.1°C | 0.6% | 0hPa | 2.7V | 08:29:00 | 00:00:00 | 00:00:00 | |
| IW2NTF | 2026-09-01 12:07:34 | 44.67601 | 8.70904 | 312° | 22km/h | 29824m | -33.1m/s | -43.6°C | 2.6% | 0hPa | 2.7V | 08:30:00 | 02:30:52 | 00:00:00 | |
| DO3MHA-12 | 2026-09-01 12:07:30 | 44.67600 | 8.70904 | 313° | 29km/h | 29824m | -33.0m/s | -43.6°C | 2.6% | 0hPa | 2.7V | 08:29:00 | 02:30:52 | 00:00:00 | |
| IW2NTF | 2026-09-01 12:07:25 | 44.67532 | 8.70936 | 351° | 35km/h | 30153m | -34.5m/s | -43.4°C | 2.6% | 0hPa | 2.7V | 08:30:00 | 02:30:42 | 00:00:00 | |
| DO3MHA-12 | 2026-09-01 12:07:20 | 44.67532 | 8.70936 | 352° | 29km/h | 30154m | -34.5m/s | -43.4°C | 2.6% | 0hPa | 2.7V | 00:00:00 | 02:30:42 | 00:00:00 | |
| AUTORXJP | 2026-09-01 12:07:18 | 44.67515 | 8.70940 | 348° | 31km/h | 30223m | -36.2m/s | -43.6°C | 0.6% | -1.0hPa | 2.7V | 00:00:00 | 00:00:00 | 00:00:00 | |
| RDZBGO | 2026-09-01 12:07:17 | 44.67515 | 8.70940 | 350° | 31km/h | 30223m | -36.2m/s | -43.6°C | 0.6% | 0hPa | 2.7V | 08:29:00 | 00:00:00 | 00:00:00 | |
| DB0UT-7 | 2026-09-01 12:07:12 | 44.67469 | 8.70926 | 50° | 18km/h | 30456m | -34.7m/s | -44.2°C | 2.9% | 0hPa | 2.7V | 00:00:00 | 00:00:00 | 00:00:00 | |
| DO3MHA-12 | 2026-09-01 12:07:10 | 44.67465 | 8.70919 | 52° | 16km/h | 30490m | -34.6m/s | -44.0°C | 2.9% | 0hPa | 2.7V | 00:00:00 | 02:30:32 | 00:00:00 | |
| AUTORXJP | 2026-09-01 12:06:47 | 44.67456 | 8.70905 | 12° | 31km/h | 31339m | -35.6m/s | -41.5°C | 0.5% | -1.0hPa | 2.7V | 00:00:00 | 00:00:00 | 00:00:00 | |
| IW2NTF | 2026-09-01 12:06:41 | 44.67421 | 8.70878 | 128° | 7km/h | 31627m | -33.9m/s | -39.7°C | 2.1% | 0hPa | 2.7V | 08:30:00 | 02:30:01 | 00:00:00 | |
| DB0UT-7 | 2026-09-01 12:06:41 | 44.67422 | 8.70883 | 49° | 11km/h | 31560m | -33.5m/s | -40.6°C | 2.4% | 0hPa | 2.7V | 00:00:00 | 02:30:03 | 00:00:00 | |
| DO3MHA-12 | 2026-09-01 12:06:40 | 44.67420 | 8.70880 | 74° | 9km/h | 31593m | -34.3m/s | -40.2°C | 2.2% | 0hPa | 2.7V | 00:00:00 | 02:30:02 | 00:00:00 | |
| RDZBGO | 2026-09-01 12:06:36 | 44.67428 | 8.70879 | 196° | 15km/h | 31728m | -32.8m/s | -39.3°C | 0.5% | 0hPa | 2.7V | 00:00:00 | 00:00:00 | 00:00:00 | |
| IW2NTF | 2026-09-01 12:06:32 | 44.67437 | 8.70880 | 147° | 5km/h | 31978m | -13.7m/s | -38.7°C | 2.1% | 0hPa | 2.7V | 08:30:00 | 02:29:51 | 00:00:00 | |
| DO3MHA-12 | 2026-09-01 12:06:30 | 44.67436 | 8.70880 | 146° | 9km/h | 31961m | -22.5m/s | -38.7°C | 2.1% | 0hPa | 2.6V | 00:00:00 | 02:29:52 | 00:00:00 | |
| IW2NTF | 2026-09-01 12:06:22 | 44.67436 | 8.70857 | 220° | 5km/h | 31943m | 4.5m/s | -38.9°C | 2.2% | 0hPa | 2.7V | 08:30:00 | 02:29:40 | 00:00:00 | |
| DO3MHA-12 | 2026-09-01 12:06:20 | 44.67435 | 8.70853 | 297° | 11km/h | 31953m | 5.5m/s | -39.1°C | 2.2% | 0hPa | 2.6V | 00:00:00 | 02:29:42 | 00:00:00 | |
| AUTORXJP | 2026-09-01 12:06:17 | 44.67439 | 8.70856 | 140° | 9km/h | 31933m | 5.7m/s | -39.0°C | 0.5% | -1.0hPa | 2.6V | 00:00:00 | 00:00:00 | 00:00:00 | |
| RDZBGO | 2026-09-01 12:06:16 | 44.67441 | 8.70853 | 126° | 15km/h | 31928m | 5.3m/s | -39.0°C | 0.5% | 0hPa | 2.6V | 00:00:00 | 00:00:00 | 00:00:00 | |
| IW2NTF | 2026-09-01 12:06:15 | 44.67456 | 8.70825 | 133° | 5km/h | 31891m | 4.6m/s | -38.9°C | 2.1% | 0hPa | 2.6V | 08:30:00 | 02:29:30 | 00:00:00 | |
| DO3MHA-12 | 2026-09-01 12:06:11 | 44.67452 | 8.70828 | 140° | 7km/h | 31901m | 5.1m/s | -38.8°C | 2.2% | 0hPa | 2.7V | 00:00:00 | 02:29:32 | 00:00:00 | |
| DO3MHA-12 | 2026-09-01 12:06:00 | 44.67460 | 8.70808 | 161° | 18km/h | 31849m | 4.5m/s | -39.2°C | 2.2% | 0hPa | 2.7V | 00:00:00 | 02:29:22 | 08:30:00 | |
| IW2NTF | 2026-09-01 12:06:00 | 44.67467 | 8.70802 | 133° | 18km/h | 31839m | 5.1m/s | -39.3°C | 2.3% | 0hPa | 2.6V | 08:30:00 | 02:29:20 | 00:00:00 | |
| RDZBGO | 2026-09-01 12:05:54 | 44.67473 | 8.70779 | 99° | 27km/h | 31823m | 4.4m/s | -39.2°C | 0.5% | 0hPa | 2.7V | 00:00:00 | 00:00:00 | 00:00:00 | |
| IW2NTF | 2026-09-01 12:05:53 | 44.67473 | 8.70748 | 125° | 7km/h | 31785m | 6m/s | -39.5°C | 2.2% | 0hPa | 2.7V | 08:30:00 | 02:29:10 | 00:00:00 | |
| AUTORXJP | 2026-09-01 12:05:45 | 44.67480 | 8.70736 | 132° | 20km/h | 31770m | 4.8m/s | -39.4°C | 0.4% | -1.0hPa | 2.6V | 00:00:00 | 00:00:00 | 00:00:00 | |
| DB0UT-7 | 2026-09-01 12:05:41 | 44.67495 | 8.70714 | 125° | 20km/h | 31749m | 4.4m/s | -39.3°C | 2.2% | 0hPa | 2.6V | 00:00:00 | 02:29:03 | 00:00:00 | |
| IW2NTF | 2026-09-01 12:05:40 | 44.67497 | 8.70694 | 81° | 24km/h | 31733m | 6.4m/s | -39.2°C | 2.2% | 0hPa | 2.6V | 08:30:00 | 02:29:00 | 00:00:00 | |
| RDZBGO | 2026-09-01 12:05:33 | 44.67491 | 8.70661 | 185° | 9km/h | 31691m | 3.9m/s | -39.3°C | 0.5% | 0hPa | 2.7V | 00:00:00 | 00:00:00 | 00:00:00 | |
| IW2NTF | 2026-09-01 12:05:31 | 44.67496 | 8.70640 | 83° | 33km/h | 31670m | 5.4m/s | -39.5°C | 2.1% | 0hPa | 2.7V | 08:30:00 | 02:28:48 | 00:00:00 | |
| DO3MHA-12 | 2026-09-01 12:05:30 | 44.67491 | 8.70661 | 184° | 26km/h | 31691m | 3.9m/s | -39.3°C | 2.1% | 0hPa | 2.6V | 00:00:00 | 02:28:52 | 00:00:00 | |
| IW2NTF | 2026-09-01 12:05:21 | 44.67471 | 8.70590 | 108° | 13km/h | 31618m | 5.4m/s | -39.9°C | 2.1% | 0hPa | 2.7V | 08:30:00 | 02:28:38 | 00:00:00 | |
| DO3MHA-12 | 2026-09-01 12:05:20 | 44.67473 | 8.70593 | 2° | 16km/h | 31639m | 4.8m/s | -39.5°C | 2.1% | 0hPa | 2.6V | 00:00:00 | 02:28:42 | 00:00:00 | |
| AUTORXJP | 2026-09-01 12:05:14 | 44.67469 | 8.70570 | 64° | 24km/h | 31604m | 4.6m/s | -40.3°C | 0.5% | -1.0hPa | 2.6V | 00:00:00 | 00:00:00 | 00:00:00 | |
| IW2NTF | 2026-09-01 12:05:11 | 44.67427 | 8.70544 | 22° | 18km/h | 31567m | 5.6m/s | -40.7°C | 2.4% | 0hPa | 2.6V | 08:30:00 | 02:28:28 | 00:00:00 | |
| DB0UT-7 | 2026-09-01 12:05:11 | 44.67460 | 8.70556 | 33° | 22km/h | 31593m | 6.4m/s | -40.6°C | 2.3% | 0hPa | 2.7V | 00:00:00 | 00:00:00 | 00:00:00 | |
| DO3MHA-12 | 2026-09-01 12:05:10 | 44.67454 | 8.70552 | 21° | 22km/h | 31586m | 5.7m/s | -40.6°C | 2.4% | 0hPa | 2.7V | 00:00:00 | 02:28:32 | 00:00:00 | |
| IW2NTF | 2026-09-01 12:05:02 | 44.67385 | 8.70516 | 358° | 26km/h | 31513m | 6.3m/s | -40.6°C | 2.3% | 0hPa | 2.7V | 08:30:00 | 02:28:18 | 00:00:00 | |
| DO3MHA-12 | 2026-09-01 12:05:00 | 44.67411 | 8.70518 | 22° | 22km/h | 31536m | 5.9m/s | -40.6°C | 2.4% | 0hPa | 2.7V | 00:00:00 | 02:28:22 | 00:00:00 | |
| IW2NTF | 2026-09-01 12:04:51 | 44.67343 | 8.70501 | 42° | 18km/h | 31457m | 5.5m/s | -40.8°C | 2.3% | 0hPa | 2.6V | 08:30:00 | 02:28:08 | 00:00:00 | |
| DO3MHA-12 | 2026-09-01 12:04:50 | 44.67358 | 8.70512 | 13° | 20km/h | 31479m | 5.2m/s | -40.9°C | 2.4% | 0hPa | 2.7V | 00:00:00 | 02:28:12 | 00:00:00 | |
| RDZBGO | 2026-09-01 12:04:49 | 44.67358 | 8.70512 | 13° | 18km/h | 31479m | 5.2m/s | -41.0°C | 0.5% | 0hPa | 2.7V | 00:00:00 | 00:00:00 | 00:00:00 | |
| AUTORXJP | 2026-09-01 12:04:43 | 44.67324 | 8.70491 | 356° | 24km/h | 31436m | 6.9m/s | -41.0°C | 0.5% | -1.0hPa | 2.7V | 00:00:00 | 00:00:00 | 00:00:00 | |
| IW2NTF | 2026-09-01 12:04:41 | 44.67300 | 8.70500 | 39° | 4km/h | 31402m | 4.7m/s | -40.9°C | 2.3% | 0hPa | 2.7V | 08:30:00 | 02:27:58 | 00:00:00 | |
| DB0UT-7 | 2026-09-01 12:04:41 | 44.67318 | 8.70492 | 348° | 15km/h | 31430m | 5.4m/s | -40.8°C | 2.3% | 0hPa | 2.6V | 00:00:00 | 02:28:03 | 00:00:00 | |
| DO3MHA-12 | 2026-09-01 12:04:40 | 44.67312 | 8.70495 | 341° | 11km/h | 31425m | 4.2m/s | -40.8°C | 2.3% | 0hPa | 2.7V | 00:00:00 | 02:28:02 | 00:00:00 | |
| IW2NTF | 2026-09-01 12:04:31 | 44.67271 | 8.70492 | 342° | 16km/h | 31348m | 5.3m/s | -41.4°C | 2.4% | 0hPa | 2.7V | 08:30:00 | 02:27:48 | 00:00:00 | |
| DO3MHA-12 | 2026-09-01 12:04:30 | 44.67286 | 8.70493 | 16° | 16km/h | 31369m | 6.2m/s | -41.3°C | 2.4% | 0hPa | 2.6V | 00:00:00 | 02:27:52 | 08:30:00 | |
| RDZBGO | 2026-09-01 12:04:29 | 44.67282 | 8.70492 | 15° | 15km/h | 31364m | 5.6m/s | -41.3°C | 0.5% | 0hPa | 2.6V | 00:00:00 | 00:00:00 | 00:00:00 | |
| IW2NTF | 2026-09-01 12:04:22 | 44.67245 | 8.70505 | 354° | 7km/h | 31295m | 5.7m/s | -41.3°C | 2.5% | 0hPa | 2.6V | 08:30:00 | 02:27:38 | 00:00:00 | |
| DO3MHA-12 | 2026-09-01 12:04:20 | 44.67249 | 8.70510 | 1° | 13km/h | 31316m | 6.5m/s | -41.0°C | 2.4% | 0hPa | 2.7V | 00:00:00 | 02:27:42 | 00:00:00 | |
| AUTORXJP | 2026-09-01 12:04:12 | 44.67232 | 8.70522 | 312° | 22km/h | 31274m | 5.0m/s | -41.2°C | 0.5% | -1.0hPa | 2.7V | 00:00:00 | 00:00:00 | 00:00:00 | |
| DB0UT-7 | 2026-09-01 12:04:11 | 44.67228 | 8.70528 | 314° | 11km/h | 31269m | 5.4m/s | -41.2°C | 2.4% | 0hPa | 2.7V | 00:00:00 | 00:00:00 | 00:00:00 | |
| DO3MHA-12 | 2026-09-01 12:04:10 | 44.67225 | 8.70532 | 321° | 13km/h | 31263m | 5.4m/s | -41.3°C | 2.5% | 0hPa | 2.7V | 00:00:00 | 02:27:32 | 00:00:00 | |
| IW2NTF | 2026-09-01 12:04:07 | 44.67201 | 8.70545 | 311° | 9km/h | 31221m | 5.9m/s | -41.3°C | 2.4% | 0hPa | 2.7V | 08:30:00 | 02:27:24 | 00:00:00 | |
| DO3MHA-12 | 2026-09-01 12:04:00 | 44.67200 | 8.70549 | 244° | 11km/h | 31209m | 5.5m/s | -41.1°C | 2.5% | 0hPa | 2.7V | 00:00:00 | 02:27:22 | 00:00:00 | |
| IW2NTF | 2026-09-01 12:03:55 | 44.67200 | 8.70584 | 276° | 2km/h | 31165m | 5.9m/s | -41.2°C | 2.4% | 0hPa | 2.6V | 08:30:00 | 02:27:14 | 00:00:00 | |
| DO3MHA-12 | 2026-09-01 12:03:50 | 44.67201 | 8.70583 | 127° | 11km/h | 31155m | 4.8m/s | -41.0°C | 2.4% | 0hPa | 2.6V | 00:00:00 | 02:27:12 | 00:00:00 | |
| RDZBGO | 2026-09-01 12:03:47 | 44.67202 | 8.70581 | 0° | 0km/h | 31145m | 6.0m/s | -41.2°C | 0.5% | 0hPa | 2.6V | 00:00:00 | 00:00:00 | 00:00:00 | |
| IW2NTF | 2026-09-01 12:03:46 | 44.67210 | 8.70606 | 205° | 16km/h | 31105m | 4.8m/s | -41°C | 2.4% | 0hPa | 2.6V | 08:30:00 | 02:27:03 | 00:00:00 | |
| DB0UT-7 | 2026-09-01 12:03:41 | 44.67210 | 8.70606 | 206° | 13km/h | 31105m | 4.7m/s | -40.9°C | 2.4% | 0hPa | 2.7V | 00:00:00 | 02:27:03 | 00:00:00 | |
| DO3MHA-12 | 2026-09-01 12:03:40 | 44.67213 | 8.70608 | 198° | 7km/h | 31101m | 4.4m/s | -41.0°C | 2.4% | 0hPa | 2.7V | 00:00:00 | 02:27:02 | 00:00:00 | |
| IW2NTF | 2026-09-01 12:03:30 | 44.67245 | 8.70615 | 167° | 11km/h | 31019m | 6.2m/s | -40.9°C | 2.3% | 0hPa | 2.7V | 08:30:00 | 02:26:47 | 00:00:00 | |
| DO3MHA-12 | 2026-09-01 12:03:30 | 44.67232 | 8.70610 | 185° | 15km/h | 31046m | 5.3m/s | -40.9°C | 2.4% | 0hPa | 2.7V | 00:00:00 | 02:26:52 | 00:00:00 | |
| RDZBGO | 2026-09-01 12:03:27 | 44.67240 | 8.70614 | 209° | 9km/h | 31030m | 4.6m/s | -40.8°C | 0.5% | 0hPa | 2.7V | 00:00:00 | 00:00:00 | 00:00:00 | |
| DO3MHA-12 | 2026-09-01 12:03:20 | 44.67263 | 8.70600 | 149° | 15km/h | 30991m | 6.3m/s | -40.8°C | 2.3% | 0hPa | 2.7V | 00:00:00 | 02:26:42 | 00:00:00 | |
| IW2NTF | 2026-09-01 12:03:19 | 44.67281 | 8.70599 | 175° | 20km/h | 30958m | 5.5m/s | -41°C | 2.4% | 0hPa | 2.7V | 08:30:00 | 02:26:36 | 00:00:00 | |
| DO3MHA-12 | 2026-09-01 12:03:11 | 44.67300 | 8.70594 | 162° | 20km/h | 30937m | 5.2m/s | -41.1°C | 2.4% | 0hPa | 2.6V | 00:00:00 | 02:26:32 | 00:00:00 | |
| RDZBGO | 2026-09-01 12:03:06 | 44.67309 | 8.70586 | 135° | 18km/h | 30922m | 5.6m/s | -41.2°C | 0.5% | 0hPa | 2.6V | 00:00:00 | 00:00:00 | 00:00:00 | |
| IW2NTF | 2026-09-01 12:03:01 | 44.67345 | 8.70555 | 165° | 16km/h | 30874m | 4.4m/s | -41.5°C | 2.4% | 0hPa | 2.6V | 08:30:00 | 02:26:20 | 00:00:00 | |
| DO3MHA-12 | 2026-09-01 12:03:00 | 44.67338 | 8.70556 | 178° | 26km/h | 30884m | 5.4m/s | -41.3°C | 2.4% | 0hPa | 2.6V | 00:00:00 | 02:26:22 | 08:30:00 | |
| IW2NTF | 2026-09-01 12:02:51 | 44.67397 | 8.70482 | 139° | 24km/h | 30821m | 4.9m/s | -41.4°C | 2.4% | 0hPa | 2.6V | 08:30:00 | 02:26:10 | 00:00:00 | |
| DO3MHA-12 | 2026-09-01 12:02:50 | 44.67389 | 8.70494 | 127° | 29km/h | 30831m | 4.8m/s | -41.2°C | 2.4% | 0hPa | 2.7V | 00:00:00 | 02:26:12 | 00:00:00 | |
| RDZBGO | 2026-09-01 12:02:45 | 44.67408 | 8.70470 | 148° | 31km/h | 30810m | 5.8m/s | -41.4°C | 0.5% | 0hPa | 2.7V | 00:00:00 | 00:00:00 | 00:00:00 | |
| IW2NTF | 2026-09-01 12:02:41 | 44.67448 | 8.70417 | 100° | 24km/h | 30767m | 6.4m/s | -41.5°C | 2.3% | 0hPa | 2.7V | 08:30:00 | 02:26:00 | 00:00:00 | |
| DO3MHA-12 | 2026-09-01 12:02:40 | 44.67445 | 8.70432 | 119° | 24km/h | 30778m | 5.3m/s | -41.4°C | 2.4% | 0hPa | 2.7V | 00:00:00 | 02:26:02 | 00:00:00 | |
| AUTORXJP | 2026-09-01 12:02:39 | 44.67448 | 8.70417 | 100° | 24km/h | 30767m | 6.4m/s | -41.5°C | 0.5% | -1.0hPa | 2.7V | 00:00:00 | 00:00:00 | 00:00:00 | |
| IW2NTF | 2026-09-01 12:02:32 | 44.67476 | 8.70349 | 134° | 22km/h | 30711m | 4.8m/s | -41.7°C | 2.3% | 0hPa | 2.7V | 08:30:00 | 02:25:50 | 00:00:00 | |
| DO3MHA-12 | 2026-09-01 12:02:30 | 44.67467 | 8.70358 | 146° | 18km/h | 30722m | 5.4m/s | -41.5°C | 2.3% | 0hPa | 2.6V | 00:00:00 | 02:25:52 | 00:00:00 | |
| RDZBGO | 2026-09-01 12:02:23 | 44.67481 | 8.70325 | 68° | 16km/h | 30690m | 6.1m/s | -42.0°C | 0.5% | 0hPa | 2.6V | 00:00:00 | 00:00:00 | 00:00:00 | |
| IW2NTF | 2026-09-01 12:02:21 | 44.67476 | 8.70286 | 117° | 22km/h | 30658m | 4.7m/s | -42.1°C | 2.4% | 0hPa | 2.6V | 08:30:00 | 02:25:40 | 00:00:00 | |
| DO3MHA-12 | 2026-09-01 12:02:20 | 44.67473 | 8.70301 | 88° | 15km/h | 30669m | 5.9m/s | -42.0°C | 2.4% | 0hPa | 2.7V | 00:00:00 | 02:25:42 | 00:00:00 | |
| IW2NTF | 2026-09-01 12:02:13 | 44.67478 | 8.70252 | 63° | 22km/h | 30605m | 4.8m/s | -42.7°C | 2.5% | 0hPa | 2.7V | 08:30:00 | 02:25:30 | 00:00:00 | |
| DB0UT-7 | 2026-09-01 12:02:11 | 44.67485 | 8.70269 | 51° | 20km/h | 30621m | 5.9m/s | -42.6°C | 2.5% | 0hPa | 2.7V | 00:00:00 | 00:00:00 | 00:00:00 | |
| DO3MHA-12 | 2026-09-01 12:02:10 | 44.67482 | 8.70264 | 58° | 13km/h | 30616m | 5.5m/s | -42.6°C | 2.5% | 0hPa | 2.7V | 00:00:00 | 02:25:32 | 00:00:00 | |
| AUTORXJP | 2026-09-01 12:02:08 | 44.67476 | 8.70246 | 67° | 16km/h | 30600m | 5.1m/s | -42.8°C | 0.5% | -1.0hPa | 2.7V | 00:00:00 | 00:00:00 | 00:00:00 | |
| RDZBGO | 2026-09-01 12:02:02 | 44.67472 | 8.70235 | 84° | 2km/h | 30579m | 4.3m/s | -43.0°C | 0.6% | 0hPa | 2.7V | 00:00:00 | 00:00:00 | 00:00:00 | |
| IW2NTF | 2026-09-01 12:02:00 | 44.67462 | 8.70216 | 33° | 27km/h | 30553m | 5.3m/s | -43.2°C | 2.6% | 0hPa | 2.7V | 08:30:00 | 02:25:20 | 00:00:00 | |
| IW2NTF | 2026-09-01 12:01:53 | 44.67403 | 8.70181 | 7° | 16km/h | 30498m | 6m/s | -43.5°C | 2.7% | 0hPa | 2.7V | 08:30:00 | 02:25:10 | 00:00:00 | |
| DO3MHA-12 | 2026-09-01 12:01:50 | 44.67411 | 8.70185 | 35° | 26km/h | 30509m | 4.6m/s | -43.3°C | 2.6% | 0hPa | 2.6V | 00:00:00 | 02:25:12 | 00:00:00 | |
| IW2NTF | 2026-09-01 12:01:43 | 44.67343 | 8.70144 | 18° | 18km/h | 30446m | 6.3m/s | -43.8°C | 2.8% | 0hPa | 2.6V | 08:30:00 | 02:25:00 | 00:00:00 | |
| DB0UT-7 | 2026-09-01 12:01:41 | 44.67358 | 8.70160 | 42° | 26km/h | 30461m | 4.2m/s | -43.7°C | 2.8% | 0hPa | 2.7V | 00:00:00 | 02:25:03 | 00:00:00 | |
| DO3MHA-12 | 2026-09-01 12:01:40 | 44.67353 | 8.70153 | 40° | 24km/h | 30457m | 4.2m/s | -43.7°C | 2.8% | 0hPa | 2.7V | 00:00:00 | 02:25:02 | 00:00:00 | |
| AUTORXJP | 2026-09-01 12:01:37 | 44.67334 | 8.70143 | 353° | 16km/h | 30435m | 4.7m/s | -43.8°C | 0.6% | -1.0hPa | 2.7V | 00:00:00 | 00:00:00 | 00:00:00 | |
| IW2NTF | 2026-09-01 12:01:33 | 44.67299 | 8.70101 | 49° | 24km/h | 30395m | 5.3m/s | -43.7°C | 2.7% | 0hPa | 2.7V | 08:30:00 | 02:24:50 | 00:00:00 | |
| DO3MHA-12 | 2026-09-01 12:01:30 | 44.67307 | 8.70117 | 57° | 26km/h | 30405m | 4.3m/s | -43.7°C | 2.7% | 0hPa | 2.7V | 00:00:00 | 02:24:52 | 08:30:00 | |
| IW2NTF | 2026-09-01 12:01:22 | 44.67227 | 8.70084 | 18° | 31km/h | 30342m | 6m/s | -43.5°C | 2.7% | 0hPa | 2.7V | 08:30:00 | 02:24:40 | 00:00:00 | |
| DO3MHA-12 | 2026-09-01 12:01:20 | 44.67244 | 8.70091 | 14° | 26km/h | 30352m | 4.9m/s | -43.5°C | 2.7% | 0hPa | 2.7V | 00:00:00 | 02:24:42 | 00:00:00 | |
| RDZBGO | 2026-09-01 12:01:17 | 44.67227 | 8.70084 | 20° | 31km/h | 30342m | 6.0m/s | -43.5°C | 0.6% | 0hPa | 2.7V | 00:00:00 | 00:00:00 | 00:00:00 | |
| IW2NTF | 2026-09-01 12:01:12 | 44.67169 | 8.70072 | 340° | 38km/h | 30287m | 5.1m/s | -43.4°C | 2.7% | 0hPa | 2.7V | 08:30:00 | 02:24:30 | 00:00:00 | |
| DB0UT-7 | 2026-09-01 12:01:11 | 44.67192 | 8.70065 | 3° | 35km/h | 30305m | 4.5m/s | -43.6°C | 2.7% | 0hPa | 2.6V | 00:00:00 | 00:00:00 | 00:00:00 | |
| DO3MHA-12 | 2026-09-01 12:01:10 | 44.67185 | 8.70065 | 351° | 37km/h | 30300m | 6.3m/s | -43.5°C | 2.7% | 0hPa | 2.6V | 00:00:00 | 02:24:32 | 00:00:00 | |
| AUTORXJP | 2026-09-01 12:01:06 | 44.67138 | 8.70082 | 357° | 44km/h | 30272m | 5.7m/s | -43.3°C | 0.6% | -1.0hPa | 2.6V | 00:00:00 | 00:00:00 | 00:00:00 | |
| IW2NTF | 2026-09-01 12:01:02 | 44.67090 | 8.70073 | 349° | 15km/h | 30235m | 4.2m/s | -43.3°C | 2.7% | 0hPa | 2.6V | 08:30:00 | 02:24:20 | 00:00:00 | |
| DO3MHA-12 | 2026-09-01 12:01:00 | 44.67097 | 8.70073 | 8° | 33km/h | 30245m | 5.6m/s | -43.3°C | 2.7% | 0hPa | 2.6V | 00:00:00 | 02:24:22 | 00:00:00 | |
| RDZBGO | 2026-09-01 12:00:56 | 44.67086 | 8.70074 | 351° | 18km/h | 30231m | 4.8m/s | -43.3°C | 0.6% | 0hPa | 2.6V | 00:00:00 | 00:00:00 | 00:00:00 | |
| IW2NTF | 2026-09-01 12:00:50 | 44.66991 | 8.70110 | 343° | 40km/h | 30184m | 3.7m/s | -43.1°C | 2.5% | 0hPa | 2.6V | 08:30:00 | 02:24:10 | 00:00:00 | |
| DO3MHA-12 | 2026-09-01 12:00:50 | 44.67013 | 8.70099 | 339° | 35km/h | 30193m | 5.0m/s | -43.0°C | 2.6% | 0hPa | 2.6V | 00:00:00 | 02:24:12 | 00:00:00 | |
| DB0UT-7 | 2026-09-01 12:00:41 | 44.66941 | 8.70104 | 341° | 33km/h | 30149m | 5.6m/s | -43.1°C | 2.6% | 0hPa | 2.6V | 00:00:00 | 02:24:03 | 00:00:00 | |
| IW2NTF | 2026-09-01 12:00:40 | 44.66918 | 8.70128 | 320° | 49km/h | 30133m | 4.5m/s | -43.2°C | 2.6% | 0hPa | 2.6V | 08:30:00 | 02:24:00 | 00:00:00 | |
| RDZBGO | 2026-09-01 12:00:36 | 44.66897 | 8.70148 | 333° | 49km/h | 30124m | 5.0m/s | -43.0°C | 0.6% | 0hPa | 2.7V | 00:00:00 | 00:00:00 | 00:00:00 | |
| AUTORXJP | 2026-09-01 12:00:35 | 44.66876 | 8.70160 | 346° | 40km/h | 30114m | 4.5m/s | -43.2°C | 0.6% | -1.0hPa | 2.7V | 00:00:00 | 00:00:00 | 00:00:00 | |
| IW2NTF | 2026-09-01 12:00:33 | 44.66833 | 8.70173 | 334° | 27km/h | 30084m | 5.1m/s | -42.9°C | 2.6% | 0hPa | 2.7V | 08:30:00 | 02:23:50 | 00:00:00 | |
| DO3MHA-12 | 2026-09-01 12:00:30 | 44.66845 | 8.70167 | 345° | 33km/h | 30094m | 4.6m/s | -42.7°C | 2.5% | 0hPa | 2.7V | 00:00:00 | 02:23:52 | 00:00:00 | |
| IW2NTF | 2026-09-01 12:00:22 | 44.66766 | 8.70253 | 314° | 26km/h | 30031m | 6.2m/s | -43°C | 2.6% | 0hPa | 2.7V | 08:30:00 | 02:23:40 | 00:00:00 | |
| DO3MHA-12 | 2026-09-01 12:00:20 | 44.66775 | 8.70237 | 304° | 24km/h | 30042m | 4.7m/s | -42.9°C | 2.5% | 0hPa | 2.7V | 00:00:00 | 02:23:42 | 00:00:00 | |
| RDZBGO | 2026-09-01 12:00:16 | 44.66751 | 8.70265 | 341° | 22km/h | 30016m | 4.6m/s | -42.7°C | 0.6% | 0hPa | 2.7V | 00:00:00 | 00:00:00 | 00:00:00 | |
| IW2NTF | 2026-09-01 12:00:13 | 44.66720 | 8.70310 | 305° | 37km/h | 29977m | 4.7m/s | -42.7°C | 2.5% | 0hPa | 2.7V | 08:30:00 | 02:23:30 | 00:00:00 | |
| DB0UT-7 | 2026-09-01 12:00:11 | 44.66734 | 8.70283 | 308° | 24km/h | 29994m | 4.4m/s | -42.6°C | 2.5% | 0hPa | 2.7V | 00:00:00 | 00:00:00 | 00:00:00 | |
| DO3MHA-12 | 2026-09-01 12:00:10 | 44.66730 | 8.70291 | 308° | 27km/h | 29989m | 6.0m/s | -42.6°C | 2.5% | 0hPa | 2.6V | 00:00:00 | 02:23:32 | 00:00:00 | |
| AUTORXJP | 2026-09-01 12:00:04 | 44.66705 | 8.70360 | 276° | 22km/h | 29952m | 4.3m/s | -42.7°C | 0.6% | -1.0hPa | 2.6V | 00:00:00 | 00:00:00 | 00:00:00 | |
| IW2NTF | 2026-09-01 12:00:02 | 44.66691 | 8.70386 | 327° | 22km/h | 29926m | 3.9m/s | -42.8°C | 2.5% | 0hPa | 2.6V | 08:30:00 | 02:23:20 | 00:00:00 | |
| DO3MHA-12 | 2026-09-01 12:00:00 | 44.66700 | 8.70378 | 322° | 24km/h | 29936m | 6.1m/s | -42.7°C | 2.5% | 0hPa | 2.7V | 00:00:00 | 02:23:22 | 08:30:00 | |
| RDZBGO | 2026-09-01 11:59:54 | 44.66680 | 8.70413 | 273° | 27km/h | 29905m | 5.2m/s | -42.8°C | 0.6% | 0hPa | 2.6V | 00:00:00 | 00:00:00 | 00:00:00 | |
| IW2NTF | 2026-09-01 11:59:53 | 44.66676 | 8.70462 | 300° | 18km/h | 29874m | 4.6m/s | -42.9°C | 2.5% | 0hPa | 2.6V | 08:30:00 | 02:23:10 | 00:00:00 | |
| DO3MHA-12 | 2026-09-01 11:59:50 | 44.66680 | 8.70449 | 284° | 18km/h | 29885m | 5.6m/s | -42.9°C | 2.6% | 0hPa | 2.7V | 00:00:00 | 02:23:12 | 00:00:00 | |
| DB0UT-7 | 2026-09-01 11:59:41 | 44.66677 | 8.70504 | 260° | 11km/h | 29840m | 5.6m/s | -43.3°C | 2.6% | 0hPa | 2.7V | 00:00:00 | 02:23:03 | 00:00:00 | |
| IW2NTF | 2026-09-01 11:59:40 | 44.66678 | 8.70521 | 271° | 16km/h | 29824m | 4.9m/s | -43.3°C | 2.7% | 0hPa | 2.7V | 08:30:00 | 02:23:00 | 00:00:00 | |
| DO3MHA-12 | 2026-09-01 11:59:40 | 44.66678 | 8.70510 | 270° | 13km/h | 29834m | 5.2m/s | -43.3°C | 2.6% | 0hPa | 2.6V | 00:00:00 | 02:23:02 | 00:00:00 | |
| RDZBGO | 2026-09-01 11:59:34 | 44.66680 | 8.70544 | 253° | 13km/h | 29805m | 4.4m/s | -43.3°C | 0.6% | 0hPa | 2.6V | 00:00:00 | 00:00:00 | 00:00:00 | |
| AUTORXJP | 2026-09-01 11:59:32 | 44.66681 | 8.70550 | 280° | 4km/h | 29795m | 6.4m/s | -43.4°C | 0.6% | -1.0hPa | 2.6V | 00:00:00 | 00:00:00 | 00:00:00 | |
| IW2NTF | 2026-09-01 11:59:32 | 44.66683 | 8.70551 | 223° | 9km/h | 29763m | 4.7m/s | -43.1°C | 2.6% | 0hPa | 2.6V | 08:30:00 | 02:22:48 | 00:00:00 | |
| DO3MHA-12 | 2026-09-01 11:59:30 | 44.66680 | 8.70550 | 40° | 13km/h | 29784m | 4.4m/s | -43.1°C | 2.6% | 0hPa | 2.6V | 00:00:00 | 02:22:52 | 00:00:00 | |
| IW2NTF | 2026-09-01 11:59:20 | 44.66680 | 8.70600 | 281° | 7km/h | 29710m | 5.7m/s | -43°C | 2.6% | 0hPa | 2.7V | 08:30:00 | 02:22:38 | 00:00:00 | |
| DO3MHA-12 | 2026-09-01 11:59:18 | 44.66680 | 8.70592 | 270° | 7km/h | 29721m | 4.7m/s | -43.0°C | 2.6% | 0hPa | 2.7V | 00:00:00 | 02:22:40 | 00:00:00 | |
| RDZBGO | 2026-09-01 11:59:13 | 44.66676 | 8.70605 | 246° | 5km/h | 29684m | 5.8m/s | -43.0°C | 0.6% | 0hPa | 2.7V | 00:00:00 | 00:00:00 | 00:00:00 | |
| IW2NTF | 2026-09-01 11:59:12 | 44.66675 | 8.70627 | 303° | 20km/h | 29658m | 5.9m/s | -43°C | 2.6% | 0hPa | 2.7V | 08:30:00 | 02:22:28 | 00:00:00 | |
| DB0UT-7 | 2026-09-01 11:59:11 | 44.66676 | 8.70605 | 245° | 13km/h | 29684m | 5.7m/s | -43.1°C | 2.6% | 0hPa | 2.7V | 00:00:00 | 00:00:00 | 00:00:00 | |
| DO3MHA-12 | 2026-09-01 11:59:08 | 44.66678 | 8.70616 | 273° | 18km/h | 29670m | 4.1m/s | -42.9°C | 2.5% | 0hPa | 2.7V | 00:00:00 | 02:22:30 | 00:00:00 | |
| IW2NTF | 2026-09-01 11:59:02 | 44.66662 | 8.70671 | 334° | 7km/h | 29606m | 5.6m/s | -42.9°C | 2.5% | 0hPa | 2.7V | 08:30:00 | 02:22:18 | 00:00:00 | |
| AUTORXJP | 2026-09-01 11:59:01 | 44.66661 | 8.70656 | 277° | 15km/h | 29632m | 5.4m/s | -43.1°C | 0.6% | -1.0hPa | 2.7V | 00:00:00 | 00:00:00 | 00:00:00 | |
| DO3MHA-12 | 2026-09-01 11:58:58 | 44.66662 | 8.70668 | 249° | 9km/h | 29618m | 5.4m/s | -42.9°C | 2.5% | 0hPa | 2.7V | 00:00:00 | 02:22:20 | 00:00:00 | |
| IW2NTF | 2026-09-01 11:58:52 | 44.66634 | 8.70706 | 311° | 5km/h | 29554m | 5.6m/s | -43°C | 2.5% | 0hPa | 2.7V | 08:30:00 | 02:22:08 | 00:00:00 | |
| RDZBGO | 2026-09-01 11:58:51 | 44.66648 | 8.70689 | 309° | 20km/h | 29580m | 4.5m/s | -43.0°C | 0.6% | 0hPa | 2.7V | 00:00:00 | 00:00:00 | 00:00:00 | |
| IW2NTF | 2026-09-01 11:58:42 | 44.66616 | 8.70724 | 323° | 15km/h | 29501m | 5.7m/s | -42.9°C | 2.4% | 0hPa | 2.7V | 08:30:00 | 02:21:58 | 00:00:00 | |
| DO3MHA-12 | 2026-09-01 11:58:41 | 44.66634 | 8.70716 | 319° | 13km/h | 29528m | 5.8m/s | -42.7°C | 2.5% | 0hPa | 2.6V | 00:00:00 | 02:22:03 | 00:00:00 | |
| RDZBGO | 2026-09-01 11:58:31 | 44.66612 | 8.70737 | 326° | 2km/h | 29475m | 5.5m/s | -43.1°C | 0.6% | 0hPa | 2.6V | 00:00:00 | 00:00:00 | 00:00:00 | |
| AUTORXJP | 2026-09-01 11:58:30 | 44.66611 | 8.70737 | 9° | 2km/h | 29470m | 5.1m/s | -43.1°C | 0.6% | -1.0hPa | 2.6V | 00:00:00 | 00:00:00 | 00:00:00 | |
| IW2NTF | 2026-09-01 11:58:27 | 44.66608 | 8.70739 | 307° | 7km/h | 29448m | 4.8m/s | -43.3°C | 2.6% | 0hPa | 2.6V | 08:30:00 | 02:21:48 | 00:00:00 | |
| DO3MHA-12 | 2026-09-01 11:58:21 | 44.66594 | 8.70746 | 353° | 9km/h | 29422m | 4.6m/s | -43.7°C | 2.5% | 0hPa | 2.7V | 00:00:00 | 02:21:43 | 08:30:00 | |
| IW2NTF | 2026-09-01 11:58:18 | 44.66590 | 8.70758 | 259° | 9km/h | 29397m | 4.6m/s | -43.9°C | 2.5% | 0hPa | 2.6V | 08:30:00 | 02:21:38 | 00:00:00 | |
| IW2NTF | 2026-09-01 11:58:11 | 44.66576 | 8.70760 | 359° | 9km/h | 29346m | 5.1m/s | -44.3°C | 2.7% | 0hPa | 2.6V | 08:30:00 | 02:21:28 | 00:00:00 | |
| DO3MHA-12 | 2026-09-01 11:58:11 | 44.66584 | 8.70760 | 25° | 7km/h | 29372m | 4.6m/s | -44.1°C | 2.6% | 0hPa | 2.6V | 00:00:00 | 02:21:33 | 00:00:00 | |
| RDZBGO | 2026-09-01 11:58:09 | 44.66582 | 8.70759 | 19° | 7km/h | 29367m | 5.8m/s | -44.2°C | 0.6% | 0hPa | 2.6V | 00:00:00 | 00:00:00 | 00:00:00 | |
| IW2NTF | 2026-09-01 11:58:01 | 44.66560 | 8.70745 | 75° | 13km/h | 29293m | 6m/s | -44.2°C | 2.7% | 0hPa | 2.6V | 08:30:00 | 02:21:18 | 00:00:00 | |
| AUTORXJP | 2026-09-01 11:57:59 | 44.66560 | 8.70751 | 110° | 4km/h | 29304m | 4.6m/s | -44.2°C | 0.6% | -1.0hPa | 2.6V | 00:00:00 | 00:00:00 | 00:00:00 | |
| IW2NTF | 2026-09-01 11:57:51 | 44.66535 | 8.70728 | 17° | 18km/h | 29242m | 5.1m/s | -44.4°C | 2.7% | 0hPa | 2.6V | 08:30:00 | 02:21:08 | 00:00:00 | |
| DO3MHA-12 | 2026-09-01 11:57:50 | 44.66549 | 8.70728 | 348° | 11km/h | 29262m | 4.1m/s | -44.2°C | 2.6% | 0hPa | 2.6V | 00:00:00 | 02:21:12 | 00:00:00 | |
| RDZBGO | 2026-09-01 11:57:48 | 44.66543 | 8.70729 | 358° | 13km/h | 29253m | 5.3m/s | -44.4°C | 0.6% | 0hPa | 2.7V | 00:00:00 | 00:00:00 | 00:00:00 | |
| IW2NTF | 2026-09-01 11:57:41 | 44.66513 | 8.70702 | 31° | 16km/h | 29191m | 4.6m/s | -44.4°C | 2.7% | 0hPa | 2.7V | 08:30:00 | 02:20:58 | 00:00:00 | |
| DB0UT-7 | 2026-09-01 11:57:41 | 44.66520 | 8.70715 | 80° | 18km/h | 29217m | 4.9m/s | -44.4°C | 2.7% | 0hPa | 2.6V | 00:00:00 | 02:21:03 | 00:00:00 | |
| DO3MHA-12 | 2026-09-01 11:57:38 | 44.66518 | 8.70708 | 54° | 20km/h | 29201m | 5.6m/s | -44.3°C | 2.7% | 0hPa | 2.6V | 00:00:00 | 02:21:00 | 00:00:00 | |
| IW2NTF | 2026-09-01 11:57:31 | 44.66469 | 8.70664 | 58° | 24km/h | 29140m | 5.3m/s | -44.9°C | 2.8% | 0hPa | 2.6V | 08:30:00 | 02:20:48 | 00:00:00 | |
| RDZBGO | 2026-09-01 11:57:28 | 44.66477 | 8.70678 | 44° | 29km/h | 29150m | 4.9m/s | -44.8°C | 0.7% | 0hPa | 2.7V | 00:00:00 | 00:00:00 | 00:00:00 | |
| DO3MHA-12 | 2026-09-01 11:57:26 | 44.66469 | 8.70664 | 59° | 22km/h | 29140m | 5.3m/s | -44.8°C | 2.8% | 0hPa | 2.7V | 00:00:00 | 02:20:48 | 00:00:00 | |
| IW2NTF | 2026-09-01 11:57:21 | 44.66430 | 8.70625 | 24° | 26km/h | 29090m | 5.6m/s | -44.7°C | 2.8% | 0hPa | 2.7V | 08:30:00 | 02:20:38 | 00:00:00 | |
| DO3MHA-12 | 2026-09-01 11:57:15 | 44.66425 | 8.70621 | 29° | 18km/h | 29086m | 5.1m/s | -44.5°C | 2.8% | 0hPa | 2.6V | 00:00:00 | 02:20:37 | 00:00:00 | |
| IW2NTF | 2026-09-01 11:57:12 | 44.66394 | 8.70600 | 339° | 20km/h | 29039m | 4.3m/s | -44.3°C | 2.7% | 0hPa | 2.7V | 08:30:00 | 02:20:28 | 00:00:00 | |
| DB0UT-7 | 2026-09-01 11:57:12 | 44.66412 | 8.70605 | 48° | 20km/h | 29065m | 5.3m/s | -44.6°C | 2.8% | 0hPa | 2.7V | 00:00:00 | 00:00:00 | 00:00:00 | |
| RDZBGO | 2026-09-01 11:57:07 | 44.66399 | 8.70598 | 345° | 16km/h | 29044m | 5.4m/s | -44.4°C | 0.6% | 0hPa | 2.7V | 00:00:00 | 00:00:00 | 00:00:00 | |
| IW2NTF | 2026-09-01 11:57:02 | 44.66348 | 8.70589 | 313° | 7km/h | 28990m | 4.6m/s | -44.2°C | 2.6% | 0hPa | 2.7V | 08:30:00 | 02:20:18 | 00:00:00 | |
| AUTORXJP | 2026-09-01 11:56:57 | 44.66348 | 8.70589 | 313° | 7km/h | 28990m | 4.6m/s | -44.2°C | 0.6% | -1.0hPa | 2.7V | 00:00:00 | 00:00:00 | 00:00:00 | |
| DO3MHA-12 | 2026-09-01 11:56:53 | 44.66338 | 8.70595 | 354° | 20km/h | 28977m | 4.5m/s | -44.3°C | 2.6% | 0hPa | 2.7V | 00:00:00 | 02:20:15 | 00:00:00 | |
| IW2NTF | 2026-09-01 11:56:52 | 44.66298 | 8.70583 | 0° | 18km/h | 28940m | 5m/s | -44.5°C | 2.7% | 0hPa | 2.7V | 08:30:00 | 02:20:08 | 00:00:00 | |
| RDZBGO | 2026-09-01 11:56:47 | 44.66303 | 8.70584 | 13° | 18km/h | 28946m | 4.7m/s | -44.4°C | 0.6% | 0hPa | 2.7V | 00:00:00 | 00:00:00 | 00:00:00 | |
| IW2NTF | 2026-09-01 11:56:42 | 44.66261 | 8.70594 | 350° | 16km/h | 28891m | 5.6m/s | -45.1°C | 2.8% | 0hPa | 2.7V | 08:30:00 | 02:19:58 | 00:00:00 | |
| DO3MHA-12 | 2026-09-01 11:56:41 | 44.66274 | 8.70592 | 343° | 16km/h | 28917m | 5.8m/s | -44.9°C | 2.7% | 0hPa | 2.7V | 00:00:00 | 02:20:03 | 08:30:00 | |
| IW2NTF | 2026-09-01 11:56:31 | 44.66227 | 8.70618 | 24° | 11km/h | 28842m | 4.8m/s | -45.1°C | 2.8% | 0hPa | 2.7V | 08:30:00 | 02:19:48 | 00:00:00 | |
| DO3MHA-12 | 2026-09-01 11:56:31 | 44.66237 | 8.70611 | 315° | 11km/h | 28866m | 5.1m/s | -44.9°C | 2.7% | 0hPa | 2.7V | 00:00:00 | 02:19:53 | 00:00:00 | |
| AUTORXJP | 2026-09-01 11:56:26 | 44.66225 | 8.70616 | 39° | 11km/h | 28838m | 4.5m/s | -45.1°C | 0.7% | -1.0hPa | 2.7V | 00:00:00 | 00:00:00 | 00:00:00 | |
| IW2NTF | 2026-09-01 11:56:21 | 44.66206 | 8.70624 | 305° | 20km/h | 28793m | 4.8m/s | -45.2°C | 2.8% | 0hPa | 2.7V | 08:30:00 | 02:19:38 | 00:00:00 | |
| DO3MHA-12 | 2026-09-01 11:56:21 | 44.66220 | 8.70606 | 18° | 13km/h | 28818m | 4.3m/s | -45.0°C | 2.8% | 0hPa | 2.7V | 00:00:00 | 02:19:43 | 00:00:00 | |
| DO3MHA-12 | 2026-09-01 11:56:12 | 44.66203 | 8.70636 | 91° | 9km/h | 28769m | 5.8m/s | -45.3°C | 2.8% | 0hPa | 2.7V | 00:00:00 | 02:19:33 | 00:00:00 | |
| IW2NTF | 2026-09-01 11:56:12 | 44.66197 | 8.70618 | 69° | 13km/h | 28744m | 6m/s | -45.4°C | 2.9% | 0hPa | 2.7V | 08:30:00 | 02:19:28 | 00:00:00 | |
| RDZBGO | 2026-09-01 11:56:07 | 44.66198 | 8.70622 | 64° | 13km/h | 28750m | 4.6m/s | -45.5°C | 0.7% | 0hPa | 2.7V | 00:00:00 | 00:00:00 | 00:00:00 | |
| IW2NTF | 2026-09-01 11:56:01 | 44.66188 | 8.70622 | 159° | 9km/h | 28695m | 5.1m/s | -45.4°C | 2.9% | 0hPa | 2.7V | 08:30:00 | 02:19:18 | 00:00:00 | |
| AUTORXJP | 2026-09-01 11:55:55 | 44.66193 | 8.70618 | 135° | 11km/h | 28686m | 5.0m/s | -45.4°C | 0.7% | -1.0hPa | 2.7V | 00:00:00 | 00:00:00 | 00:00:00 | |
| IW2NTF | 2026-09-01 11:55:51 | 44.66190 | 8.70602 | 13° | 5km/h | 28645m | 4.3m/s | -45.4°C | 2.8% | 0hPa | 2.7V | 08:30:00 | 02:19:08 | 00:00:00 | |
| DO3MHA-12 | 2026-09-01 11:55:51 | 44.66195 | 8.70610 | 69° | 7km/h | 28670m | 4.7m/s | -45.2°C | 2.8% | 0hPa | 2.7V | 00:00:00 | 02:19:13 | 00:00:00 | |
| RDZBGO | 2026-09-01 11:55:46 | 44.66190 | 8.70602 | 14° | 5km/h | 28646m | 4.3m/s | -45.4°C | 0.7% | 0hPa | 2.7V | 00:00:00 | 00:00:00 | 00:00:00 | |
| IW2NTF | 2026-09-01 11:55:42 | 44.66180 | 8.70576 | 72° | 15km/h | 28596m | 5.7m/s | -45.7°C | 2.9% | 0hPa | 2.7V | 08:30:00 | 02:18:58 | 00:00:00 | |
| DO3MHA-12 | 2026-09-01 11:55:41 | 44.66180 | 8.70601 | 54° | 13km/h | 28622m | 4.8m/s | -45.3°C | 2.8% | 0hPa | 2.7V | 00:00:00 | 02:19:03 | 00:00:00 | |
| IW2NTF | 2026-09-01 11:55:31 | 44.66159 | 8.70566 | 38° | 18km/h | 28547m | 5.4m/s | -46.2°C | 3% | 0hPa | 2.7V | 08:30:00 | 02:18:48 | 00:00:00 | |
| DO3MHA-12 | 2026-09-01 11:55:31 | 44.66169 | 8.70572 | 332° | 9km/h | 28571m | 4.9m/s | -45.7°C | 2.9% | 0hPa | 2.7V | 00:00:00 | 02:18:53 | 00:00:00 | |
| RDZBGO | 2026-09-01 11:55:23 | 44.66153 | 8.70557 | 52° | 16km/h | 28538m | 4.5m/s | -46.0°C | 0.7% | 0hPa | 2.7V | 00:00:00 | 00:00:00 | 00:00:00 | |
| IW2NTF | 2026-09-01 11:55:22 | 44.66146 | 8.70545 | 358° | 4km/h | 28497m | 5.5m/s | -46.1°C | 3% | 0hPa | 2.7V | 08:30:00 | 02:18:38 | 00:00:00 | |
| DO3MHA-12 | 2026-09-01 11:55:21 | 44.66149 | 8.70547 | 89° | 5km/h | 28522m | 4.6m/s | -46.0°C | 2.9% | 0hPa | 2.7V | 00:00:00 | 02:18:43 | 00:00:00 | |
| IW2NTF | 2026-09-01 11:55:11 | 44.66145 | 8.70504 | 118° | 13km/h | 28441m | 4.4m/s | -46.3°C | 3% | 0hPa | 2.7V | 08:30:00 | 02:18:27 | 00:00:00 | |
| RDZBGO | 2026-09-01 11:55:02 | 44.66146 | 8.70499 | 80° | 4km/h | 28431m | 5.6m/s | -46.3°C | 0.8% | 0hPa | 2.7V | 00:00:00 | 00:00:00 | 00:00:00 | |
| IW2NTF | 2026-09-01 11:55:01 | 44.66150 | 8.70494 | 88° | 15km/h | 28392m | 6m/s | -46.4°C | 3% | 0hPa | 2.7V | 08:30:00 | 02:18:17 | 00:00:00 | |
| AUTORXJP | 2026-09-01 11:54:53 | 44.66147 | 8.70472 | 84° | 20km/h | 28378m | 3.8m/s | -46.6°C | 0.7% | -1.0hPa | 2.7V | 00:00:00 | 00:00:00 | 00:00:00 | |
| DO3MHA-12 | 2026-09-01 11:54:51 | 44.66147 | 8.70465 | 95° | 9km/h | 28374m | 5.1m/s | -46.7°C | 3.1% | 0hPa | 2.7V | 00:00:00 | 02:18:13 | 00:00:00 | |
| IW2NTF | 2026-09-01 11:54:44 | 44.66151 | 8.70463 | 128° | 9km/h | 28319m | 5.1m/s | -47.2°C | 3.1% | 0hPa | 2.7V | 08:30:00 | 02:18:02 | 00:00:00 | |
| DO3MHA-12 | 2026-09-01 11:54:41 | 44.66150 | 8.70464 | 124° | 11km/h | 28325m | 5.5m/s | -47.1°C | 3.1% | 0hPa | 2.7V | 00:00:00 | 02:18:03 | 00:00:00 | |
| RDZBGO | 2026-09-01 11:54:35 | 44.66156 | 8.70444 | 106° | 15km/h | 28299m | 4.1m/s | -47.2°C | 0.8% | 0hPa | 2.7V | 00:00:00 | 00:00:00 | 00:00:00 | |
| IW2NTF | 2026-09-01 11:54:34 | 44.66160 | 8.70452 | 287° | 15km/h | 28269m | 5.8m/s | -47°C | 3% | 0hPa | 2.7V | 08:30:00 | 02:17:52 | 00:00:00 | |
| DO3MHA-12 | 2026-09-01 11:54:31 | 44.66160 | 8.70446 | 272° | 15km/h | 28274m | 4.5m/s | -46.9°C | 3.1% | 0hPa | 2.7V | 00:00:00 | 02:17:53 | 00:00:00 | |
| IW2NTF | 2026-09-01 11:54:25 | 44.66168 | 8.70427 | 120° | 18km/h | 28220m | 5m/s | -47.1°C | 3.1% | 0hPa | 2.7V | 08:30:00 | 02:17:42 | 00:00:00 | |
| AUTORXJP | 2026-09-01 11:54:22 | 44.66165 | 8.70433 | 127° | 20km/h | 28226m | 5.3m/s | -47.2°C | 0.7% | -1.0hPa | 2.7V | 00:00:00 | 00:00:00 | 00:00:00 | |
| DO3MHA-12 | 2026-09-01 11:54:21 | 44.66165 | 8.70433 | 128° | 9km/h | 28226m | 5.3m/s | -47.1°C | 3.1% | 0hPa | 2.7V | 00:00:00 | 02:17:43 | 00:00:00 | |
| RDZBGO | 2026-09-01 11:54:16 | 44.66173 | 8.70414 | 163° | 5km/h | 28203m | 6.1m/s | -47.1°C | 0.8% | 0hPa | 2.7V | 00:00:00 | 00:00:00 | 00:00:00 | |
| IW2NTF | 2026-09-01 11:54:14 | 44.66178 | 8.70412 | 86° | 9km/h | 28172m | 4.4m/s | -47°C | 3% | 0hPa | 2.7V | 08:30:00 | 02:17:32 | 00:00:00 | |
| DO3MHA-12 | 2026-09-01 11:54:11 | 44.66178 | 8.70415 | 86° | 13km/h | 28177m | 5.4m/s | -47.0°C | 3.0% | 0hPa | 2.7V | 00:00:00 | 02:17:33 | 00:00:00 | |
| IW2NTF | 2026-09-01 11:54:03 | 44.66198 | 8.70374 | 125° | 9km/h | 28121m | 5.4m/s | -46.9°C | 3.1% | 0hPa | 2.7V | 08:30:00 | 02:17:22 | 00:00:00 | |
| DO3MHA-12 | 2026-09-01 11:54:01 | 44.66196 | 8.70377 | 113° | 18km/h | 28126m | 4.8m/s | -46.9°C | 3.1% | 0hPa | 2.7V | 00:00:00 | 02:17:23 | 00:00:00 | |
| RDZBGO | 2026-09-01 11:53:55 | 44.66208 | 8.70356 | 109° | 20km/h | 28096m | 6.3m/s | -46.9°C | 0.8% | 0hPa | 2.7V | 00:00:00 | 00:00:00 | 00:00:00 | |
| IW2NTF | 2026-09-01 11:53:52 | 44.66217 | 8.70312 | 112° | 22km/h | 28069m | 4.7m/s | -46.8°C | 2.9% | 0hPa | 2.7V | 08:30:00 | 02:17:12 | 00:00:00 | |
| AUTORXJP | 2026-09-01 11:53:51 | 44.66216 | 8.70312 | 112° | 20km/h | 28069m | 4.7m/s | -46.8°C | 0.7% | -1.0hPa | 2.7V | 00:00:00 | 00:00:00 | 00:00:00 | |
| IW2NTF | 2026-09-01 11:53:42 | 44.66215 | 8.70268 | 100° | 22km/h | 28017m | 5m/s | -46.8°C | 3% | 0hPa | 2.7V | 08:30:00 | 02:17:02 | 00:00:00 | |
| DO3MHA-12 | 2026-09-01 11:53:41 | 44.66214 | 8.70274 | 102° | 20km/h | 28022m | 4.2m/s | -46.7°C | 3.0% | 0hPa | 2.6V | 00:00:00 | 02:17:03 | 08:30:00 | |
| IW2NTF | 2026-09-01 11:53:32 | 44.66215 | 8.70199 | 48° | 16km/h | 27967m | 5.6m/s | -46.4°C | 3% | 0hPa | 2.6V | 08:30:00 | 02:16:52 | 00:00:00 | |
| DO3MHA-12 | 2026-09-01 11:53:31 | 44.66217 | 8.70203 | 66° | 24km/h | 27973m | 5.4m/s | -46.4°C | 3.0% | 0hPa | 2.6V | 00:00:00 | 02:16:53 | 00:00:00 | |
| IW2NTF | 2026-09-01 11:53:23 | 44.66182 | 8.70122 | 58° | 27km/h | 27916m | 4.7m/s | -46.1°C | 2.9% | 0hPa | 2.6V | 08:30:00 | 02:16:42 | 00:00:00 | |
| DO3MHA-12 | 2026-09-01 11:53:21 | 44.66186 | 8.70131 | 62° | 26km/h | 27922m | 5.0m/s | -46.1°C | 2.9% | 0hPa | 2.6V | 00:00:00 | 02:16:43 | 00:00:00 | |
| AUTORXJP | 2026-09-01 11:53:19 | 44.66178 | 8.70114 | 56° | 22km/h | 27911m | 5.6m/s | -46.2°C | 0.7% | -1.0hPa | 2.6V | 00:00:00 | 00:00:00 | 00:00:00 | |
| IW2NTF | 2026-09-01 11:53:13 | 44.66142 | 8.70052 | 64° | 31km/h | 27865m | 5.5m/s | -46.6°C | 2.9% | 0hPa | 2.6V | 08:30:00 | 02:16:32 | 00:00:00 | |
| RDZBGO | 2026-09-01 11:53:12 | 44.66151 | 8.70072 | 52° | 33km/h | 27876m | 4.7m/s | -46.5°C | 0.7% | 0hPa | 2.6V | 00:00:00 | 00:00:00 | 00:00:00 | |
| DO3MHA-12 | 2026-09-01 11:53:11 | 44.66146 | 8.70062 | 58° | 29km/h | 27871m | 5.7m/s | -46.5°C | 2.9% | 0hPa | 2.6V | 00:00:00 | 02:16:33 | 00:00:00 | |
| IW2NTF | 2026-09-01 11:53:02 | 44.66107 | 8.69968 | 44° | 20km/h | 27814m | 4.9m/s | -46.8°C | 3% | 0hPa | 2.6V | 08:30:00 | 02:16:22 | 00:00:00 | |
| DO3MHA-12 | 2026-09-01 11:53:01 | 44.66110 | 8.69973 | 49° | 24km/h | 27819m | 4.6m/s | -46.7°C | 3.0% | 0hPa | 2.6V | 00:00:00 | 02:16:23 | 00:00:00 | |
| IW2NTF | 2026-09-01 11:52:55 | 44.66069 | 8.69903 | 55° | 27km/h | 27764m | 4.6m/s | -46.9°C | 3.1% | 0hPa | 2.6V | 08:30:00 | 02:16:12 | 00:00:00 | |
| RDZBGO | 2026-09-01 11:52:51 | 44.66072 | 8.69910 | 60° | 24km/h | 27769m | 5.5m/s | -46.9°C | 0.8% | 0hPa | 2.7V | 00:00:00 | 00:00:00 | 00:00:00 | |
| IW2NTF | 2026-09-01 11:52:45 | 44.66022 | 8.69850 | 29° | 24km/h | 27714m | 4.8m/s | -46.8°C | 3% | 0hPa | 2.7V | 08:30:00 | 02:16:02 | 00:00:00 | |
| DO3MHA-12 | 2026-09-01 11:52:41 | 44.66027 | 8.69855 | 31° | 22km/h | 27719m | 4.0m/s | -46.8°C | 3.0% | 0hPa | 2.6V | 00:00:00 | 02:16:03 | 00:00:00 | |
| IW2NTF | 2026-09-01 11:52:35 | 44.65972 | 8.69818 | 18° | 24km/h | 27663m | 4.8m/s | -47°C | 3% | 0hPa | 2.6V | 08:30:00 | 02:15:52 | 00:00:00 | |
| DO3MHA-12 | 2026-09-01 11:52:31 | 44.65977 | 8.69821 | 22° | 24km/h | 27669m | 5.8m/s | -47.0°C | 3.1% | 0hPa | 2.6V | 00:00:00 | 02:15:53 | 00:00:00 | |
| RDZBGO | 2026-09-01 11:52:29 | 44.65972 | 8.69818 | 20° | 24km/h | 27664m | 4.9m/s | -47.0°C | 0.8% | 0hPa | 2.6V | 00:00:00 | 00:00:00 | 00:00:00 | |
| IW2NTF | 2026-09-01 11:52:26 | 44.65919 | 8.69789 | 21° | 18km/h | 27613m | 5.7m/s | -47.3°C | 3% | 0hPa | 2.6V | 08:30:00 | 02:15:42 | 00:00:00 | |
| DO3MHA-12 | 2026-09-01 11:52:21 | 44.65923 | 8.69791 | 25° | 16km/h | 27619m | 5.0m/s | -47.2°C | 3.0% | 0hPa | 2.6V | 00:00:00 | 02:15:43 | 00:00:00 | |
| AUTORXJP | 2026-09-01 11:52:17 | 44.65903 | 8.69782 | 13° | 20km/h | 27599m | 4.6m/s | -47.5°C | 0.7% | -1.0hPa | 2.6V | 00:00:00 | 00:00:00 | 00:00:00 | |
| IW2NTF | 2026-09-01 11:52:15 | 44.65877 | 8.69775 | 6° | 16km/h | 27564m | 3.8m/s | -47.1°C | 3.1% | 0hPa | 2.6V | 08:30:00 | 02:15:32 | 00:00:00 | |
| DO3MHA-12 | 2026-09-01 11:52:12 | 44.65881 | 8.69776 | 12° | 13km/h | 27568m | 4.4m/s | -47.1°C | 3.1% | 0hPa | 2.7V | 00:00:00 | 02:15:33 | 08:30:00 | |
| RDZBGO | 2026-09-01 11:52:08 | 44.65873 | 8.69774 | 4° | 15km/h | 27560m | 4.6m/s | -47.2°C | 0.8% | 0hPa | 2.6V | 00:00:00 | 00:00:00 | 00:00:00 | |
| IW2NTF | 2026-09-01 11:52:06 | 44.65847 | 8.69780 | 331° | 13km/h | 27515m | 4.8m/s | -47.4°C | 3.1% | 0hPa | 2.6V | 08:30:00 | 02:15:22 | 00:00:00 | |
| DO3MHA-12 | 2026-09-01 11:52:01 | 44.65849 | 8.69779 | 343° | 15km/h | 27521m | 5.9m/s | -47.4°C | 3.1% | 0hPa | 2.7V | 00:00:00 | 02:15:23 | 00:00:00 | |
| IW2NTF | 2026-09-01 11:51:56 | 44.65814 | 8.69802 | 351° | 11km/h | 27465m | 5.9m/s | -47.2°C | 3.1% | 0hPa | 2.7V | 08:30:00 | 02:15:12 | 00:00:00 | |
| DO3MHA-12 | 2026-09-01 11:51:51 | 44.65816 | 8.69801 | 339° | 13km/h | 27471m | 4.8m/s | -47.2°C | 3.0% | 0hPa | 2.7V | 00:00:00 | 02:15:13 | 00:00:00 | |
| RDZBGO | 2026-09-01 11:51:48 | 44.65807 | 8.69802 | 360° | 15km/h | 27456m | 3.9m/s | -47.3°C | 0.8% | 0hPa | 2.7V | 00:00:00 | 00:00:00 | 00:00:00 | |
| IW2NTF | 2026-09-01 11:51:46 | 44.65781 | 8.69821 | 332° | 18km/h | 27416m | 4.2m/s | -47.2°C | 3.1% | 0hPa | 2.7V | 08:30:00 | 02:15:02 | 00:00:00 | |
| DO3MHA-12 | 2026-09-01 11:51:41 | 44.65785 | 8.69818 | 335° | 16km/h | 27421m | 5.0m/s | -47.2°C | 3.1% | 0hPa | 2.7V | 00:00:00 | 02:15:03 | 00:00:00 | |
| IW2NTF | 2026-09-01 11:51:35 | 44.65753 | 8.69858 | 313° | 15km/h | 27369m | 5.4m/s | -47.3°C | 3.1% | 0hPa | 2.7V | 08:30:00 | 02:14:52 | 00:00:00 | |
| DO3MHA-12 | 2026-09-01 11:51:31 | 44.65755 | 8.69855 | 329° | 11km/h | 27374m | 4.4m/s | -47.2°C | 3.0% | 0hPa | 2.7V | 00:00:00 | 02:14:53 | 00:00:00 | |
| RDZBGO | 2026-09-01 11:51:28 | 44.65749 | 8.69867 | 281° | 16km/h | 27359m | 4.7m/s | -47.1°C | 0.8% | 0hPa | 2.7V | 00:00:00 | 00:00:00 | 00:00:00 | |
| IW2NTF | 2026-09-01 11:51:27 | 44.65749 | 8.69896 | 259° | 11km/h | 27319m | 4.4m/s | -47.1°C | 3.1% | 0hPa | 2.7V | 08:30:00 | 02:14:42 | 00:00:00 | |
| DO3MHA-12 | 2026-09-01 11:51:21 | 44.65748 | 8.69892 | 261° | 13km/h | 27324m | 5.1m/s | -47.0°C | 3.0% | 0hPa | 2.7V | 00:00:00 | 02:14:43 | 00:00:00 | |
| IW2NTF | 2026-09-01 11:51:16 | 44.65744 | 8.69945 | 279° | 13km/h | 27270m | 5.8m/s | -47.2°C | 3.1% | 0hPa | 2.7V | 08:30:00 | 02:14:32 | 00:00:00 | |
| AUTORXJP | 2026-09-01 11:51:15 | 44.65746 | 8.69916 | 288° | 13km/h | 27295m | 4.6m/s | -47.0°C | 0.7% | -1.0hPa | 2.6V | 00:00:00 | 00:00:00 | 00:00:00 | |
| DB0UT-7 | 2026-09-01 11:51:12 | 44.65745 | 8.69940 | 272° | 13km/h | 27276m | 4.3m/s | -47.1°C | 3.1% | 0hPa | 2.6V | 00:00:00 | 00:00:00 | 00:00:00 | |
| DO3MHA-12 | 2026-09-01 11:51:11 | 44.65745 | 8.69945 | 280° | 16km/h | 27271m | 5.8m/s | -47.2°C | 3.1% | 0hPa | 2.7V | 00:00:00 | 02:14:32 | 00:00:00 | |
| RDZBGO | 2026-09-01 11:51:08 | 44.65742 | 8.69952 | 312° | 9km/h | 27261m | 3.9m/s | -47.3°C | 0.8% | 0hPa | 2.6V | 00:00:00 | 00:00:00 | 00:00:00 | |
| IW2NTF | 2026-09-01 11:51:05 | 44.65736 | 8.69998 | 275° | 15km/h | 27222m | 4.9m/s | -47°C | 3.1% | 0hPa | 2.6V | 08:30:00 | 02:14:22 | 00:00:00 | |
| DO3MHA-12 | 2026-09-01 11:51:00 | 44.65736 | 8.69998 | 276° | 11km/h | 27223m | 4.9m/s | -47.0°C | 3.1% | 0hPa | 2.7V | 00:00:00 | 02:14:22 | 00:00:00 | |
| IW2NTF | 2026-09-01 11:50:55 | 44.65733 | 8.70029 | 297° | 13km/h | 27173m | 5.9m/s | -47.1°C | 3.1% | 0hPa | 2.7V | 08:30:00 | 02:14:12 | 00:00:00 | |
| DO3MHA-12 | 2026-09-01 11:50:50 | 44.65732 | 8.70029 | 298° | 9km/h | 27173m | 5.8m/s | -47.0°C | 3.1% | 0hPa | 2.6V | 00:00:00 | 02:14:12 | 00:00:00 | |
| RDZBGO | 2026-09-01 11:50:47 | 44.65730 | 8.70045 | 283° | 15km/h | 27159m | 5.0m/s | -47.0°C | 0.8% | 0hPa | 2.6V | 00:00:00 | 00:00:00 | 00:00:00 | |
| IW2NTF | 2026-09-01 11:50:45 | 44.65730 | 8.70062 | 261° | 2km/h | 27125m | 4m/s | -47°C | 3.1% | 0hPa | 2.6V | 08:30:00 | 02:14:02 | 00:00:00 | |
| AUTORXJP | 2026-09-01 11:50:44 | 44.65728 | 8.70056 | 273° | 5km/h | 27143m | 4.2m/s | -46.9°C | 0.7% | -1.0hPa | 2.6V | 00:00:00 | 00:00:00 | 00:00:00 | |
| DB0UT-7 | 2026-09-01 11:50:41 | 44.65730 | 8.70061 | 229° | 7km/h | 27130m | 3.8m/s | -46.9°C | 3.1% | 0hPa | 2.6V | 00:00:00 | 02:14:03 | 00:00:00 | |
| DO3MHA-12 | 2026-09-01 11:50:40 | 44.65730 | 8.70062 | 262° | 5km/h | 27125m | 4.0m/s | -46.9°C | 3.1% | 0hPa | 2.6V | 00:00:00 | 02:14:02 | 08:30:00 | |
| IW2NTF | 2026-09-01 11:50:35 | 44.65724 | 8.70074 | 307° | 4km/h | 27077m | 5.3m/s | -46.7°C | 3% | 0hPa | 2.7V | 08:30:00 | 02:13:52 | 00:00:00 | |
| DO3MHA-12 | 2026-09-01 11:50:28 | 44.65722 | 8.70074 | 8° | 9km/h | 27067m | 4.0m/s | -46.7°C | 3.0% | 0hPa | 2.7V | 00:00:00 | 02:13:50 | 00:00:00 | |
| RDZBGO | 2026-09-01 11:50:26 | 44.65720 | 8.70074 | 8° | 7km/h | 27063m | 4.9m/s | -46.6°C | 0.8% | 0hPa | 2.7V | 00:00:00 | 00:00:00 | 00:00:00 | |
| IW2NTF | 2026-09-01 11:50:25 | 44.65710 | 8.70065 | 60° | 15km/h | 27028m | 4.9m/s | -46.7°C | 3% | 0hPa | 2.7V | 08:30:00 | 02:13:42 | 00:00:00 | |
| DO3MHA-12 | 2026-09-01 11:50:18 | 44.65707 | 8.70056 | 73° | 7km/h | 27018m | 5.6m/s | -46.7°C | 3.0% | 0hPa | 2.6V | 00:00:00 | 02:13:40 | 00:00:00 | |
| IW2NTF | 2026-09-01 11:50:15 | 44.65696 | 8.70044 | 39° | 9km/h | 26979m | 5.1m/s | -46.9°C | 2.9% | 0hPa | 2.6V | 08:30:00 | 02:13:32 | 00:00:00 | |
| AUTORXJP | 2026-09-01 11:50:13 | 44.65702 | 8.70049 | 17° | 9km/h | 26994m | 5.2m/s | -46.8°C | 0.7% | -1.0hPa | 2.7V | 00:00:00 | 00:00:00 | 00:00:00 | |
| DB0UT-7 | 2026-09-01 11:50:11 | 44.65697 | 8.70046 | 24° | 16km/h | 26984m | 4.8m/s | -46.8°C | 2.9% | 0hPa | 2.7V | 00:00:00 | 00:00:00 | 00:00:00 | |
| DO3MHA-12 | 2026-09-01 11:50:08 | 44.65693 | 8.70038 | 75° | 18km/h | 26971m | 4.2m/s | -46.7°C | 2.9% | 0hPa | 2.7V | 00:00:00 | 02:13:30 | 00:00:00 | |
| IW2NTF | 2026-09-01 11:50:06 | 44.65683 | 8.69986 | 27° | 9km/h | 26930m | 4.7m/s | -47.2°C | 2.9% | 0hPa | 2.7V | 08:30:00 | 02:13:22 | 00:00:00 | |
| RDZBGO | 2026-09-01 11:50:05 | 44.65690 | 8.70024 | 77° | 26km/h | 26960m | 5.8m/s | -46.9°C | 0.7% | 0hPa | 2.6V | 00:00:00 | 00:00:00 | 00:00:00 | |
| DO3MHA-12 | 2026-09-01 11:49:58 | 44.65677 | 8.69984 | 21° | 16km/h | 26921m | 5.1m/s | -47.6°C | 3.0% | 0hPa | 2.6V | 00:00:00 | 02:13:20 | 00:00:00 | |
| IW2NTF | 2026-09-01 11:49:51 | 44.65673 | 8.69944 | 89° | 20km/h | 26880m | 5.1m/s | -47.9°C | 3.2% | 0hPa | 2.6V | 08:30:00 | 02:13:12 | 00:00:00 | |
| DO3MHA-12 | 2026-09-01 11:49:48 | 44.65670 | 8.69931 | 62° | 20km/h | 26871m | 4.5m/s | -47.8°C | 3.2% | 0hPa | 2.7V | 00:00:00 | 02:13:10 | 00:00:00 | |
| IW2NTF | 2026-09-01 11:49:45 | 44.65643 | 8.69890 | 51° | 26km/h | 26830m | 5.2m/s | -48°C | 3.2% | 0hPa | 2.7V | 08:30:00 | 02:13:02 | 00:00:00 | |
| RDZBGO | 2026-09-01 11:49:44 | 44.65663 | 8.69918 | 42° | 15km/h | 26856m | 4.4m/s | -47.8°C | 0.8% | 0hPa | 2.6V | 00:00:00 | 00:00:00 | 00:00:00 | |
| AUTORXJP | 2026-09-01 11:49:42 | 44.65647 | 8.69897 | 49° | 26km/h | 26835m | 5.2m/s | -48.0°C | 0.8% | -1.0hPa | 2.6V | 00:00:00 | 00:00:00 | 00:00:00 | |
| DB0UT-7 | 2026-09-01 11:49:41 | 44.65647 | 8.69897 | 50° | 33km/h | 26835m | 5.2m/s | -47.9°C | 3.2% | 0hPa | 2.6V | 00:00:00 | 02:13:03 | 08:30:00 | |
| DO3MHA-12 | 2026-09-01 11:49:39 | 44.65636 | 8.69877 | 51° | 26km/h | 26819m | 4.5m/s | -48.0°C | 3.2% | 0hPa | 2.6V | 00:00:00 | 02:13:00 | 00:00:00 | |
| IW2NTF | 2026-09-01 11:49:35 | 44.65590 | 8.69844 | 24° | 26km/h | 26778m | 5.2m/s | -48.2°C | 3.2% | 0hPa | 2.7V | 08:30:00 | 02:12:52 | 00:00:00 | |
| DO3MHA-12 | 2026-09-01 11:49:28 | 44.65577 | 8.69836 | 27° | 35km/h | 26768m | 5.0m/s | -48.2°C | 3.2% | 0hPa | 2.6V | 00:00:00 | 02:12:50 | 00:00:00 | |
| DO3MHA-12 | 2026-09-01 11:49:18 | 44.65493 | 8.69794 | 10° | 38km/h | 26716m | 5.0m/s | -48.4°C | 3.3% | 0hPa | 2.6V | 00:00:00 | 02:12:40 | 00:00:00 | |
| AUTORXJP | 2026-09-01 11:49:11 | 44.65417 | 8.69783 | 5° | 35km/h | 26674m | 4.6m/s | -48.5°C | 0.8% | -1.0hPa | 2.6V | 00:00:00 | 00:00:00 | 00:00:00 | |
| DO3MHA-12 | 2026-09-01 11:49:08 | 44.65401 | 8.69781 | 9° | 31km/h | 26665m | 6.1m/s | -48.5°C | 3.3% | 0hPa | 2.6V | 00:00:00 | 02:12:30 | 08:30:00 | |
| RDZBGO | 2026-09-01 11:49:04 | 44.65380 | 8.69776 | 11° | 29km/h | 26649m | 4.7m/s | -48.7°C | 0.9% | 0hPa | 2.7V | 00:00:00 | 00:00:00 | 00:00:00 | |
| DO3MHA-12 | 2026-09-01 11:48:58 | 44.65318 | 8.69769 | 355° | 27km/h | 26612m | 5.0m/s | -48.6°C | 3.3% | 0hPa | 2.7V | 00:00:00 | 02:12:20 | 00:00:00 | |
| IW2NTF | 2026-09-01 11:48:55 | 44.65271 | 8.69763 | 9° | 24km/h | 26575m | 5.6m/s | -48.5°C | 3.3% | 0hPa | 2.7V | 08:30:00 | 02:12:13 | 00:00:00 | |
| DO3MHA-12 | 2026-09-01 11:48:48 | 44.65254 | 8.69759 | 9° | 22km/h | 26559m | 6.0m/s | -48.4°C | 3.3% | 0hPa | 2.6V | 00:00:00 | 02:12:10 | 00:00:00 | |
| IW2NTF | 2026-09-01 11:48:44 | 44.65215 | 8.69765 | 352° | 22km/h | 26522m | 5.9m/s | -48.4°C | 3.2% | 0hPa | 2.6V | 08:30:00 | 02:12:03 | 00:00:00 | |
| RDZBGO | 2026-09-01 11:48:43 | 44.65230 | 8.69759 | 346° | 22km/h | 26538m | 6.0m/s | -48.3°C | 0.9% | 0hPa | 2.7V | 00:00:00 | 00:00:00 | 00:00:00 | |
| DB0UT-7 | 2026-09-01 11:48:41 | 44.65215 | 8.69765 | 353° | 16km/h | 26523m | 5.9m/s | -48.4°C | 3.2% | 0hPa | 2.7V | 00:00:00 | 02:12:03 | 00:00:00 | |
| AUTORXJP | 2026-09-01 11:48:40 | 44.65198 | 8.69764 | 6° | 20km/h | 26507m | 5.0m/s | -48.4°C | 0.8% | -1.0hPa | 2.7V | 00:00:00 | 00:00:00 | 00:00:00 | |
| DO3MHA-12 | 2026-09-01 11:48:38 | 44.65198 | 8.69764 | 7° | 16km/h | 26507m | 4.9m/s | -48.3°C | 3.2% | 0hPa | 2.7V | 00:00:00 | 02:12:00 | 00:00:00 | |
| IW2NTF | 2026-09-01 11:48:34 | 44.65171 | 8.69758 | 20° | 18km/h | 26469m | 4.4m/s | -48.3°C | 3.2% | 0hPa | 2.6V | 08:30:00 | 02:11:53 | 00:00:00 | |
| DO3MHA-12 | 2026-09-01 11:48:28 | 44.65161 | 8.69754 | 1° | 13km/h | 26454m | 5.5m/s | -48.4°C | 3.2% | 0hPa | 2.7V | 00:00:00 | 02:11:50 | 00:00:00 | |
| IW2NTF | 2026-09-01 11:48:23 | 44.65140 | 8.69749 | 17° | 15km/h | 26417m | 6m/s | -48.3°C | 3.3% | 0hPa | 2.7V | 08:30:00 | 02:11:43 | 00:00:00 | |
| RDZBGO | 2026-09-01 11:48:22 | 44.65147 | 8.69753 | 20° | 16km/h | 26428m | 5.0m/s | -48.3°C | 0.9% | 0hPa | 2.6V | 00:00:00 | 00:00:00 | 00:00:00 | |
| DO3MHA-12 | 2026-09-01 11:48:18 | 44.65130 | 8.69746 | 15° | 18km/h | 26402m | 5.1m/s | -48.3°C | 3.3% | 0hPa | 2.6V | 00:00:00 | 02:11:40 | 00:00:00 | |
| IW2NTF | 2026-09-01 11:48:16 | 44.65097 | 8.69741 | 350° | 18km/h | 26365m | 4.3m/s | -48.2°C | 3.2% | 0hPa | 2.6V | 08:30:00 | 02:11:33 | 00:00:00 | |
| DB0UT-7 | 2026-09-01 11:48:11 | 44.65097 | 8.69741 | 351° | 22km/h | 26365m | 4.3m/s | -48.2°C | 3.2% | 0hPa | 2.6V | 00:00:00 | 00:00:00 | 00:00:00 | |
| AUTORXJP | 2026-09-01 11:48:09 | 44.65082 | 8.69742 | 7° | 24km/h | 26349m | 5.2m/s | -48.3°C | 0.8% | -1.0hPa | 2.7V | 00:00:00 | 00:00:00 | 00:00:00 | |
| DO3MHA-12 | 2026-09-01 11:48:08 | 44.65082 | 8.69742 | 8° | 22km/h | 26349m | 5.1m/s | -48.2°C | 3.2% | 0hPa | 2.7V | 00:00:00 | 02:11:30 | 00:00:00 | |
| IW2NTF | 2026-09-01 11:48:06 | 44.65044 | 8.69736 | 9° | 24km/h | 26311m | 5.5m/s | -48.3°C | 3.3% | 0hPa | 2.7V | 08:30:00 | 02:11:23 | 00:00:00 | |
| RDZBGO | 2026-09-01 11:48:00 | 44.65039 | 8.69734 | 12° | 24km/h | 26306m | 4.5m/s | -48.3°C | 0.9% | 0hPa | 2.7V | 00:00:00 | 00:00:00 | 00:00:00 | |
| DO3MHA-12 | 2026-09-01 11:47:58 | 44.65028 | 8.69732 | 8° | 20km/h | 26296m | 6.1m/s | -48.2°C | 3.2% | 0hPa | 2.7V | 00:00:00 | 02:11:20 | 00:00:00 | |
| IW2NTF | 2026-09-01 11:47:55 | 44.64994 | 8.69727 | 4° | 22km/h | 26260m | 5.4m/s | -48.3°C | 3.2% | 0hPa | 2.7V | 08:30:00 | 02:11:13 | 00:00:00 | |
| DO3MHA-12 | 2026-09-01 11:47:48 | 44.64979 | 8.69729 | 343° | 22km/h | 26245m | 4.3m/s | -48.2°C | 3.2% | 0hPa | 2.7V | 00:00:00 | 02:11:10 | 00:00:00 | |
| IW2NTF | 2026-09-01 11:47:46 | 44.64938 | 8.69743 | 343° | 22km/h | 26207m | 5m/s | -48.2°C | 3.3% | 0hPa | 2.7V | 08:30:00 | 02:11:03 | 00:00:00 | |
| DB0UT-7 | 2026-09-01 11:47:41 | 44.64938 | 8.69743 | 344° | 18km/h | 26207m | 5.0m/s | -48.2°C | 3.3% | 0hPa | 2.6V | 00:00:00 | 02:11:03 | 00:00:00 | |
| RDZBGO | 2026-09-01 11:47:40 | 44.64932 | 8.69745 | 348° | 22km/h | 26202m | 4.8m/s | -48.3°C | 0.9% | 0hPa | 2.6V | 00:00:00 | 00:00:00 | 00:00:00 | |
| AUTORXJP | 2026-09-01 11:47:38 | 44.64915 | 8.69749 | 351° | 24km/h | 26187m | 3.9m/s | -48.4°C | 0.8% | -1.0hPa | 2.6V | 00:00:00 | 00:00:00 | 00:00:00 | |
| IW2NTF | 2026-09-01 11:47:37 | 44.64883 | 8.69772 | 327° | 27km/h | 26155m | 5.2m/s | -48.2°C | 3.3% | 0hPa | 2.6V | 08:30:00 | 02:10:53 | 00:00:00 | |
| IW2NTF | 2026-09-01 11:47:26 | 44.64844 | 8.69804 | 348° | 11km/h | 26104m | 4.6m/s | -48°C | 3.2% | 0hPa | 2.7V | 08:30:00 | 02:10:43 | 00:00:00 | |
| RDZBGO | 2026-09-01 11:47:20 | 44.64841 | 8.69805 | 336° | 9km/h | 26099m | 5.9m/s | -48.0°C | 0.9% | 0hPa | 2.6V | 00:00:00 | 00:00:00 | 00:00:00 | |
| DO3MHA-12 | 2026-09-01 11:47:18 | 44.64837 | 8.69810 | 303° | 11km/h | 26089m | 4.0m/s | -47.9°C | 3.2% | 0hPa | 2.6V | 00:00:00 | 02:10:40 | 00:00:00 | |
| IW2NTF | 2026-09-01 11:47:17 | 44.64821 | 8.69835 | 280° | 9km/h | 26053m | 5m/s | -47.9°C | 3.2% | 0hPa | 2.6V | 08:30:00 | 02:10:33 | 00:00:00 | |
| DB0UT-7 | 2026-09-01 11:47:11 | 44.64821 | 8.69835 | 281° | 9km/h | 26054m | 4.9m/s | -47.9°C | 3.2% | 0hPa | 2.6V | 00:00:00 | 00:00:00 | 00:00:00 | |
| AUTORXJP | 2026-09-01 11:47:07 | 44.64815 | 8.69849 | 330° | 11km/h | 26028m | 4.6m/s | -47.9°C | 0.8% | -1.0hPa | 2.6V | 00:00:00 | 00:00:00 | 00:00:00 | |
| IW2NTF | 2026-09-01 11:47:00 | 44.64806 | 8.69876 | 257° | 11km/h | 25987m | 5.6m/s | -48°C | 3.2% | 0hPa | 2.6V | 08:30:00 | 02:10:20 | 00:00:00 | |
| RDZBGO | 2026-09-01 11:46:58 | 44.64806 | 8.69876 | 258° | 11km/h | 25987m | 5.6m/s | -48.0°C | 0.9% | 0hPa | 2.6V | 00:00:00 | 00:00:00 | 00:00:00 | |
| DO3MHA-12 | 2026-09-01 11:46:57 | 44.64807 | 8.69880 | 241° | 9km/h | 25982m | 6.1m/s | -48.0°C | 3.2% | 0hPa | 2.6V | 00:00:00 | 02:10:19 | 00:00:00 | |
| IW2NTF | 2026-09-01 11:46:53 | 44.64821 | 8.69899 | 218° | 7km/h | 25924m | 5.5m/s | -47.8°C | 3.2% | 0hPa | 2.6V | 08:30:00 | 02:10:08 | 00:00:00 | |
| DB0UT-7 | 2026-09-01 11:46:41 | 44.64831 | 8.69906 | 215° | 7km/h | 25899m | 4.2m/s | -47.7°C | 3.2% | 0hPa | 2.7V | 00:00:00 | 02:10:03 | 00:00:00 | |
| DO3MHA-12 | 2026-09-01 11:46:38 | 44.64831 | 8.69910 | 334° | 5km/h | 25884m | 4.2m/s | -47.7°C | 3.2% | 0hPa | 2.6V | 00:00:00 | 02:10:00 | 00:00:00 | |
| RDZBGO | 2026-09-01 11:46:36 | 44.64830 | 8.69911 | 331° | 7km/h | 25880m | 3.8m/s | -47.6°C | 0.9% | 0hPa | 2.6V | 00:00:00 | 00:00:00 | 00:00:00 | |
| IW2NTF | 2026-09-01 11:46:36 | 44.64829 | 8.69913 | 303° | 5km/h | 25875m | 5m/s | -47.7°C | 3.2% | 0hPa | 2.7V | 08:30:00 | 02:09:58 | 00:00:00 | |
| AUTORXJP | 2026-09-01 11:46:35 | 44.64829 | 8.69914 | 258° | 4km/h | 25870m | 5.4m/s | -47.7°C | 0.8% | -1.0hPa | 2.6V | 00:00:00 | 00:00:00 | 00:00:00 | |
| IW2NTF | 2026-09-01 11:46:31 | 44.64833 | 8.69922 | 285° | 4km/h | 25826m | 5m/s | -47.4°C | 3.2% | 0hPa | 2.6V | 08:30:00 | 02:09:48 | 00:00:00 | |
| DO3MHA-12 | 2026-09-01 11:46:25 | 44.64833 | 8.69924 | 279° | 9km/h | 25822m | 4.3m/s | -47.4°C | 3.2% | 0hPa | 2.7V | 00:00:00 | 02:09:47 | 00:00:00 | |
| IW2NTF | 2026-09-01 11:46:22 | 44.64823 | 8.69947 | 213° | 4km/h | 25778m | 4m/s | -47.3°C | 3% | 0hPa | 2.6V | 08:30:00 | 02:09:38 | 00:00:00 | |
| RDZBGO | 2026-09-01 11:46:16 | 44.64823 | 8.69947 | 215° | 4km/h | 25778m | 4.0m/s | -47.3°C | 0.8% | 0hPa | 2.7V | 00:00:00 | 00:00:00 | 00:00:00 | |
| DO3MHA-12 | 2026-09-01 11:46:15 | 44.64823 | 8.69948 | 192° | 11km/h | 25774m | 4.9m/s | -47.3°C | 3.0% | 0hPa | 2.7V | 00:00:00 | 02:09:37 | 00:00:00 | |
| IW2NTF | 2026-09-01 11:46:11 | 44.64803 | 8.69959 | 314° | 13km/h | 25727m | 5.8m/s | -47.4°C | 3% | 0hPa | 2.7V | 08:30:00 | 02:09:28 | 00:00:00 | |
| DB0UT-7 | 2026-09-01 11:46:11 | 44.64815 | 8.69947 | 353° | 15km/h | 25754m | 4.7m/s | -47.3°C | 3.1% | 0hPa | 2.6V | 00:00:00 | 00:00:00 | 00:00:00 | |
| AUTORXJP | 2026-09-01 11:46:05 | 44.64798 | 8.69966 | 311° | 9km/h | 25718m | 4.3m/s | -47.6°C | 0.8% | -1.0hPa | 2.6V | 00:00:00 | 00:00:00 | 00:00:00 | |
| DO3MHA-12 | 2026-09-01 11:46:04 | 44.64798 | 8.69966 | 312° | 11km/h | 25718m | 4.3m/s | -47.5°C | 3.1% | 0hPa | 2.6V | 00:00:00 | 02:09:26 | 00:00:00 | |
| IW2NTF | 2026-09-01 11:46:02 | 44.64779 | 8.69975 | 355° | 16km/h | 25677m | 5.2m/s | -48.1°C | 3.2% | 0hPa | 2.6V | 08:30:00 | 02:09:18 | 00:00:00 | |
| RDZBGO | 2026-09-01 11:45:54 | 44.64775 | 8.69975 | 350° | 15km/h | 25672m | 5.2m/s | -48.2°C | 0.9% | 0hPa | 2.7V | 00:00:00 | 00:00:00 | 00:00:00 | |
| DO3MHA-12 | 2026-09-01 11:45:53 | 44.64769 | 8.69980 | 323° | 16km/h | 25662m | 4.0m/s | -48.1°C | 3.2% | 0hPa | 2.7V | 00:00:00 | 02:09:15 | 08:30:00 | |
| IW2NTF | 2026-09-01 11:45:52 | 44.64746 | 8.70008 | 334° | 15km/h | 25625m | 5.1m/s | -48.3°C | 3.2% | 0hPa | 2.7V | 08:30:00 | 02:09:08 | 00:00:00 | |
| IW2NTF | 2026-09-01 11:45:42 | 44.64715 | 8.70033 | 288° | 24km/h | 25575m | 4.9m/s | -48.7°C | 3.3% | 0hPa | 2.7V | 08:30:00 | 02:08:58 | 00:00:00 | |
| DB0UT-7 | 2026-09-01 11:45:41 | 44.64726 | 8.70012 | 356° | 13km/h | 25601m | 5.8m/s | -48.3°C | 3.2% | 0hPa | 2.6V | 00:00:00 | 02:09:03 | 00:00:00 | |
| RDZBGO | 2026-09-01 11:45:34 | 44.64711 | 8.70055 | 290° | 18km/h | 25560m | 4.1m/s | -48.6°C | 0.9% | 0hPa | 2.6V | 00:00:00 | 00:00:00 | 00:00:00 | |
| AUTORXJP | 2026-09-01 11:45:33 | 44.64711 | 8.70055 | 288° | 18km/h | 25560m | 4.1m/s | -48.5°C | 0.8% | -1.0hPa | 2.6V | 00:00:00 | 00:00:00 | 00:00:00 | |
| IW2NTF | 2026-09-01 11:45:32 | 44.64687 | 8.70057 | 42° | 11km/h | 25525m | 4.7m/s | -48.6°C | 3.3% | 0hPa | 2.6V | 08:30:00 | 02:08:48 | 00:00:00 | |
| DO3MHA-12 | 2026-09-01 11:45:23 | 44.64681 | 8.70060 | 304° | 9km/h | 25506m | 5.7m/s | -48.6°C | 3.3% | 0hPa | 2.7V | 00:00:00 | 02:08:44 | 00:00:00 | |
| IW2NTF | 2026-09-01 11:45:19 | 44.64663 | 8.70078 | 5° | 9km/h | 25457m | 4.5m/s | -48.7°C | 3.2% | 0hPa | 2.7V | 08:30:00 | 02:08:34 | 00:00:00 | |
| RDZBGO | 2026-09-01 11:45:13 | 44.64665 | 8.70078 | 15° | 11km/h | 25462m | 4.7m/s | -48.6°C | 0.9% | 0hPa | 2.7V | 00:00:00 | 00:00:00 | 00:00:00 | |
| DO3MHA-12 | 2026-09-01 11:45:12 | 44.64662 | 8.70078 | 6° | 7km/h | 25458m | 4.5m/s | -48.6°C | 3.2% | 0hPa | 2.7V | 00:00:00 | 02:08:34 | 00:00:00 | |
| DB0UT-7 | 2026-09-01 11:45:11 | 44.64660 | 8.70078 | 344° | 9km/h | 25452m | 5.9m/s | -48.7°C | 3.2% | 0hPa | 2.7V | 00:00:00 | 00:00:00 | 08:30:00 | |
| IW2NTF | 2026-09-01 11:45:07 | 44.64650 | 8.70096 | 12° | 5km/h | 25406m | 4.4m/s | -48.6°C | 3.3% | 0hPa | 2.6V | 08:30:00 | 02:08:24 | 00:00:00 | |
| IW2NTF | 2026-09-01 11:44:57 | 44.64626 | 8.70100 | 314° | 9km/h | 25357m | 6.1m/s | -48.6°C | 3.2% | 0hPa | 2.7V | 08:30:00 | 02:08:14 | 00:00:00 | |
| RDZBGO | 2026-09-01 11:44:53 | 44.64627 | 8.70099 | 318° | 5km/h | 25362m | 4.8m/s | -48.6°C | 0.9% | 0hPa | 2.6V | 00:00:00 | 00:00:00 | 00:00:00 | |
| DO3MHA-12 | 2026-09-01 11:44:51 | 44.64624 | 8.70103 | 320° | 9km/h | 25352m | 4.8m/s | -48.5°C | 3.2% | 0hPa | 2.6V | 00:00:00 | 02:08:13 | 00:00:00 | |
| IW2NTF | 2026-09-01 11:44:46 | 44.64610 | 8.70116 | 328° | 9km/h | 25306m | 5.2m/s | -49°C | 3.2% | 0hPa | 2.7V | 08:30:00 | 02:08:04 | 00:00:00 | |
| DB0UT-7 | 2026-09-01 11:44:41 | 44.64608 | 8.70118 | 337° | 13km/h | 25301m | 5.6m/s | -49.0°C | 3.3% | 0hPa | 2.6V | 00:00:00 | 02:08:03 | 00:00:00 | |
| DO3MHA-12 | 2026-09-01 11:44:40 | 44.64606 | 8.70118 | 345° | 13km/h | 25296m | 5.0m/s | -49.1°C | 3.3% | 0hPa | 2.6V | 00:00:00 | 02:08:02 | 00:00:00 | |
| IW2NTF | 2026-09-01 11:44:38 | 44.64589 | 8.70115 | 19° | 13km/h | 25255m | 5.5m/s | -49.4°C | 3.3% | 0hPa | 2.6V | 08:30:00 | 02:07:54 | 00:00:00 | |
| AUTORXJP | 2026-09-01 11:44:31 | 44.64585 | 8.70114 | 7° | 15km/h | 25249m | 5.5m/s | -49.5°C | 0.8% | -1.0hPa | 2.7V | 00:00:00 | 00:00:00 | 00:00:00 | |
| RDZBGO | 2026-09-01 11:44:30 | 44.64585 | 8.70114 | 9° | 15km/h | 25249m | 5.5m/s | -49.5°C | 0.9% | 0hPa | 2.7V | 00:00:00 | 00:00:00 | 00:00:00 | |
| IW2NTF | 2026-09-01 11:44:23 | 44.64557 | 8.70109 | 358° | 9km/h | 25201m | 5m/s | -49.9°C | 3.4% | 0hPa | 2.7V | 08:30:00 | 02:07:44 | 00:00:00 | |
| IW2NTF | 2026-09-01 11:44:14 | 44.64521 | 8.70093 | 17° | 24km/h | 25151m | 4.3m/s | -50.3°C | 3.4% | 0hPa | 2.7V | 08:30:00 | 02:07:34 | 00:00:00 | |
| DB0UT-7 | 2026-09-01 11:44:11 | 44.64515 | 8.70090 | 13° | 22km/h | 25146m | 6.0m/s | -50.3°C | 3.4% | 0hPa | 2.6V | 00:00:00 | 00:00:00 | 00:00:00 | |
| RDZBGO | 2026-09-01 11:44:08 | 44.64492 | 8.70089 | 359° | 13km/h | 25116m | 4.7m/s | -50.5°C | 1.0% | 0hPa | 2.6V | 00:00:00 | 00:00:00 | 00:00:00 | |
| IW2NTF | 2026-09-01 11:44:03 | 44.64478 | 8.70090 | 0° | 26km/h | 25100m | 4.4m/s | -50.8°C | 3.5% | 0hPa | 2.6V | 08:30:00 | 02:07:24 | 00:00:00 | |
| AUTORXJP | 2026-09-01 11:44:00 | 44.64464 | 8.70089 | 7° | 26km/h | 25091m | 5.4m/s | -51.0°C | 0.9% | -1.0hPa | 2.7V | 00:00:00 | 00:00:00 | 00:00:00 | |
| IW2NTF | 2026-09-01 11:43:57 | 44.64415 | 8.70107 | 337° | 29km/h | 25052m | 5m/s | -51.2°C | 3.7% | 0hPa | 2.7V | 08:30:00 | 02:07:14 | 00:00:00 | |
| RDZBGO | 2026-09-01 11:43:46 | 44.64379 | 8.70114 | 342° | 20km/h | 25022m | 4.6m/s | -51.0°C | 1.0% | 0hPa | 2.7V | 00:00:00 | 00:00:00 | 00:00:00 | |
| IW2NTF | 2026-09-01 11:43:43 | 44.64363 | 8.70128 | 315° | 16km/h | 25002m | 4.8m/s | -51°C | 3.6% | 0hPa | 2.7V | 08:30:00 | 02:07:04 | 00:00:00 | |
| DB0UT-7 | 2026-09-01 11:43:41 | 44.64360 | 8.70132 | 312° | 22km/h | 24998m | 4.3m/s | -51.0°C | 3.6% | 0hPa | 2.7V | 00:00:00 | 02:07:03 | 00:00:00 | |
| IW2NTF | 2026-09-01 11:43:38 | 44.64323 | 8.70190 | 319° | 16km/h | 24952m | 5.1m/s | -51.2°C | 3.7% | 0hPa | 2.6V | 08:30:00 | 02:06:54 | 00:00:00 | |
| AUTORXJP | 2026-09-01 11:43:29 | 44.64314 | 8.70210 | 294° | 16km/h | 24932m | 6.1m/s | -51.2°C | 1.0% | -1.0hPa | 2.7V | 00:00:00 | 00:00:00 | 00:00:00 | |
| IW2NTF | 2026-09-01 11:43:27 | 44.64304 | 8.70261 | 282° | 29km/h | 24902m | 4.5m/s | -51.2°C | 3.7% | 0hPa | 2.7V | 08:30:00 | 02:06:44 | 00:00:00 | |
| RDZBGO | 2026-09-01 11:43:23 | 44.64302 | 8.70270 | 286° | 26km/h | 24898m | 5.4m/s | -51.2°C | 1.1% | 0hPa | 2.7V | 00:00:00 | 00:00:00 | 00:00:00 | |
| DO3MHA-12 | 2026-09-01 11:43:21 | 44.64302 | 8.70270 | 286° | 26km/h | 24898m | 5.4m/s | -51.2°C | 3.7% | 0hPa | 2.7V | 00:00:00 | 02:06:43 | 00:00:00 | |
| IW2NTF | 2026-09-01 11:43:17 | 44.64287 | 8.70332 | 277° | 22km/h | 24854m | 4.9m/s | -51°C | 3.6% | 0hPa | 2.7V | 08:30:00 | 02:06:34 | 00:00:00 | |
| DB0UT-7 | 2026-09-01 11:43:11 | 44.64286 | 8.70340 | 273° | 18km/h | 24850m | 4.4m/s | -51.0°C | 3.7% | 0hPa | 2.6V | 00:00:00 | 00:00:00 | 00:00:00 | |
| IW2NTF | 2026-09-01 11:43:08 | 44.64291 | 8.70408 | 285° | 16km/h | 24805m | 5.3m/s | -50.9°C | 3.5% | 0hPa | 2.6V | 08:30:00 | 02:06:24 | 00:00:00 | |
| DO3MHA-12 | 2026-09-01 11:43:06 | 44.64290 | 8.70386 | 259° | 18km/h | 24825m | 5.7m/s | -51.1°C | 3.6% | 0hPa | 2.7V | 00:00:00 | 02:06:28 | 08:30:00 | |
| RDZBGO | 2026-09-01 11:43:03 | 44.64292 | 8.70402 | 274° | 13km/h | 24811m | 5.0m/s | -50.9°C | 1.0% | 0hPa | 2.7V | 00:00:00 | 00:00:00 | 00:00:00 | |
| IW2NTF | 2026-09-01 11:42:57 | 44.64295 | 8.70473 | 229° | 22km/h | 24756m | 6.1m/s | -51.3°C | 3.7% | 0hPa | 2.7V | 08:30:00 | 02:06:14 | 00:00:00 | |
| DO3MHA-12 | 2026-09-01 11:42:56 | 44.64285 | 8.70444 | 259° | 20km/h | 24776m | 4.7m/s | -51.2°C | 3.7% | 0hPa | 2.7V | 00:00:00 | 02:06:18 | 00:00:00 | |
| IW2NTF | 2026-09-01 11:42:48 | 44.64307 | 8.70512 | 245° | 13km/h | 24707m | 5.4m/s | -51.5°C | 3.7% | 0hPa | 2.7V | 08:30:00 | 02:06:04 | 00:00:00 | |
| DO3MHA-12 | 2026-09-01 11:42:46 | 44.64306 | 8.70499 | 282° | 15km/h | 24727m | 4.8m/s | -51.5°C | 3.8% | 0hPa | 2.7V | 00:00:00 | 02:06:08 | 00:00:00 | |
| RDZBGO | 2026-09-01 11:42:42 | 44.64306 | 8.70508 | 254° | 9km/h | 24713m | 4.1m/s | -51.4°C | 1.0% | 0hPa | 2.7V | 00:00:00 | 00:00:00 | 00:00:00 | |
| DB0UT-7 | 2026-09-01 11:42:41 | 44.64309 | 8.70517 | 242° | 11km/h | 24703m | 5.4m/s | -51.5°C | 3.7% | 0hPa | 2.7V | 00:00:00 | 02:06:03 | 00:00:00 | |
| DO3MHA-12 | 2026-09-01 11:42:36 | 44.64323 | 8.70540 | 219° | 9km/h | 24678m | 4.1m/s | -51.4°C | 3.7% | 0hPa | 2.7V | 00:00:00 | 02:05:58 | 00:00:00 | |
| IW2NTF | 2026-09-01 11:42:35 | 44.64328 | 8.70553 | 270° | 9km/h | 24659m | 4.2m/s | -51.4°C | 3.8% | 0hPa | 2.6V | 08:30:00 | 02:05:54 | 00:00:00 | |
| AUTORXJP | 2026-09-01 11:42:28 | 44.64329 | 8.70567 | 254° | 13km/h | 24635m | 5.1m/s | -51.5°C | 1.0% | -1.0hPa | 2.7V | 00:00:00 | 00:00:00 | 00:00:00 | |
| DO3MHA-12 | 2026-09-01 11:42:26 | 44.64330 | 8.70572 | 245° | 9km/h | 24631m | 4.3m/s | -51.5°C | 3.7% | 0hPa | 2.7V | 00:00:00 | 02:05:48 | 00:00:00 | |
| IW2NTF | 2026-09-01 11:42:25 | 44.64340 | 8.70583 | 188° | 11km/h | 24610m | 4.1m/s | -51.4°C | 3.7% | 0hPa | 2.7V | 08:30:00 | 02:05:44 | 00:00:00 | |
| RDZBGO | 2026-09-01 11:42:21 | 44.64340 | 8.70583 | 190° | 11km/h | 24611m | 4.1m/s | -51.4°C | 1.0% | 0hPa | 2.7V | 00:00:00 | 00:00:00 | 00:00:00 | |
| DO3MHA-12 | 2026-09-01 11:42:16 | 44.64349 | 8.70588 | 206° | 7km/h | 24582m | 4.5m/s | -51.3°C | 3.6% | 0hPa | 2.7V | 00:00:00 | 02:05:38 | 00:00:00 | |
| IW2NTF | 2026-09-01 11:42:15 | 44.64351 | 8.70598 | 267° | 11km/h | 24562m | 3.8m/s | -51.6°C | 3.6% | 0hPa | 2.7V | 08:30:00 | 02:05:34 | 00:00:00 | |
| DB0UT-7 | 2026-09-01 11:42:11 | 44.64351 | 8.70601 | 259° | 5km/h | 24558m | 4.9m/s | -51.5°C | 3.7% | 0hPa | 2.7V | 00:00:00 | 00:00:00 | 00:00:00 | |
| IW2NTF | 2026-09-01 11:42:06 | 44.64363 | 8.70593 | 134° | 5km/h | 24514m | 3.5m/s | -51.9°C | 3.8% | 0hPa | 2.6V | 08:30:00 | 02:05:24 | 00:00:00 | |
| DO3MHA-12 | 2026-09-01 11:42:06 | 44.64358 | 8.70599 | 151° | 5km/h | 24534m | 5.1m/s | -51.6°C | 3.7% | 0hPa | 2.7V | 00:00:00 | 02:05:28 | 00:00:00 | |
| RDZBGO | 2026-09-01 11:41:57 | 44.64365 | 8.70597 | 255° | 7km/h | 24495m | 4.4m/s | -51.9°C | 1.1% | 0hPa | 2.7V | 00:00:00 | 00:00:00 | 00:00:00 | |
| IW2NTF | 2026-09-01 11:41:56 | 44.64368 | 8.70594 | 61° | 4km/h | 24467m | 5.5m/s | -51.9°C | 3.8% | 0hPa | 2.7V | 08:30:00 | 02:05:14 | 00:00:00 | |
| IW2NTF | 2026-09-01 11:41:46 | 44.64374 | 8.70601 | 204° | 5km/h | 24420m | 4.6m/s | -52°C | 3.7% | 0hPa | 2.7V | 08:30:00 | 02:05:04 | 00:00:00 | |
| DB0UT-7 | 2026-09-01 11:41:41 | 44.64375 | 8.70601 | 181° | 9km/h | 24415m | 5.5m/s | -52.0°C | 3.8% | 0hPa | 2.6V | 00:00:00 | 02:05:03 | 00:00:00 | |
| RDZBGO | 2026-09-01 11:41:37 | 44.64382 | 8.70600 | 187° | 11km/h | 24401m | 5.4m/s | -52.0°C | 1.1% | 0hPa | 2.6V | 00:00:00 | 00:00:00 | 00:00:00 | |
| IW2NTF | 2026-09-01 11:41:36 | 44.64400 | 8.70612 | 209° | 7km/h | 24372m | 4m/s | -51.9°C | 3.9% | 0hPa | 2.6V | 08:30:00 | 02:04:54 | 00:00:00 | |
| DO3MHA-12 | 2026-09-01 11:41:26 | 44.64396 | 8.70613 | 72° | 9km/h | 24343m | 4.8m/s | -51.8°C | 3.7% | 0hPa | 2.7V | 00:00:00 | 02:04:48 | 00:00:00 | |
| IW2NTF | 2026-09-01 11:41:25 | 44.64398 | 8.70607 | 227° | 7km/h | 24325m | 4.6m/s | -52°C | 3.8% | 0hPa | 2.7V | 08:30:00 | 02:04:44 | 00:00:00 | |
| AUTORXJP | 2026-09-01 11:41:25 | 44.64396 | 8.70608 | 119° | 5km/h | 24335m | 4.4m/s | -52.0°C | 1.0% | -1.0hPa | 2.6V | 00:00:00 | 00:00:00 | 00:00:00 | |
| RDZBGO | 2026-09-01 11:41:16 | 44.64404 | 8.70626 | 258° | 7km/h | 24297m | 5.6m/s | -51.9°C | 1.1% | 0hPa | 2.6V | 00:00:00 | 00:00:00 | 00:00:00 | |
| IW2NTF | 2026-09-01 11:41:16 | 44.64402 | 8.70629 | 54° | 7km/h | 24278m | 5.1m/s | -51.9°C | 3.7% | 0hPa | 2.7V | 08:30:00 | 02:04:34 | 00:00:00 | |
| DB0UT-7 | 2026-09-01 11:41:11 | 44.64401 | 8.70626 | 61° | 9km/h | 24274m | 3.9m/s | -51.8°C | 3.7% | 0hPa | 2.6V | 00:00:00 | 00:00:00 | 00:00:00 | |
| IW2NTF | 2026-09-01 11:41:06 | 44.64403 | 8.70639 | 271° | 5km/h | 24233m | 5m/s | -51.7°C | 3.8% | 0hPa | 2.6V | 08:30:00 | 02:04:24 | 00:00:00 | |
| DO3MHA-12 | 2026-09-01 11:41:06 | 44.64399 | 8.70629 | 251° | 9km/h | 24251m | 4.7m/s | -51.7°C | 3.7% | 0hPa | 2.7V | 00:00:00 | 02:04:28 | 00:00:00 | |
| DO3MHA-12 | 2026-09-01 11:40:56 | 44.64390 | 8.70634 | 37° | 7km/h | 24204m | 4.0m/s | -51.9°C | 3.7% | 0hPa | 2.7V | 00:00:00 | 02:04:18 | 00:00:00 | |
| IW2NTF | 2026-09-01 11:40:55 | 44.64381 | 8.70631 | 327° | 4km/h | 24185m | 5.2m/s | -52°C | 3.6% | 0hPa | 2.7V | 08:30:00 | 02:04:14 | 00:00:00 | |
| AUTORXJP | 2026-09-01 11:40:54 | 44.64382 | 8.70630 | 354° | 5km/h | 24190m | 4.2m/s | -52.0°C | 1.0% | -1.0hPa | 2.7V | 00:00:00 | 00:00:00 | 00:00:00 | |
| RDZBGO | 2026-09-01 11:40:52 | 44.64382 | 8.70630 | 355° | 7km/h | 24190m | 4.2m/s | -52.0°C | 1.0% | 0hPa | 2.7V | 00:00:00 | 00:00:00 | 00:00:00 | |
| IW2NTF | 2026-09-01 11:40:46 | 44.64371 | 8.70644 | 31° | 9km/h | 24137m | 3.6m/s | -52.5°C | 3.8% | 0hPa | 2.7V | 08:30:00 | 02:04:04 | 00:00:00 | |
| DB0UT-7 | 2026-09-01 11:40:41 | 44.64370 | 8.70642 | 38° | 11km/h | 24133m | 4.4m/s | -52.5°C | 3.8% | 0hPa | 2.7V | 00:00:00 | 02:04:03 | 08:30:00 | |
| IW2NTF | 2026-09-01 11:40:36 | 44.64371 | 8.70657 | 296° | 9km/h | 24090m | 4.6m/s | -52.8°C | 3.9% | 0hPa | 2.6V | 08:30:00 | 02:03:54 | 00:00:00 | |
| DO3MHA-12 | 2026-09-01 11:40:36 | 44.64369 | 8.70648 | 229° | 11km/h | 24108m | 5.7m/s | -52.7°C | 4.0% | 0hPa | 2.7V | 00:00:00 | 02:03:58 | 00:00:00 | |
| RDZBGO | 2026-09-01 11:40:32 | 44.64371 | 8.70657 | 297° | 9km/h | 24090m | 4.6m/s | -52.8°C | 1.1% | 0hPa | 2.7V | 00:00:00 | 00:00:00 | 00:00:00 | |
| IW2NTF | 2026-09-01 11:40:25 | 44.64346 | 8.70670 | 278° | 7km/h | 24041m | 5.2m/s | -53°C | 4% | 0hPa | 2.7V | 08:30:00 | 02:03:44 | 00:00:00 | |
| DO3MHA-12 | 2026-09-01 11:40:25 | 44.64349 | 8.70662 | 333° | 11km/h | 24055m | 4.4m/s | -52.7°C | 3.9% | 0hPa | 2.7V | 00:00:00 | 02:03:47 | 00:00:00 | |
| AUTORXJP | 2026-09-01 11:40:22 | 44.64346 | 8.70670 | 278° | 5km/h | 24041m | 5.2m/s | -53.0°C | 1.1% | -1.0hPa | 2.7V | 00:00:00 | 00:00:00 | 00:00:00 | |
| IW2NTF | 2026-09-01 11:40:16 | 44.64318 | 8.70685 | 312° | 15km/h | 23990m | 5.3m/s | -53.3°C | 4% | 0hPa | 2.7V | 08:30:00 | 02:03:33 | 00:00:00 | |
| DO3MHA-12 | 2026-09-01 11:40:15 | 44.64331 | 8.70681 | 5° | 13km/h | 24008m | 4.9m/s | -53.2°C | 4.0% | 0hPa | 2.7V | 00:00:00 | 02:03:37 | 00:00:00 | |
| RDZBGO | 2026-09-01 11:40:11 | 44.64318 | 8.70685 | 313° | 15km/h | 23990m | 5.3m/s | -53.3°C | 1.2% | 0hPa | 2.7V | 00:00:00 | 00:00:00 | 00:00:00 | |
| DO3MHA-12 | 2026-09-01 11:40:04 | 44.64312 | 8.70717 | 293° | 11km/h | 23955m | 5.6m/s | -53.1°C | 4.0% | 0hPa | 2.7V | 00:00:00 | 02:03:26 | 08:30:00 | |
| IW2NTF | 2026-09-01 11:40:03 | 44.64307 | 8.70725 | 349° | 11km/h | 23940m | 6m/s | -53.3°C | 4% | 0hPa | 2.6V | 08:30:00 | 02:03:23 | 00:00:00 | |
| IW2NTF | 2026-09-01 11:39:55 | 44.64295 | 8.70757 | 280° | 11km/h | 23892m | 4.2m/s | -53.1°C | 4% | 0hPa | 2.6V | 08:30:00 | 02:03:13 | 00:00:00 | |
| AUTORXJP | 2026-09-01 11:39:51 | 44.64295 | 8.70757 | 280° | 11km/h | 23892m | 4.2m/s | -53.1°C | 1.1% | -1.0hPa | 2.7V | 00:00:00 | 00:00:00 | 00:00:00 | |
| RDZBGO | 2026-09-01 11:39:50 | 44.64295 | 8.70757 | 282° | 11km/h | 23892m | 4.2m/s | -53.1°C | 1.1% | 0hPa | 2.7V | 00:00:00 | 00:00:00 | 00:00:00 | |
| IW2NTF | 2026-09-01 11:39:46 | 44.64280 | 8.70786 | 265° | 15km/h | 23843m | 4.7m/s | -52.9°C | 3.9% | 0hPa | 2.7V | 08:30:00 | 02:03:03 | 00:00:00 | |
| DO3MHA-12 | 2026-09-01 11:39:44 | 44.64282 | 8.70776 | 326° | 11km/h | 23858m | 3.7m/s | -52.9°C | 4.0% | 0hPa | 2.6V | 00:00:00 | 02:03:06 | 00:00:00 | |
| DB0UT-7 | 2026-09-01 11:39:41 | 44.64280 | 8.70786 | 266° | 11km/h | 23843m | 4.7m/s | -52.9°C | 3.9% | 0hPa | 2.6V | 00:00:00 | 02:03:03 | 00:00:00 | |
| IW2NTF | 2026-09-01 11:39:33 | 44.64289 | 8.70833 | 259° | 11km/h | 23795m | 5.8m/s | -53°C | 3.9% | 0hPa | 2.6V | 08:30:00 | 02:02:53 | 00:00:00 | |
| DO3MHA-12 | 2026-09-01 11:39:31 | 44.64289 | 8.70833 | 260° | 7km/h | 23795m | 5.8m/s | -53.0°C | 3.9% | 0hPa | 2.6V | 00:00:00 | 02:02:53 | 00:00:00 | |
| RDZBGO | 2026-09-01 11:39:30 | 44.64289 | 8.70836 | 250° | 9km/h | 23789m | 5.2m/s | -53.1°C | 1.1% | 0hPa | 2.6V | 00:00:00 | 00:00:00 | 00:00:00 | |
| IW2NTF | 2026-09-01 11:39:23 | 44.64291 | 8.70865 | 284° | 15km/h | 23746m | 5.2m/s | -53.2°C | 3.9% | 0hPa | 2.6V | 08:30:00 | 02:02:43 | 00:00:00 | |
| AUTORXJP | 2026-09-01 11:39:20 | 44.64290 | 8.70870 | 293° | 15km/h | 23741m | 5.2m/s | -53.3°C | 1.0% | -1.0hPa | 2.7V | 00:00:00 | 00:00:00 | 00:00:00 | |
| DB0UT-7 | 2026-09-01 11:39:11 | 44.64283 | 8.70892 | 279° | 7km/h | 23698m | 4.6m/s | -53.3°C | 4.1% | 0hPa | 2.7V | 00:00:00 | 00:00:00 | 00:00:00 | |
| RDZBGO | 2026-09-01 11:39:09 | 44.64283 | 8.70896 | 247° | 4km/h | 23687m | 5.3m/s | -53.3°C | 1.2% | 0hPa | 2.7V | 00:00:00 | 00:00:00 | 00:00:00 | |
| AUTORXJP | 2026-09-01 11:38:49 | 44.64303 | 8.70895 | 196° | 7km/h | 23586m | 5.5m/s | -53.4°C | 1.1% | -1.0hPa | 2.7V | 00:00:00 | 00:00:00 | 00:00:00 | |
| RDZBGO | 2026-09-01 11:38:48 | 44.64303 | 8.70895 | 198° | 7km/h | 23586m | 5.5m/s | -53.4°C | 1.2% | 0hPa | 2.7V | 00:00:00 | 00:00:00 | 00:00:00 | |
| DB0UT-7 | 2026-09-01 11:38:41 | 44.64310 | 8.70890 | 97° | 5km/h | 23551m | 4.8m/s | -53.4°C | 3.9% | 0hPa | 2.7V | 00:00:00 | 02:02:03 | 00:00:00 | |
| RDZBGO | 2026-09-01 11:38:27 | 44.64306 | 8.70868 | 118° | 4km/h | 23487m | 5.8m/s | -53.5°C | 1.2% | 0hPa | 2.7V | 00:00:00 | 00:00:00 | 00:00:00 | |
| DO3MHA-12 | 2026-09-01 11:38:20 | 44.64299 | 8.70859 | 45° | 4km/h | 23449m | 3.9m/s | -53.5°C | 4.0% | 0hPa | 2.7V | 00:00:00 | 02:01:42 | 00:00:00 | |
| AUTORXJP | 2026-09-01 11:38:18 | 44.64298 | 8.70858 | 306° | 0km/h | 23440m | 5.3m/s | -53.8°C | 1.1% | -1.0hPa | 2.7V | 00:00:00 | 00:00:00 | 00:00:00 | |
| DB0UT-7 | 2026-09-01 11:38:11 | 44.64297 | 8.70858 | 77° | 9km/h | 23406m | 4.5m/s | -53.8°C | 4.1% | 0hPa | 2.7V | 00:00:00 | 00:00:00 | 00:00:00 | |
| DO3MHA-12 | 2026-09-01 11:38:10 | 44.64296 | 8.70854 | 64° | 13km/h | 23401m | 5.3m/s | -53.8°C | 4.1% | 0hPa | 2.7V | 00:00:00 | 02:01:32 | 00:00:00 | |
| RDZBGO | 2026-09-01 11:38:07 | 44.64292 | 8.70848 | 35° | 13km/h | 23391m | 4.3m/s | -54.0°C | 1.2% | 0hPa | 2.6V | 00:00:00 | 00:00:00 | 00:00:00 | |
| IW2NTF | 2026-09-01 11:38:03 | 44.64275 | 8.70850 | 306° | 13km/h | 23358m | 3.7m/s | -54°C | 4.1% | 0hPa | 2.6V | 08:30:00 | 02:01:23 | 00:00:00 | |
| DO3MHA-12 | 2026-09-01 11:38:00 | 44.64273 | 8.70853 | 302° | 7km/h | 23353m | 5.5m/s | -54.0°C | 4.1% | 0hPa | 2.6V | 00:00:00 | 02:01:22 | 00:00:00 | |
| IW2NTF | 2026-09-01 11:37:56 | 44.64263 | 8.70854 | 60° | 7km/h | 23309m | 4.2m/s | -54.1°C | 4.2% | 0hPa | 2.6V | 08:30:00 | 02:01:13 | 00:00:00 | |
| AUTORXJP | 2026-09-01 11:37:47 | 44.64257 | 8.70851 | 346° | 7km/h | 23291m | 3.7m/s | -54.1°C | 1.1% | -1.0hPa | 2.7V | 00:00:00 | 00:00:00 | 00:00:00 | |
| IW2NTF | 2026-09-01 11:37:46 | 44.64243 | 8.70840 | 36° | 16km/h | 23263m | 5.1m/s | -54.1°C | 4.3% | 0hPa | 2.7V | 08:30:00 | 02:01:03 | 00:00:00 | |
| DB0UT-7 | 2026-09-01 11:37:41 | 44.64243 | 8.70840 | 37° | 11km/h | 23263m | 5.1m/s | -54.0°C | 4.3% | 0hPa | 2.7V | 00:00:00 | 02:01:03 | 00:00:00 | |
| DO3MHA-12 | 2026-09-01 11:37:40 | 44.64240 | 8.70836 | 43° | 11km/h | 23258m | 4.4m/s | -54.0°C | 4.2% | 0hPa | 2.7V | 00:00:00 | 02:01:02 | 08:30:00 | |
| IW2NTF | 2026-09-01 11:37:36 | 44.64224 | 8.70822 | 5° | 13km/h | 23215m | 5.1m/s | -53.9°C | 4.2% | 0hPa | 2.6V | 08:30:00 | 02:00:53 | 00:00:00 | |
| DO3MHA-12 | 2026-09-01 11:37:30 | 44.64221 | 8.70821 | 15° | 11km/h | 23211m | 4.4m/s | -53.9°C | 4.2% | 0hPa | 2.6V | 00:00:00 | 02:00:52 | 00:00:00 | |
| RDZBGO | 2026-09-01 11:37:27 | 44.64213 | 8.70819 | 16° | 16km/h | 23200m | 5.7m/s | -54.0°C | 0% | 0hPa | 2.6V | 00:00:00 | 00:00:00 | 00:00:00 | |
| IW2NTF | 2026-09-01 11:37:26 | 44.64197 | 8.70809 | 305° | 9km/h | 23166m | 5.3m/s | -54.1°C | 4.2% | 0hPa | 2.6V | 08:30:00 | 02:00:43 | 00:00:00 | |
| DO3MHA-12 | 2026-09-01 11:37:20 | 44.64195 | 8.70812 | 297° | 13km/h | 23162m | 4.6m/s | -53.9°C | 4.2% | 0hPa | 2.6V | 00:00:00 | 02:00:42 | 00:00:00 | |
| IW2NTF | 2026-09-01 11:37:16 | 44.64171 | 8.70821 | 352° | 16km/h | 23121m | 4.2m/s | -53.9°C | 4.1% | 0hPa | 2.6V | 08:30:00 | 02:00:33 | 00:00:00 | |
| AUTORXJP | 2026-09-01 11:37:16 | 44.64188 | 8.70824 | 356° | 7km/h | 23144m | 4.8m/s | -53.8°C | 1.1% | -1.0hPa | 2.7V | 00:00:00 | 00:00:00 | 00:00:00 | |
| DB0UT-7 | 2026-09-01 11:37:11 | 44.64171 | 8.70821 | 353° | 13km/h | 23121m | 4.2m/s | -53.8°C | 4.1% | 0hPa | 2.7V | 00:00:00 | 00:00:00 | 00:00:00 | |
| DO3MHA-12 | 2026-09-01 11:37:10 | 44.64167 | 8.70822 | 345° | 9km/h | 23117m | 5.1m/s | -53.9°C | 4.1% | 0hPa | 2.7V | 00:00:00 | 02:00:32 | 00:00:00 | |
| IW2NTF | 2026-09-01 11:37:06 | 44.64147 | 8.70836 | 342° | 9km/h | 23073m | 3.7m/s | -53.9°C | 4.2% | 0hPa | 2.7V | 08:30:00 | 02:00:23 | 00:00:00 | |
| DO3MHA-12 | 2026-09-01 11:37:00 | 44.64145 | 8.70838 | 338° | 15km/h | 23069m | 4.2m/s | -53.9°C | 4.2% | 0hPa | 2.6V | 00:00:00 | 02:00:22 | 00:00:00 | |
| IW2NTF | 2026-09-01 11:36:56 | 44.64114 | 8.70855 | 309° | 11km/h | 23029m | 4.6m/s | -54.1°C | 4.1% | 0hPa | 2.6V | 08:30:00 | 02:00:13 | 00:00:00 | |
| DO3MHA-12 | 2026-09-01 11:36:50 | 44.64112 | 8.70858 | 308° | 15km/h | 23025m | 4.9m/s | -54.0°C | 4.2% | 0hPa | 2.7V | 00:00:00 | 02:00:12 | 00:00:00 | |
| IW2NTF | 2026-09-01 11:36:45 | 44.64083 | 8.70882 | 336° | 16km/h | 22984m | 4.3m/s | -54.1°C | 4.2% | 0hPa | 2.7V | 08:30:00 | 02:00:03 | 00:00:00 | |
| AUTORXJP | 2026-09-01 11:36:45 | 44.64099 | 8.70874 | 341° | 13km/h | 23002m | 4.1m/s | -54.0°C | 1.1% | -1.0hPa | 2.6V | 00:00:00 | 00:00:00 | 00:00:00 | |
| DB0UT-7 | 2026-09-01 11:36:41 | 44.64083 | 8.70882 | 337° | 16km/h | 22984m | 4.3m/s | -54.0°C | 4.2% | 0hPa | 2.6V | 00:00:00 | 02:00:03 | 00:00:00 | |
| DO3MHA-12 | 2026-09-01 11:36:40 | 44.64079 | 8.70884 | 339° | 13km/h | 22979m | 5.3m/s | -54.1°C | 4.3% | 0hPa | 2.6V | 00:00:00 | 02:00:02 | 00:00:00 | |
| IW2NTF | 2026-09-01 11:36:36 | 44.64054 | 8.70908 | 324° | 18km/h | 22937m | 4.4m/s | -53.9°C | 4.2% | 0hPa | 2.7V | 08:30:00 | 01:59:53 | 00:00:00 | |
| DO3MHA-12 | 2026-09-01 11:36:30 | 44.64050 | 8.70912 | 322° | 18km/h | 22932m | 5.7m/s | -53.9°C | 4.2% | 0hPa | 2.6V | 00:00:00 | 01:59:52 | 00:00:00 | |
| IW2NTF | 2026-09-01 11:36:26 | 44.64015 | 8.70946 | 317° | 15km/h | 22890m | 5.1m/s | -53.9°C | 4.2% | 0hPa | 2.6V | 08:30:00 | 01:59:43 | 00:00:00 | |
| RDZBGO | 2026-09-01 11:36:22 | 44.64021 | 8.70938 | 320° | 16km/h | 22899m | 4.8m/s | -53.9°C | 0% | 0hPa | 2.7V | 00:00:00 | 00:00:00 | 00:00:00 | |
| DO3MHA-12 | 2026-09-01 11:36:20 | 44.64012 | 8.70949 | 322° | 18km/h | 22885m | 4.8m/s | -53.7°C | 4.2% | 0hPa | 2.7V | 00:00:00 | 01:59:42 | 00:00:00 | |
| IW2NTF | 2026-09-01 11:36:16 | 44.63982 | 8.70986 | 339° | 18km/h | 22844m | 4.3m/s | -53.6°C | 4.2% | 0hPa | 2.7V | 08:30:00 | 01:59:33 | 00:00:00 | |
| AUTORXJP | 2026-09-01 11:36:14 | 44.63991 | 8.70979 | 321° | 18km/h | 22854m | 5.0m/s | -53.6°C | 1.1% | -1.0hPa | 2.7V | 00:00:00 | 00:00:00 | 00:00:00 | |
| DB0UT-7 | 2026-09-01 11:36:11 | 44.63982 | 8.70986 | 340° | 20km/h | 22844m | 4.3m/s | -53.6°C | 4.2% | 0hPa | 2.7V | 00:00:00 | 00:00:00 | 08:30:00 | |
| IW2NTF | 2026-09-01 11:36:06 | 44.63952 | 8.71036 | 292° | 22km/h | 22798m | 4m/s | -53.5°C | 4.1% | 0hPa | 2.6V | 08:30:00 | 01:59:23 | 00:00:00 | |
| DO3MHA-12 | 2026-09-01 11:36:00 | 44.63949 | 8.71042 | 300° | 18km/h | 22794m | 3.4m/s | -53.5°C | 4.1% | 0hPa | 2.6V | 00:00:00 | 01:59:22 | 00:00:00 | |
| RDZBGO | 2026-09-01 11:35:56 | 44.63935 | 8.71057 | 339° | 18km/h | 22776m | 4.4m/s | -53.5°C | 0% | 0hPa | 2.6V | 00:00:00 | 00:00:00 | 00:00:00 | |
| IW2NTF | 2026-09-01 11:35:49 | 44.63919 | 8.71103 | 272° | 20km/h | 22739m | 4.9m/s | -53.4°C | 4.1% | 0hPa | 2.6V | 08:30:00 | 01:59:10 | 00:00:00 | |
| AUTORXJP | 2026-09-01 11:35:43 | 44.63910 | 8.71142 | 299° | 15km/h | 22711m | 4.4m/s | 0°C | -1.0% | -1.0hPa | 2.7V | 00:00:00 | 00:00:00 | 00:00:00 | |
| DB0UT-7 | 2026-09-01 11:35:41 | 44.63908 | 8.71147 | 294° | 20km/h | 22706m | 4.9m/s | -53.3°C | 4.1% | 0hPa | 2.7V | 00:00:00 | 01:59:03 | 00:00:00 | |
| IW2NTF | 2026-09-01 11:35:39 | 44.63906 | 8.71167 | 268° | 18km/h | 22691m | 5.4m/s | -53.4°C | 4.1% | 0hPa | 2.7V | 08:30:00 | 01:59:00 | 00:00:00 | |
| RDZBGO | 2026-09-01 11:35:33 | 44.63910 | 8.71198 | 262° | 27km/h | 22672m | 3.7m/s | -53.3°C | 0% | 0hPa | 2.7V | 00:00:00 | 00:00:00 | 00:00:00 | |
| IW2NTF | 2026-09-01 11:35:29 | 44.63907 | 8.71242 | 290° | 18km/h | 22644m | 4.7m/s | -53.2°C | 4.1% | 0hPa | 2.7V | 08:30:00 | 01:58:50 | 00:00:00 | |
| IW2NTF | 2026-09-01 11:35:19 | 44.63908 | 8.71316 | 276° | 26km/h | 22598m | 4.8m/s | -53.1°C | 4.1% | 0hPa | 2.6V | 08:30:00 | 01:58:40 | 00:00:00 | |
| IW2NTF | 2026-09-01 11:35:14 | 44.63900 | 8.71383 | 258° | 20km/h | 22551m | 4.1m/s | -53°C | 4.1% | 0hPa | 2.6V | 08:30:00 | 01:58:30 | 00:00:00 | |
| RDZBGO | 2026-09-01 11:35:13 | 44.63900 | 8.71344 | 293° | 20km/h | 22579m | 5.4m/s | -53.0°C | 0% | 0hPa | 2.7V | 00:00:00 | 00:00:00 | 00:00:00 | |
| DB0UT-7 | 2026-09-01 11:35:11 | 44.63898 | 8.71364 | 269° | 16km/h | 22566m | 4.5m/s | -53.0°C | 4.0% | 0hPa | 2.7V | 00:00:00 | 00:00:00 | 00:00:00 | |
| DO3MHA-12 | 2026-09-01 11:35:10 | 44.63898 | 8.71371 | 263° | 18km/h | 22561m | 5.6m/s | -53.0°C | 4.1% | 0hPa | 2.7V | 00:00:00 | 01:58:32 | 00:00:00 | |
| IW2NTF | 2026-09-01 11:34:59 | 44.63909 | 8.71445 | 235° | 13km/h | 22503m | 5.5m/s | -53°C | 4.1% | 0hPa | 2.7V | 08:30:00 | 01:58:20 | 00:00:00 | |
| RDZBGO | 2026-09-01 11:34:52 | 44.63922 | 8.71466 | 236° | 20km/h | 22480m | 3.8m/s | -52.8°C | 0% | 0hPa | 2.7V | 00:00:00 | 00:00:00 | 00:00:00 | |
| IW2NTF | 2026-09-01 11:34:49 | 44.63937 | 8.71487 | 220° | 15km/h | 22457m | 5.2m/s | -52.7°C | 4% | 0hPa | 2.7V | 08:30:00 | 01:58:10 | 00:00:00 | |
| DB0UT-7 | 2026-09-01 11:34:41 | 44.63949 | 8.71512 | 253° | 18km/h | 22425m | 5.2m/s | -52.4°C | 4.0% | 0hPa | 2.7V | 00:00:00 | 01:58:03 | 00:00:00 | |
| IW2NTF | 2026-09-01 11:34:39 | 44.63955 | 8.71532 | 239° | 22km/h | 22411m | 5.4m/s | -52.5°C | 4% | 0hPa | 2.6V | 08:30:00 | 01:58:00 | 00:00:00 | |
| IW2NTF | 2026-09-01 11:34:30 | 44.63986 | 8.71590 | 234° | 16km/h | 22365m | 5m/s | -52.3°C | 3.9% | 0hPa | 2.6V | 08:30:00 | 01:57:50 | 00:00:00 | |
| RDZBGO | 2026-09-01 11:34:28 | 44.63984 | 8.71586 | 228° | 15km/h | 22370m | 3.8m/s | -52.3°C | 0% | 0hPa | 2.7V | 00:00:00 | 00:00:00 | 00:00:00 | |
| DO3MHA-12 | 2026-09-01 11:34:20 | 44.64012 | 8.71640 | 223° | 15km/h | 22330m | 5.0m/s | -52.1°C | 3.8% | 0hPa | 2.7V | 00:00:00 | 01:57:42 | 00:00:00 | |
| IW2NTF | 2026-09-01 11:34:19 | 44.64024 | 8.71660 | 223° | 15km/h | 22313m | 5.1m/s | -52.2°C | 3.8% | 0hPa | 2.7V | 08:30:00 | 01:57:38 | 00:00:00 | |
| DB0UT-7 | 2026-09-01 11:34:11 | 44.64035 | 8.71673 | 238° | 18km/h | 22289m | 3.9m/s | -52.3°C | 3.8% | 0hPa | 2.6V | 00:00:00 | 00:00:00 | 00:00:00 | |
| DO3MHA-12 | 2026-09-01 11:34:10 | 44.64037 | 8.71677 | 235° | 16km/h | 22285m | 3.9m/s | -52.3°C | 3.9% | 0hPa | 2.6V | 00:00:00 | 01:57:32 | 00:00:00 | |
| IW2NTF | 2026-09-01 11:34:08 | 44.64048 | 8.71690 | 219° | 16km/h | 22266m | 5.4m/s | -52.5°C | 3.8% | 0hPa | 2.7V | 08:30:00 | 01:57:28 | 00:00:00 | |
| DO3MHA-12 | 2026-09-01 11:34:00 | 44.64071 | 8.71708 | 197° | 20km/h | 22238m | 4.4m/s | -52.8°C | 4.0% | 0hPa | 2.7V | 00:00:00 | 01:57:22 | 00:00:00 | |
| IW2NTF | 2026-09-01 11:33:59 | 44.64088 | 8.71716 | 191° | 18km/h | 22220m | 4.5m/s | -52.8°C | 3.9% | 0hPa | 2.7V | 08:30:00 | 01:57:18 | 00:00:00 | |
| DO3MHA-12 | 2026-09-01 11:33:50 | 44.64119 | 8.71716 | 176° | 18km/h | 22192m | 3.9m/s | -52.7°C | 3.9% | 0hPa | 2.6V | 00:00:00 | 01:57:12 | 00:00:00 | |
| IW2NTF | 2026-09-01 11:33:49 | 44.64140 | 8.71708 | 162° | 18km/h | 22173m | 4.7m/s | -52.8°C | 4% | 0hPa | 2.6V | 08:30:00 | 01:57:08 | 00:00:00 | |
| RDZBGO | 2026-09-01 11:33:42 | 44.64154 | 8.71704 | 165° | 15km/h | 22154m | 5.2m/s | -52.8°C | 0% | 0hPa | 2.7V | 00:00:00 | 00:00:00 | 00:00:00 | |
| DB0UT-7 | 2026-09-01 11:33:41 | 44.64158 | 8.71703 | 159° | 18km/h | 22150m | 4.8m/s | -52.8°C | 4.0% | 0hPa | 2.7V | 00:00:00 | 01:57:03 | 00:00:00 | |
| DO3MHA-12 | 2026-09-01 11:33:40 | 44.64162 | 8.71700 | 158° | 18km/h | 22145m | 4.4m/s | -52.8°C | 4.0% | 0hPa | 2.7V | 00:00:00 | 01:57:02 | 00:00:00 | |
| IW2NTF | 2026-09-01 11:33:35 | 44.64196 | 8.71684 | 156° | 18km/h | 22107m | 5.5m/s | -52.9°C | 4% | 0hPa | 2.7V | 08:30:00 | 01:56:54 | 00:00:00 | |
| DO3MHA-12 | 2026-09-01 11:33:30 | 44.64203 | 8.71679 | 150° | 16km/h | 22098m | 3.6m/s | -52.8°C | 4.0% | 0hPa | 2.6V | 00:00:00 | 01:56:52 | 00:00:00 | |
| IW2NTF | 2026-09-01 11:33:25 | 44.64228 | 8.71650 | 141° | 20km/h | 22062m | 5.7m/s | -52.7°C | 4% | 0hPa | 2.6V | 08:30:00 | 01:56:44 | 00:00:00 | |
| DO3MHA-12 | 2026-09-01 11:33:20 | 44.64237 | 8.71640 | 137° | 18km/h | 22052m | 4.5m/s | -52.7°C | 3.9% | 0hPa | 2.6V | 00:00:00 | 01:56:42 | 00:00:00 | |
| IW2NTF | 2026-09-01 11:33:15 | 44.64254 | 8.71591 | 106° | 18km/h | 22014m | 5.5m/s | -52.8°C | 3.8% | 0hPa | 2.6V | 08:30:00 | 01:56:34 | 00:00:00 | |
| DB0UT-7 | 2026-09-01 11:33:11 | 44.64255 | 8.71585 | 109° | 20km/h | 22009m | 4.4m/s | -52.7°C | 3.8% | 0hPa | 2.6V | 00:00:00 | 00:00:00 | 00:00:00 | |
| DO3MHA-12 | 2026-09-01 11:33:10 | 44.64257 | 8.71580 | 111° | 16km/h | 22005m | 4.1m/s | -52.7°C | 3.9% | 0hPa | 2.6V | 00:00:00 | 01:56:32 | 08:30:00 | |
| IW2NTF | 2026-09-01 11:33:02 | 44.64274 | 8.71539 | 111° | 15km/h | 21968m | 4.6m/s | -53.1°C | 4% | 0hPa | 2.6V | 08:30:00 | 01:56:24 | 00:00:00 | |
| DO3MHA-12 | 2026-09-01 11:33:00 | 44.64276 | 8.71526 | 101° | 22km/h | 21959m | 3.7m/s | -53.2°C | 4.0% | 0hPa | 2.7V | 00:00:00 | 01:56:22 | 00:00:00 | |
| RDZBGO | 2026-09-01 11:32:58 | 44.64277 | 8.71510 | 94° | 22km/h | 21950m | 5.3m/s | 0°C | 0% | 0hPa | 2.7V | 00:00:00 | 00:00:00 | 00:00:00 | |
| IW2NTF | 2026-09-01 11:32:54 | 44.64278 | 8.71464 | 94° | 22km/h | 21921m | 4.4m/s | -53.2°C | 4% | 0hPa | 2.7V | 08:30:00 | 01:56:14 | 00:00:00 | |
| DO3MHA-12 | 2026-09-01 11:32:50 | 44.64278 | 8.71449 | 87° | 24km/h | 21912m | 4.2m/s | -53.4°C | 4.0% | 0hPa | 2.7V | 00:00:00 | 01:56:12 | 00:00:00 | |
| IW2NTF | 2026-09-01 11:32:45 | 44.64278 | 8.71383 | 104° | 24km/h | 21874m | 4.2m/s | -53.6°C | 3.9% | 0hPa | 2.7V | 08:30:00 | 01:56:04 | 00:00:00 | |
| DB0UT-7 | 2026-09-01 11:32:41 | 44.64280 | 8.71374 | 107° | 27km/h | 21870m | 5.8m/s | -53.7°C | 3.9% | 0hPa | 2.7V | 00:00:00 | 01:56:03 | 00:00:00 | |
| DO3MHA-12 | 2026-09-01 11:32:40 | 44.64282 | 8.71365 | 108° | 29km/h | 21864m | 4.8m/s | -53.6°C | 4.0% | 0hPa | 2.7V | 00:00:00 | 01:56:02 | 00:00:00 | |
| IW2NTF | 2026-09-01 11:32:34 | 44.64298 | 8.71285 | 92° | 33km/h | 21827m | 3.9m/s | -54°C | 4.2% | 0hPa | 2.6V | 08:30:00 | 01:55:54 | 00:00:00 | |
| DO3MHA-12 | 2026-09-01 11:32:30 | 44.64298 | 8.71263 | 89° | 24km/h | 21818m | 4.7m/s | -54.1°C | 4.3% | 0hPa | 2.7V | 00:00:00 | 01:55:52 | 00:00:00 | |
| IW2NTF | 2026-09-01 11:32:25 | 44.64300 | 8.71198 | 94° | 20km/h | 21781m | 5.1m/s | -54.2°C | 4.2% | 0hPa | 2.7V | 08:30:00 | 01:55:44 | 00:00:00 | |
| DO3MHA-12 | 2026-09-01 11:32:20 | 44.64299 | 8.71181 | 80° | 27km/h | 21772m | 4.1m/s | -54.0°C | 4.2% | 0hPa | 2.7V | 00:00:00 | 01:55:42 | 00:00:00 | |
| IW2NTF | 2026-09-01 11:32:14 | 44.64272 | 8.71112 | 53° | 20km/h | 21733m | 5.9m/s | -54.2°C | 4.2% | 0hPa | 2.7V | 08:30:00 | 01:55:34 | 00:00:00 | |
| DB0UT-7 | 2026-09-01 11:32:11 | 44.64269 | 8.71106 | 49° | 29km/h | 21729m | 4.7m/s | -54.1°C | 4.2% | 0hPa | 2.6V | 00:00:00 | 00:00:00 | 00:00:00 | |
| DO3MHA-12 | 2026-09-01 11:32:10 | 44.64266 | 8.71101 | 52° | 27km/h | 21724m | 3.5m/s | -54.1°C | 4.2% | 0hPa | 2.6V | 00:00:00 | 01:55:32 | 00:00:00 | |
| IW2NTF | 2026-09-01 11:32:04 | 44.64236 | 8.71040 | 41° | 33km/h | 21689m | 3.9m/s | -54.2°C | 4.2% | 0hPa | 2.6V | 08:30:00 | 01:55:24 | 00:00:00 | |
| DO3MHA-12 | 2026-09-01 11:32:00 | 44.64224 | 8.71025 | 45° | 27km/h | 21680m | 4.7m/s | -54.3°C | 4.2% | 0hPa | 2.6V | 00:00:00 | 01:55:22 | 00:00:00 | |
| IW2NTF | 2026-09-01 11:31:54 | 44.64182 | 8.70977 | 45° | 26km/h | 21644m | 4.1m/s | -54.4°C | 4.3% | 0hPa | 2.6V | 08:30:00 | 01:55:14 | 00:00:00 | |
| DO3MHA-12 | 2026-09-01 11:31:50 | 44.64171 | 8.70964 | 34° | 33km/h | 21634m | 5.2m/s | -54.2°C | 4.3% | 0hPa | 2.7V | 00:00:00 | 01:55:12 | 00:00:00 | |
| IW2NTF | 2026-09-01 11:31:45 | 44.64106 | 8.70933 | 11° | 33km/h | 21597m | 3.5m/s | -54.3°C | 4.2% | 0hPa | 2.7V | 08:30:00 | 01:55:04 | 00:00:00 | |
| DB0UT-7 | 2026-09-01 11:31:41 | 44.64099 | 8.70930 | 19° | 35km/h | 21593m | 4.7m/s | -54.4°C | 4.2% | 0hPa | 2.6V | 00:00:00 | 01:55:03 | 08:30:00 | |
| DO3MHA-12 | 2026-09-01 11:31:40 | 44.64092 | 8.70926 | 29° | 31km/h | 21588m | 5.0m/s | -54.4°C | 4.3% | 0hPa | 2.6V | 00:00:00 | 01:55:02 | 08:30:00 | |
| IW2NTF | 2026-09-01 11:31:34 | 44.64039 | 8.70893 | 8° | 33km/h | 21551m | 4.6m/s | -54.4°C | 4.2% | 0hPa | 2.7V | 08:30:00 | 01:54:54 | 00:00:00 | |
| DO3MHA-12 | 2026-09-01 11:31:29 | 44.64010 | 8.70890 | 2° | 35km/h | 21537m | 4.6m/s | -54.2°C | 4.1% | 0hPa | 2.6V | 00:00:00 | 01:54:51 | 00:00:00 | |
| IW2NTF | 2026-09-01 11:31:24 | 44.63948 | 8.70882 | 1° | 31km/h | 21505m | 4m/s | -54.4°C | 4.3% | 0hPa | 2.6V | 08:30:00 | 01:54:44 | 00:00:00 | |
| DO3MHA-12 | 2026-09-01 11:31:18 | 44.63916 | 8.70883 | 355° | 33km/h | 21488m | 4.2m/s | -54.8°C | 4.4% | 0hPa | 2.7V | 00:00:00 | 01:54:40 | 00:00:00 | |
| IW2NTF | 2026-09-01 11:31:14 | 44.63849 | 8.70892 | 1° | 40km/h | 21459m | 4.2m/s | -54.8°C | 4.3% | 0hPa | 2.7V | 08:30:00 | 01:54:34 | 00:00:00 | |
| DB0UT-7 | 2026-09-01 11:31:11 | 44.63839 | 8.70891 | 2° | 31km/h | 21455m | 4.5m/s | -54.8°C | 4.4% | 0hPa | 2.7V | 00:00:00 | 00:00:00 | 00:00:00 | |
| IW2NTF | 2026-09-01 11:31:04 | 44.63767 | 8.70914 | 342° | 38km/h | 21414m | 4.4m/s | -54.5°C | 4.2% | 0hPa | 2.7V | 08:30:00 | 01:54:24 | 00:00:00 | |
| DO3MHA-12 | 2026-09-01 11:31:03 | 44.63776 | 8.70909 | 341° | 35km/h | 21419m | 4.0m/s | -54.5°C | 4.2% | 0hPa | 2.7V | 00:00:00 | 01:54:25 | 00:00:00 | |
| IW2NTF | 2026-09-01 11:30:54 | 44.63686 | 8.70934 | 350° | 24km/h | 21368m | 4.1m/s | -54.3°C | 4.1% | 0hPa | 2.6V | 08:30:00 | 01:54:14 | 00:00:00 | |
| DO3MHA-12 | 2026-09-01 11:30:53 | 44.63692 | 8.70932 | 354° | 26km/h | 21373m | 4.6m/s | -54.2°C | 4.1% | 0hPa | 2.6V | 00:00:00 | 01:54:15 | 00:00:00 | |
| IW2NTF | 2026-09-01 11:30:45 | 44.63621 | 8.70961 | 337° | 26km/h | 21324m | 3.5m/s | -54.7°C | 4.4% | 0hPa | 2.6V | 08:30:00 | 01:54:04 | 00:00:00 | |
| DO3MHA-12 | 2026-09-01 11:30:43 | 44.63627 | 8.70957 | 337° | 26km/h | 21328m | 4.1m/s | -54.7°C | 4.4% | 0hPa | 2.7V | 00:00:00 | 01:54:05 | 00:00:00 | |
| DB0UT-7 | 2026-09-01 11:30:41 | 44.63615 | 8.70964 | 344° | 16km/h | 21320m | 4.7m/s | -54.8°C | 4.4% | 0hPa | 2.7V | 00:00:00 | 01:54:03 | 00:00:00 | |
| IW2NTF | 2026-09-01 11:30:35 | 44.63565 | 8.70962 | 352° | 15km/h | 21279m | 4.5m/s | -54.8°C | 4.3% | 0hPa | 2.7V | 08:30:00 | 01:53:54 | 00:00:00 | |
| DO3MHA-12 | 2026-09-01 11:30:33 | 44.63569 | 8.70962 | 3° | 15km/h | 21284m | 4.4m/s | -54.8°C | 4.3% | 0hPa | 2.6V | 00:00:00 | 01:53:55 | 00:00:00 | |
| IW2NTF | 2026-09-01 11:30:24 | 44.63531 | 8.70993 | 340° | 20km/h | 21234m | 3.2m/s | -54.5°C | 4.4% | 0hPa | 2.6V | 08:30:00 | 01:53:44 | 00:00:00 | |
| DO3MHA-12 | 2026-09-01 11:30:23 | 44.63536 | 8.70990 | 340° | 15km/h | 21238m | 4.2m/s | -54.4°C | 4.3% | 0hPa | 2.6V | 00:00:00 | 01:53:45 | 00:00:00 | |
| IW2NTF | 2026-09-01 11:30:17 | 44.63512 | 8.71024 | 332° | 15km/h | 21194m | 4.9m/s | -54.1°C | 4.2% | 0hPa | 2.6V | 08:30:00 | 01:53:34 | 00:00:00 | |
| DO3MHA-12 | 2026-09-01 11:30:13 | 44.63515 | 8.71021 | 319° | 11km/h | 21198m | 3.7m/s | -54.1°C | 4.2% | 0hPa | 2.6V | 00:00:00 | 01:53:35 | 00:00:00 | |
| DB0UT-7 | 2026-09-01 11:30:11 | 44.63509 | 8.71025 | 351° | 7km/h | 21189m | 4.7m/s | -54.0°C | 4.2% | 0hPa | 2.6V | 00:00:00 | 00:00:00 | 00:00:00 | |
| IW2NTF | 2026-09-01 11:30:08 | 44.63487 | 8.71029 | 352° | 5km/h | 21147m | 4.5m/s | -54°C | 4.2% | 0hPa | 2.6V | 08:30:00 | 01:53:24 | 00:00:00 | |
| DO3MHA-12 | 2026-09-01 11:30:02 | 44.63487 | 8.71029 | 353° | 4km/h | 21147m | 4.5m/s | -53.9°C | 4.2% | 0hPa | 2.6V | 00:00:00 | 01:53:24 | 08:30:00 | |
| IW2NTF | 2026-09-01 11:29:57 | 44.63478 | 8.71026 | 43° | 7km/h | 21100m | 5.3m/s | -53.9°C | 4.2% | 0hPa | 2.6V | 08:30:00 | 01:53:14 | 00:00:00 | |
| IW2NTF | 2026-09-01 11:29:48 | 44.63464 | 8.71008 | 48° | 11km/h | 21056m | 4.9m/s | -53.8°C | 4.1% | 0hPa | 2.7V | 08:30:00 | 01:53:04 | 00:00:00 | |
| DB0UT-7 | 2026-09-01 11:29:41 | 44.63462 | 8.71005 | 53° | 11km/h | 21051m | 4.6m/s | -53.8°C | 4.1% | 0hPa | 2.6V | 00:00:00 | 01:53:03 | 00:00:00 | |
| DO3MHA-12 | 2026-09-01 11:29:40 | 44.63460 | 8.71003 | 59° | 9km/h | 21046m | 4.1m/s | -53.8°C | 4.1% | 0hPa | 2.6V | 00:00:00 | 01:53:02 | 00:00:00 | |
| IW2NTF | 2026-09-01 11:29:37 | 44.63456 | 8.70977 | 86° | 9km/h | 21010m | 5.5m/s | -54.1°C | 4.2% | 0hPa | 2.6V | 08:30:00 | 01:52:54 | 00:00:00 | |
| DO3MHA-12 | 2026-09-01 11:29:30 | 44.63456 | 8.70970 | 90° | 15km/h | 21001m | 3.9m/s | -54.1°C | 4.2% | 0hPa | 2.7V | 00:00:00 | 01:52:52 | 00:00:00 | |
| IW2NTF | 2026-09-01 11:29:27 | 44.63455 | 8.70928 | 94° | 15km/h | 20964m | 4.9m/s | -53.8°C | 4% | 0hPa | 2.6V | 08:30:00 | 01:52:44 | 00:00:00 | |
| DO3MHA-12 | 2026-09-01 11:29:20 | 44.63455 | 8.70921 | 78° | 11km/h | 20955m | 4.5m/s | -53.8°C | 4.0% | 0hPa | 2.6V | 00:00:00 | 01:52:42 | 00:00:00 | |
| IW2NTF | 2026-09-01 11:29:17 | 44.63439 | 8.70910 | 42° | 16km/h | 20918m | 4.9m/s | -54.2°C | 4.1% | 0hPa | 2.6V | 08:30:00 | 01:52:34 | 00:00:00 | |
| DB0UT-7 | 2026-09-01 11:29:11 | 44.63436 | 8.70905 | 54° | 15km/h | 20914m | 3.9m/s | -54.3°C | 4.1% | 0hPa | 2.6V | 00:00:00 | 00:00:00 | 00:00:00 | |
| DO3MHA-12 | 2026-09-01 11:29:10 | 44.63433 | 8.70899 | 61° | 13km/h | 20910m | 4.6m/s | -54.3°C | 4.2% | 0hPa | 2.6V | 00:00:00 | 01:52:32 | 00:00:00 | |
| IW2NTF | 2026-09-01 11:29:07 | 44.63420 | 8.70868 | 4° | 7km/h | 20875m | 4.5m/s | -54.9°C | 4.3% | 0hPa | 2.6V | 08:30:00 | 01:52:24 | 00:00:00 | |
| DO3MHA-12 | 2026-09-01 11:29:00 | 44.63416 | 8.70869 | 350° | 16km/h | 20867m | 4.2m/s | -54.9°C | 4.3% | 0hPa | 2.7V | 00:00:00 | 01:52:22 | 00:00:00 | |
| IW2NTF | 2026-09-01 11:28:57 | 44.63385 | 8.70857 | 25° | 13km/h | 20831m | 4.9m/s | -54.9°C | 4.4% | 0hPa | 2.6V | 08:30:00 | 01:52:14 | 00:00:00 | |
| DO3MHA-12 | 2026-09-01 11:28:50 | 44.63379 | 8.70854 | 14° | 13km/h | 20823m | 3.7m/s | -54.8°C | 4.4% | 0hPa | 2.7V | 00:00:00 | 01:52:12 | 00:00:00 | |
| IW2NTF | 2026-09-01 11:28:48 | 44.63351 | 8.70853 | 9° | 9km/h | 20787m | 4.9m/s | -55.1°C | 4.4% | 0hPa | 2.7V | 08:30:00 | 01:52:04 | 00:00:00 | |
| DB0UT-7 | 2026-09-01 11:28:41 | 44.63349 | 8.70852 | 27° | 9km/h | 20782m | 4.1m/s | -55.1°C | 4.4% | 0hPa | 2.6V | 00:00:00 | 01:52:03 | 00:00:00 | |
| DO3MHA-12 | 2026-09-01 11:28:40 | 44.63347 | 8.70851 | 37° | 11km/h | 20778m | 4.0m/s | -55.1°C | 4.5% | 0hPa | 2.6V | 00:00:00 | 01:52:02 | 00:00:00 | |
| IW2NTF | 2026-09-01 11:28:37 | 44.63329 | 8.70832 | 15° | 15km/h | 20743m | 4.3m/s | -54.9°C | 4.4% | 0hPa | 2.6V | 08:30:00 | 01:51:54 | 00:00:00 | |
| DO3MHA-12 | 2026-09-01 11:28:30 | 44.63323 | 8.70831 | 8° | 7km/h | 20736m | 4.5m/s | -54.8°C | 4.4% | 0hPa | 2.7V | 00:00:00 | 01:51:52 | 08:30:00 | |
| IW2NTF | 2026-09-01 11:28:27 | 44.63307 | 8.70826 | 73° | 4km/h | 20700m | 3.6m/s | -54.6°C | 4.3% | 0hPa | 2.7V | 08:30:00 | 01:51:44 | 00:00:00 | |
| DO3MHA-12 | 2026-09-01 11:28:19 | 44.63304 | 8.70825 | 349° | 5km/h | 20687m | 3.8m/s | -54.4°C | 4.3% | 0hPa | 2.6V | 00:00:00 | 01:51:41 | 00:00:00 | |
| IW2NTF | 2026-09-01 11:28:18 | 44.63294 | 8.70823 | 328° | 5km/h | 20659m | 4.8m/s | -54.5°C | 4.2% | 0hPa | 2.6V | 08:30:00 | 01:51:34 | 00:00:00 | |
| DB0UT-7 | 2026-09-01 11:28:11 | 44.63293 | 8.70824 | 318° | 5km/h | 20654m | 4.2m/s | -54.5°C | 4.2% | 0hPa | 2.6V | 00:00:00 | 00:00:00 | 00:00:00 | |
| DO3MHA-12 | 2026-09-01 11:28:08 | 44.63290 | 8.70827 | 17° | 5km/h | 20642m | 4.1m/s | -54.7°C | 4.2% | 0hPa | 2.6V | 00:00:00 | 01:51:30 | 00:00:00 | |
| IW2NTF | 2026-09-01 11:28:07 | 44.63284 | 8.70818 | 88° | 7km/h | 20614m | 4.3m/s | -54.6°C | 4.4% | 0hPa | 2.6V | 08:30:00 | 01:51:24 | 00:00:00 | |
| DO3MHA-12 | 2026-09-01 11:27:58 | 44.63286 | 8.70812 | 156° | 5km/h | 20597m | 4.0m/s | -54.5°C | 4.3% | 0hPa | 2.7V | 00:00:00 | 01:51:20 | 00:00:00 | |
| IW2NTF | 2026-09-01 11:27:57 | 44.63293 | 8.70805 | 146° | 2km/h | 20570m | 3.6m/s | -54.5°C | 4.1% | 0hPa | 2.7V | 08:30:00 | 01:51:14 | 00:00:00 | |
| IW2NTF | 2026-09-01 11:27:48 | 44.63304 | 8.70807 | 235° | 5km/h | 20527m | 4.2m/s | -54.8°C | 4.4% | 0hPa | 2.6V | 08:30:00 | 01:51:04 | 00:00:00 | |
| DO3MHA-12 | 2026-09-01 11:27:48 | 44.63295 | 8.70801 | 161° | 5km/h | 20554m | 4.7m/s | -54.5°C | 4.2% | 0hPa | 2.7V | 00:00:00 | 01:51:10 | 00:00:00 | |
| DB0UT-7 | 2026-09-01 11:27:41 | 44.63304 | 8.70809 | 263° | 7km/h | 20523m | 5.0m/s | -54.8°C | 4.4% | 0hPa | 2.7V | 00:00:00 | 01:51:03 | 00:00:00 | |
| IW2NTF | 2026-09-01 11:27:38 | 44.63300 | 8.70821 | 271° | 2km/h | 20483m | 4.8m/s | -54.6°C | 4.3% | 0hPa | 2.7V | 08:30:00 | 01:50:54 | 00:00:00 | |
| RDZBGO | 2026-09-01 11:27:28 | 44.63300 | 8.70829 | 280° | 13km/h | 20467m | 4.2m/s | 0°C | 0% | 0hPa | 2.6V | 00:00:00 | 00:00:00 | 00:00:00 | |
| IW2NTF | 2026-09-01 11:27:28 | 44.63286 | 8.70845 | 343° | 13km/h | 20440m | 4.7m/s | -54.8°C | 4.2% | 0hPa | 2.6V | 08:30:00 | 01:50:44 | 00:00:00 | |
| IW2NTF | 2026-09-01 11:27:18 | 44.63282 | 8.70870 | 298° | 11km/h | 20395m | 3.8m/s | -54.8°C | 4.3% | 0hPa | 2.6V | 08:30:00 | 01:50:34 | 00:00:00 | |
| DB0UT-7 | 2026-09-01 11:27:11 | 44.63280 | 8.70873 | 307° | 7km/h | 20392m | 3.3m/s | -54.8°C | 4.3% | 0hPa | 2.6V | 00:00:00 | 00:00:00 | 08:30:00 | |
| DO3MHA-12 | 2026-09-01 11:27:08 | 44.63275 | 8.70883 | 307° | 7km/h | 20379m | 3.5m/s | -54.8°C | 4.2% | 0hPa | 2.7V | 00:00:00 | 01:50:30 | 00:00:00 | |
| IW2NTF | 2026-09-01 11:27:07 | 44.63275 | 8.70892 | 240° | 11km/h | 20351m | 3.7m/s | -54.9°C | 4.3% | 0hPa | 2.7V | 08:30:00 | 01:50:24 | 00:00:00 | |
| RDZBGO | 2026-09-01 11:27:07 | 44.63274 | 8.70885 | 315° | 5km/h | 20375m | 4.8m/s | 0°C | 0% | 0hPa | 2.7V | 00:00:00 | 00:00:00 | 00:00:00 | |
| DO3MHA-12 | 2026-09-01 11:26:58 | 44.63277 | 8.70904 | 295° | 9km/h | 20335m | 4.3m/s | -54.9°C | 4.4% | 0hPa | 2.7V | 00:00:00 | 01:50:20 | 08:30:00 | |
| IW2NTF | 2026-09-01 11:26:57 | 44.63263 | 8.70916 | 1° | 7km/h | 20309m | 2.9m/s | -55°C | 4.3% | 0hPa | 2.6V | 08:30:00 | 01:50:14 | 00:00:00 | |
| DO3MHA-12 | 2026-09-01 11:26:48 | 44.63261 | 8.70918 | 244° | 11km/h | 20292m | 4.2m/s | -55.1°C | 4.3% | 0hPa | 2.7V | 00:00:00 | 01:50:10 | 00:00:00 | |
| IW2NTF | 2026-09-01 11:26:47 | 44.63251 | 8.70922 | 351° | 15km/h | 20265m | 4.3m/s | -55.1°C | 4.4% | 0hPa | 2.7V | 08:30:00 | 01:50:04 | 00:00:00 | |
| RDZBGO | 2026-09-01 11:26:43 | 44.63258 | 8.70920 | 347° | 9km/h | 20274m | 5.3m/s | 0°C | 0% | 0hPa | 2.6V | 00:00:00 | 00:00:00 | 00:00:00 | |
| DB0UT-7 | 2026-09-01 11:26:41 | 44.63247 | 8.70923 | 1° | 11km/h | 20261m | 5.3m/s | -55.1°C | 4.4% | 0hPa | 2.6V | 00:00:00 | 01:50:03 | 00:00:00 | |
| IW2NTF | 2026-09-01 11:26:37 | 44.63218 | 8.70924 | 351° | 5km/h | 20220m | 4.6m/s | -55.1°C | 4.3% | 0hPa | 2.6V | 08:30:00 | 01:49:54 | 00:00:00 | |
| IW2NTF | 2026-09-01 11:26:28 | 44.63193 | 8.70921 | 11° | 9km/h | 20177m | 4.5m/s | -55.1°C | 4.3% | 0hPa | 2.7V | 08:30:00 | 01:49:44 | 00:00:00 | |
| RDZBGO | 2026-09-01 11:26:19 | 44.63188 | 8.70919 | 19° | 7km/h | 20168m | 3.9m/s | 0°C | 0% | 0hPa | 2.7V | 00:00:00 | 00:00:00 | 00:00:00 | |
| DO3MHA-12 | 2026-09-01 11:26:18 | 44.63185 | 8.70919 | 338° | 7km/h | 20159m | 5.2m/s | -55.1°C | 4.3% | 0hPa | 2.7V | 00:00:00 | 01:49:40 | 00:00:00 | |
| IW2NTF | 2026-09-01 11:26:17 | 44.63176 | 8.70921 | 20° | 9km/h | 20133m | 4.2m/s | -55.2°C | 4.4% | 0hPa | 2.7V | 08:30:00 | 01:49:34 | 00:00:00 | |
| DB0UT-7 | 2026-09-01 11:26:11 | 44.63173 | 8.70920 | 20° | 7km/h | 20129m | 5.0m/s | -55.2°C | 4.4% | 0hPa | 2.7V | 00:00:00 | 00:00:00 | 00:00:00 | |
| IW2NTF | 2026-09-01 11:26:08 | 44.63169 | 8.70909 | 171° | 2km/h | 20090m | 4m/s | -55.2°C | 4.5% | 0hPa | 2.7V | 08:30:00 | 01:49:24 | 00:00:00 | |
| IW2NTF | 2026-09-01 11:25:58 | 44.63154 | 8.70900 | 51° | 7km/h | 20046m | 3.4m/s | -55.1°C | 4.4% | 0hPa | 2.7V | 08:30:00 | 01:49:14 | 00:00:00 | |
| RDZBGO | 2026-09-01 11:25:54 | 44.63136 | 8.70904 | 337° | 9km/h | 20005m | 4.9m/s | 0°C | 0% | 0hPa | 2.6V | 00:00:00 | 00:00:00 | 00:00:00 | |
| DO3MHA-12 | 2026-09-01 11:25:48 | 44.63148 | 8.70900 | 331° | 9km/h | 20030m | 3.5m/s | -54.8°C | 4.3% | 0hPa | 2.6V | 00:00:00 | 01:49:10 | 00:00:00 | |
| IW2NTF | 2026-09-01 11:25:47 | 44.63136 | 8.70904 | 336° | 9km/h | 20004m | 4.9m/s | -54.7°C | 4.3% | 0hPa | 2.6V | 08:30:00 | 01:49:04 | 00:00:00 | |
| DB0UT-7 | 2026-09-01 11:25:41 | 44.63134 | 8.70906 | 333° | 9km/h | 20000m | 3.6m/s | -54.7°C | 4.3% | 0hPa | 2.6V | 00:00:00 | 01:49:03 | 00:00:00 | |
| DO3MHA-12 | 2026-09-01 11:25:38 | 44.63127 | 8.70909 | 353° | 9km/h | 19986m | 4.7m/s | -54.8°C | 4.2% | 0hPa | 2.7V | 00:00:00 | 01:49:00 | 00:00:00 | |
| IW2NTF | 2026-09-01 11:25:37 | 44.63113 | 8.70917 | 337° | 11km/h | 19960m | 4.7m/s | -55°C | 4.3% | 0hPa | 2.7V | 08:30:00 | 01:48:54 | 00:00:00 | |
| RDZBGO | 2026-09-01 11:25:31 | 44.63113 | 8.70917 | 338° | 11km/h | 19960m | 4.7m/s | 0°C | 0% | 0hPa | 2.7V | 00:00:00 | 00:00:00 | 00:00:00 | |
| IW2NTF | 2026-09-01 11:25:28 | 44.63095 | 8.70936 | 308° | 11km/h | 19916m | 4.4m/s | -55.1°C | 4.3% | 0hPa | 2.7V | 08:30:00 | 01:48:44 | 00:00:00 | |
| DO3MHA-12 | 2026-09-01 11:25:18 | 44.63088 | 8.70944 | 333° | 5km/h | 19899m | 4.1m/s | -55.0°C | 4.4% | 0hPa | 2.7V | 00:00:00 | 01:48:40 | 00:00:00 | |
| IW2NTF | 2026-09-01 11:25:17 | 44.63086 | 8.70949 | 75° | 5km/h | 19871m | 4.4m/s | -55°C | 4.3% | 0hPa | 2.7V | 08:30:00 | 01:48:34 | 00:00:00 | |
| DB0UT-7 | 2026-09-01 11:25:11 | 44.63085 | 8.70947 | 65° | 11km/h | 19867m | 3.9m/s | -55.0°C | 4.3% | 0hPa | 2.7V | 00:00:00 | 00:00:00 | 00:00:00 | |
| IW2NTF | 2026-09-01 11:25:08 | 44.63085 | 8.70950 | 158° | 5km/h | 19826m | 4.8m/s | -55.2°C | 4.3% | 0hPa | 2.7V | 08:30:00 | 01:48:24 | 00:00:00 | |
| IW2NTF | 2026-09-01 11:24:58 | 44.63097 | 8.70918 | 156° | 5km/h | 19782m | 4.2m/s | -56°C | 4.4% | 0hPa | 2.7V | 08:30:00 | 01:48:14 | 00:00:00 | |
| IW2NTF | 2026-09-01 11:24:48 | 44.63119 | 8.70876 | 107° | 31km/h | 19740m | 4.7m/s | -56°C | 4.5% | 0hPa | 2.6V | 08:30:00 | 01:48:04 | 00:00:00 | |
| DB0UT-7 | 2026-09-01 11:24:41 | 44.63121 | 8.70866 | 112° | 27km/h | 19736m | 3.6m/s | -56.0°C | 4.5% | 0hPa | 2.7V | 00:00:00 | 01:48:03 | 00:00:00 | |
| IW2NTF | 2026-09-01 11:24:38 | 44.63140 | 8.70805 | 104° | 26km/h | 19698m | 4.7m/s | -56.3°C | 4.6% | 0hPa | 2.7V | 08:30:00 | 01:47:54 | 00:00:00 | |
| DO3MHA-12 | 2026-09-01 11:24:28 | 44.63147 | 8.70758 | 105° | 29km/h | 19680m | 4.2m/s | -56.4°C | 4.6% | 0hPa | 2.6V | 00:00:00 | 01:47:50 | 00:00:00 | |
| IW2NTF | 2026-09-01 11:24:27 | 44.63157 | 8.70689 | 100° | 24km/h | 19654m | 5.1m/s | -56.6°C | 4.7% | 0hPa | 2.6V | 08:30:00 | 01:47:44 | 00:00:00 | |
| DO3MHA-12 | 2026-09-01 11:24:18 | 44.63162 | 8.70657 | 99° | 33km/h | 19636m | 4.6m/s | -56.6°C | 4.8% | 0hPa | 2.7V | 00:00:00 | 01:47:40 | 00:00:00 | |
| IW2NTF | 2026-09-01 11:24:17 | 44.63167 | 8.70586 | 86° | 35km/h | 19608m | 5.3m/s | -56.5°C | 4.6% | 0hPa | 2.7V | 08:30:00 | 01:47:34 | 00:00:00 | |
| DB0UT-7 | 2026-09-01 11:24:11 | 44.63166 | 8.70574 | 83° | 26km/h | 19604m | 5.0m/s | -56.5°C | 4.7% | 0hPa | 2.7V | 00:00:00 | 00:00:00 | 00:00:00 | |
| IW2NTF | 2026-09-01 11:24:08 | 44.63163 | 8.70490 | 88° | 24km/h | 19560m | 4.2m/s | -56.4°C | 4.7% | 0hPa | 2.6V | 08:30:00 | 01:47:24 | 00:00:00 | |
| RDZBGO | 2026-09-01 11:24:02 | 44.63163 | 8.70490 | 89° | 24km/h | 19561m | 4.2m/s | 0°C | 0% | 0hPa | 2.6V | 00:00:00 | 00:00:00 | 00:00:00 | |
| DO3MHA-12 | 2026-09-01 11:23:58 | 44.63157 | 8.70452 | 73° | 26km/h | 19543m | 4.0m/s | -56.3°C | 4.7% | 0hPa | 2.6V | 00:00:00 | 01:47:20 | 08:30:00 | |
| IW2NTF | 2026-09-01 11:23:57 | 44.63151 | 8.70397 | 80° | 22km/h | 19515m | 4m/s | -56.1°C | 4.6% | 0hPa | 2.6V | 08:30:00 | 01:47:14 | 00:00:00 | |
| DO3MHA-12 | 2026-09-01 11:23:48 | 44.63149 | 8.70366 | 82° | 22km/h | 19497m | 4.8m/s | -55.9°C | 4.6% | 0hPa | 2.6V | 00:00:00 | 01:47:10 | 00:00:00 | |
| IW2NTF | 2026-09-01 11:23:47 | 44.63140 | 8.70319 | 85° | 24km/h | 19469m | 3.8m/s | -55.9°C | 4.6% | 0hPa | 2.6V | 08:30:00 | 01:47:04 | 00:00:00 | |
| DB0UT-7 | 2026-09-01 11:23:41 | 44.63139 | 8.70311 | 85° | 16km/h | 19465m | 4.8m/s | -55.7°C | 4.6% | 0hPa | 2.6V | 00:00:00 | 01:47:03 | 00:00:00 | |
| DO3MHA-12 | 2026-09-01 11:23:38 | 44.63138 | 8.70289 | 89° | 18km/h | 19451m | 5.3m/s | 0°C | 0% | 0hPa | 2.6V | 00:00:00 | 01:47:00 | 00:00:00 | |
| IW2NTF | 2026-09-01 11:23:37 | 44.63133 | 8.70256 | 66° | 18km/h | 19422m | 4.8m/s | -55.5°C | 4.6% | 0hPa | 2.6V | 08:30:00 | 01:46:54 | 00:00:00 | |
| DO3MHA-12 | 2026-09-01 11:23:28 | 44.63126 | 8.70228 | 65° | 16km/h | 19406m | 4.7m/s | 0°C | 0% | 0hPa | 2.6V | 00:00:00 | 01:46:50 | 00:00:00 | |
| IW2NTF | 2026-09-01 11:23:28 | 44.63118 | 8.70192 | 69° | 13km/h | 19379m | 5m/s | -55.3°C | 4.4% | 0hPa | 2.6V | 08:30:00 | 01:46:44 | 00:00:00 | |
| DO3MHA-12 | 2026-09-01 11:23:18 | 44.63113 | 8.70177 | 72° | 16km/h | 19361m | 4.1m/s | 0°C | 0% | 0hPa | 2.6V | 00:00:00 | 01:46:40 | 00:00:00 | |
| IW2NTF | 2026-09-01 11:23:17 | 44.63102 | 8.70145 | 67° | 20km/h | 19333m | 4.3m/s | -55.1°C | 4.4% | 0hPa | 2.6V | 08:30:00 | 01:46:34 | 00:00:00 | |
| DB0UT-7 | 2026-09-01 11:23:11 | 44.63099 | 8.70139 | 65° | 13km/h | 19329m | 4.7m/s | -55.0°C | 4.4% | 0hPa | 2.6V | 00:00:00 | 00:00:00 | 00:00:00 | |
| IW2NTF | 2026-09-01 11:23:08 | 44.63083 | 8.70113 | 38° | 9km/h | 19288m | 3.6m/s | -55.1°C | 4.1% | 0hPa | 2.6V | 08:30:00 | 01:46:24 | 00:00:00 | |
| DO3MHA-12 | 2026-09-01 11:23:08 | 44.63092 | 8.70125 | 48° | 11km/h | 19315m | 3.7m/s | 0°C | 0% | 0hPa | 2.7V | 00:00:00 | 01:46:30 | 00:00:00 | |
| DO3MHA-12 | 2026-09-01 11:22:58 | 44.63074 | 8.70095 | 51° | 16km/h | 19271m | 5.0m/s | 0°C | 0% | 0hPa | 2.7V | 00:00:00 | 01:46:20 | 00:00:00 | |
| IW2NTF | 2026-09-01 11:22:57 | 44.63054 | 8.70072 | 27° | 11km/h | 19247m | 4m/s | -55.8°C | 4.3% | 0hPa | 2.7V | 08:30:00 | 01:46:14 | 00:00:00 | |
| IW2NTF | 2026-09-01 11:22:48 | 44.63025 | 8.70057 | 34° | 15km/h | 19203m | 4.3m/s | -56.4°C | 4.4% | 0hPa | 2.6V | 08:30:00 | 01:46:04 | 00:00:00 | |
| DB0UT-7 | 2026-09-01 11:22:41 | 44.63021 | 8.70054 | 33° | 18km/h | 19199m | 3.6m/s | -56.4°C | 4.4% | 0hPa | 2.6V | 00:00:00 | 01:46:03 | 08:30:00 | |
| IW2NTF | 2026-09-01 11:22:38 | 44.62991 | 8.70015 | 49° | 26km/h | 19162m | 3.9m/s | -57°C | 4.7% | 0hPa | 2.6V | 08:30:00 | 01:45:54 | 00:00:00 | |
| DO3MHA-12 | 2026-09-01 11:22:28 | 44.62975 | 8.69990 | 48° | 26km/h | 19145m | 3.4m/s | 0°C | 0% | 0hPa | 2.7V | 00:00:00 | 01:45:50 | 00:00:00 | |
| IW2NTF | 2026-09-01 11:22:27 | 44.62948 | 8.69958 | 46° | 29km/h | 19121m | 3.5m/s | -57.4°C | 4.9% | 0hPa | 2.7V | 08:30:00 | 01:45:44 | 00:00:00 | |
| IW2NTF | 2026-09-01 11:22:18 | 44.62884 | 8.69896 | 24° | 22km/h | 19080m | 3.8m/s | -57.3°C | 5.1% | 0hPa | 2.6V | 08:30:00 | 01:45:34 | 00:00:00 | |
| IW2NTF | 2026-09-01 11:22:08 | 44.62823 | 8.69865 | 21° | 35km/h | 19037m | 4.7m/s | -57.1°C | 4.8% | 0hPa | 2.7V | 08:30:00 | 01:45:24 | 00:00:00 | |
| DB0UT-7 | 2026-09-01 11:22:06 | 44.62854 | 8.69881 | 16° | 22km/h | 19055m | 3.1m/s | -57.2°C | 4.9% | 0hPa | 2.6V | 00:00:00 | 00:00:00 | 00:00:00 | |
| IW2NTF | 2026-09-01 11:21:58 | 44.62775 | 8.69841 | 26° | 18km/h | 18994m | 4.4m/s | -56.6°C | 4.7% | 0hPa | 2.6V | 08:30:00 | 01:45:14 | 00:00:00 | |
| IW2NTF | 2026-09-01 11:21:47 | 44.62720 | 8.69807 | 10° | 11km/h | 18950m | 4.8m/s | -56.5°C | 4.9% | 0hPa | 2.6V | 08:30:00 | 01:45:04 | 00:00:00 | |
| IW2NTF | 2026-09-01 11:21:37 | 44.62685 | 8.69771 | 46° | 20km/h | 18902m | 5.4m/s | -56.3°C | 4.7% | 0hPa | 2.7V | 08:30:00 | 01:44:54 | 00:00:00 | |
| DB0UT-7 | 2026-09-01 11:21:36 | 44.62702 | 8.69791 | 45° | 18km/h | 18923m | 5.2m/s | -56.4°C | 4.7% | 0hPa | 2.6V | 00:00:00 | 01:44:58 | 00:00:00 | |
| IW2NTF | 2026-09-01 11:21:29 | 44.62664 | 8.69720 | 80° | 16km/h | 18854m | 4.6m/s | -56°C | 4.5% | 0hPa | 2.6V | 08:30:00 | 01:44:44 | 00:00:00 | |
| IW2NTF | 2026-09-01 11:21:18 | 44.62658 | 8.69674 | 123° | 24km/h | 18804m | 5.5m/s | -55.8°C | 4.4% | 0hPa | 2.7V | 08:30:00 | 01:44:34 | 00:00:00 | |
| IW2NTF | 2026-09-01 11:21:08 | 44.62656 | 8.69576 | 107° | 29km/h | 18737m | 5.8m/s | -57.3°C | 4.9% | 0hPa | 2.6V | 08:30:00 | 01:44:20 | 00:00:00 | |
| DB0UT-7 | 2026-09-01 11:21:06 | 44.62667 | 8.69629 | 81° | 31km/h | 18773m | 5.3m/s | -56.2°C | 4.3% | 0hPa | 2.6V | 00:00:00 | 00:00:00 | 00:00:00 | |
| IW2NTF | 2026-09-01 11:20:53 | 44.62683 | 8.69459 | 88° | 29km/h | 18691m | 4.9m/s | -57.2°C | 4.9% | 0hPa | 2.7V | 08:30:00 | 01:44:10 | 00:00:00 | |
| IW2NTF | 2026-09-01 11:20:40 | 44.62688 | 8.69315 | 89° | 37km/h | 18639m | 4.4m/s | -57.1°C | 4.9% | 0hPa | 2.6V | 08:30:00 | 01:43:58 | 00:00:00 | |
| IW2NTF | 2026-09-01 11:20:40 | 44.62678 | 8.69241 | 78° | 37km/h | 18615m | 4.8m/s | -57.2°C | 4.8% | 0hPa | 2.7V | 08:30:00 | 01:43:52 | 00:00:00 | |
| DB0UT-7 | 2026-09-01 11:20:36 | 44.62688 | 8.69315 | 90° | 40km/h | 18640m | 4.4m/s | -57.1°C | 4.9% | 0hPa | 2.6V | 00:00:00 | 01:43:58 | 00:00:00 | |
| IW2NTF | 2026-09-01 11:20:25 | 44.62666 | 8.69089 | 65° | 42km/h | 18571m | 4.8m/s | -56.9°C | 4.8% | 0hPa | 2.6V | 08:30:00 | 01:43:41 | 00:00:00 | |
| IW2NTF | 2026-09-01 11:20:14 | 44.62645 | 8.68939 | 79° | 46km/h | 18532m | 3.7m/s | -56.9°C | 4.8% | 0hPa | 2.7V | 08:30:00 | 01:43:31 | 00:00:00 | |
| DB0UT-7 | 2026-09-01 11:20:06 | 44.62637 | 8.68893 | 72° | 42km/h | 18521m | 3.0m/s | -56.8°C | 4.8% | 0hPa | 2.7V | 00:00:00 | 00:00:00 | 00:00:00 | |
| IW2NTF | 2026-09-01 11:20:05 | 44.62609 | 8.68790 | 73° | 44km/h | 18493m | 4.5m/s | -56.6°C | 4.9% | 0hPa | 2.7V | 08:30:00 | 01:43:21 | 00:00:00 | |
| IW2NTF | 2026-09-01 11:19:55 | 44.62580 | 8.68643 | 68° | 42km/h | 18455m | 3.4m/s | -56.4°C | 4.6% | 0hPa | 2.7V | 08:30:00 | 01:43:11 | 00:00:00 | |
| IW2NTF | 2026-09-01 11:19:39 | 44.62533 | 8.68480 | 76° | 38km/h | 18407m | 2.9m/s | -56.2°C | 4.6% | 0hPa | 2.6V | 08:30:00 | 01:42:59 | 00:00:00 | |
| DB0UT-7 | 2026-09-01 11:19:36 | 44.62531 | 8.68466 | 74° | 38km/h | 18404m | 3.2m/s | -56.3°C | 4.6% | 0hPa | 2.6V | 00:00:00 | 01:42:58 | 00:00:00 | |
| IW2NTF | 2026-09-01 11:19:29 | 44.62490 | 8.68335 | 77° | 42km/h | 18368m | 3.5m/s | -56.6°C | 4.8% | 0hPa | 2.7V | 08:30:00 | 01:42:49 | 00:00:00 | |
| IW2NTF | 2026-09-01 11:19:19 | 44.62456 | 8.68207 | 59° | 37km/h | 18329m | 3.5m/s | -56.4°C | 4.6% | 0hPa | 2.6V | 08:30:00 | 01:42:39 | 00:00:00 | |
| IW2NTF | 2026-09-01 11:19:08 | 44.62421 | 8.68099 | 63° | 29km/h | 18284m | 5m/s | -56.1°C | 4.9% | 0hPa | 2.7V | 08:30:00 | 01:42:29 | 00:00:00 | |
| DB0UT-7 | 2026-09-01 11:19:06 | 44.62418 | 8.68090 | 63° | 26km/h | 18280m | 4.0m/s | -56.0°C | 4.8% | 0hPa | 2.6V | 00:00:00 | 00:00:00 | 00:00:00 | |
| IW2NTF | 2026-09-01 11:18:58 | 44.62387 | 8.67996 | 65° | 26km/h | 18241m | 4m/s | -55.9°C | 4.6% | 0hPa | 2.6V | 08:30:00 | 01:42:19 | 00:00:00 | |
| IW2NTF | 2026-09-01 11:18:48 | 44.62360 | 8.67919 | 60° | 29km/h | 18198m | 3.2m/s | -55.7°C | 4.6% | 0hPa | 2.6V | 08:30:00 | 01:42:09 | 00:00:00 | |
| IW2NTF | 2026-09-01 11:18:38 | 44.62338 | 8.67847 | 58° | 16km/h | 18158m | 3.7m/s | -55.4°C | 4.5% | 0hPa | 2.7V | 08:30:00 | 01:41:59 | 00:00:00 | |
| DB0UT-7 | 2026-09-01 11:18:36 | 44.62335 | 8.67842 | 52° | 18km/h | 18154m | 4.5m/s | -55.3°C | 4.4% | 0hPa | 2.6V | 00:00:00 | 01:41:58 | 00:00:00 | |
| IW2NTF | 2026-09-01 11:18:28 | 44.62305 | 8.67791 | 77° | 20km/h | 18116m | 5m/s | -55.1°C | 4.5% | 0hPa | 2.6V | 08:30:00 | 01:41:49 | 00:00:00 | |
| IW2NTF | 2026-09-01 11:18:19 | 44.62281 | 8.67746 | 47° | 15km/h | 18074m | 4.8m/s | -54.8°C | 4.5% | 0hPa | 2.7V | 08:30:00 | 01:41:39 | 00:00:00 | |
| IW2NTF | 2026-09-01 11:18:12 | 44.62267 | 8.67701 | 48° | 13km/h | 18029m | 4.4m/s | -54.5°C | 4.3% | 0hPa | 2.6V | 08:30:00 | 01:41:29 | 00:00:00 | |
| DB0UT-7 | 2026-09-01 11:18:06 | 44.62265 | 8.67698 | 45° | 9km/h | 18025m | 5.0m/s | -54.3°C | 4.3% | 0hPa | 2.6V | 00:00:00 | 00:00:00 | 08:30:00 | |
| IW2NTF | 2026-09-01 11:18:02 | 44.62254 | 8.67672 | 62° | 9km/h | 17987m | 4.3m/s | -54.2°C | 4.3% | 0hPa | 2.6V | 08:30:00 | 01:41:19 | 00:00:00 | |
| IW2NTF | 2026-09-01 11:17:53 | 44.62246 | 8.67639 | 82° | 9km/h | 17947m | 4.1m/s | -53.9°C | 4.2% | 0hPa | 2.7V | 08:30:00 | 01:41:09 | 00:00:00 | |
| IW2NTF | 2026-09-01 11:17:42 | 44.62239 | 8.67615 | 81° | 7km/h | 17905m | 3.3m/s | -53.8°C | 4.2% | 0hPa | 2.7V | 08:30:00 | 01:40:59 | 00:00:00 | |
| DB0UT-7 | 2026-09-01 11:17:36 | 44.62240 | 8.67612 | 94° | 7km/h | 17902m | 3.5m/s | -53.7°C | 4.2% | 0hPa | 2.7V | 00:00:00 | 01:40:58 | 00:00:00 | |
| IW2NTF | 2026-09-01 11:17:29 | 44.62237 | 8.67599 | 356° | 2km/h | 17863m | 3.9m/s | -53.6°C | 4% | 0hPa | 2.7V | 08:30:00 | 01:40:49 | 00:00:00 | |
| IW2NTF | 2026-09-01 11:17:22 | 44.62248 | 8.67581 | 138° | 16km/h | 17820m | 4.5m/s | -54.1°C | 4.2% | 0hPa | 2.6V | 08:30:00 | 01:40:39 | 00:00:00 | |
| IW2NTF | 2026-09-01 11:17:11 | 44.62261 | 8.67557 | 128° | 13km/h | 17781m | 4.8m/s | -54.4°C | 4.1% | 0hPa | 2.7V | 08:30:00 | 01:40:29 | 00:00:00 | |
| DB0UT-7 | 2026-09-01 11:17:06 | 44.62264 | 8.67553 | 141° | 26km/h | 17777m | 4.2m/s | -54.4°C | 4.1% | 0hPa | 2.7V | 00:00:00 | 00:00:00 | 00:00:00 | |
| IW2NTF | 2026-09-01 11:17:00 | 44.62308 | 8.67500 | 142° | 26km/h | 17739m | 3.4m/s | -55.3°C | 4.2% | 0hPa | 2.7V | 08:30:00 | 01:40:19 | 00:00:00 | |
| IW2NTF | 2026-09-01 11:16:53 | 44.62349 | 8.67432 | 121° | 27km/h | 17701m | 3.6m/s | -55.7°C | 4.6% | 0hPa | 2.7V | 08:30:00 | 01:40:09 | 00:00:00 | |
| IW2NTF | 2026-09-01 11:16:42 | 44.62389 | 8.67349 | 118° | 26km/h | 17664m | 3.8m/s | -56.3°C | 4.6% | 0hPa | 2.7V | 08:30:00 | 01:39:59 | 00:00:00 | |
| DB0UT-7 | 2026-09-01 11:16:36 | 44.62392 | 8.67341 | 115° | 31km/h | 17660m | 4.2m/s | -56.2°C | 4.7% | 0hPa | 2.7V | 00:00:00 | 01:39:58 | 00:00:00 | |
| IW2NTF | 2026-09-01 11:16:32 | 44.62420 | 8.67260 | 123° | 31km/h | 17624m | 3.8m/s | -56.2°C | 4.7% | 0hPa | 2.7V | 08:30:00 | 01:39:49 | 00:00:00 | |
| IW2NTF | 2026-09-01 11:16:18 | 44.62452 | 8.67166 | 114° | 33km/h | 17586m | 3.2m/s | -56.5°C | 4.7% | 0hPa | 2.6V | 08:30:00 | 01:39:39 | 00:00:00 | |
| IW2NTF | 2026-09-01 11:16:13 | 44.62487 | 8.67045 | 106° | 35km/h | 17545m | 4.4m/s | -56.4°C | 4.8% | 0hPa | 2.7V | 08:30:00 | 01:39:29 | 00:00:00 | |
| DB0UT-7 | 2026-09-01 11:16:06 | 44.62490 | 8.67033 | 106° | 42km/h | 17541m | 3.4m/s | -56.3°C | 4.7% | 0hPa | 2.7V | 00:00:00 | 00:00:00 | 00:00:00 | |
| IW2NTF | 2026-09-01 11:16:00 | 44.62508 | 8.66882 | 94° | 42km/h | 17494m | 5.2m/s | -56.3°C | 4.7% | 0hPa | 2.7V | 08:30:00 | 01:39:17 | 00:00:00 | |
| IW2NTF | 2026-09-01 11:15:49 | 44.62517 | 8.66735 | 95° | 47km/h | 17451m | 4.9m/s | -56.2°C | 4.5% | 0hPa | 2.6V | 08:30:00 | 01:39:07 | 00:00:00 | |
| IW2NTF | 2026-09-01 11:15:36 | 44.62521 | 8.66566 | 87° | 47km/h | 17409m | 4m/s | -57.1°C | 4.6% | 0hPa | 2.6V | 08:30:00 | 01:38:57 | 00:00:00 | |
| IW2NTF | 2026-09-01 11:15:30 | 44.62523 | 8.66374 | 89° | 60km/h | 17366m | 4.1m/s | -58.6°C | 5.3% | 0hPa | 2.7V | 08:30:00 | 01:38:47 | 00:00:00 | |
| IW2NTF | 2026-09-01 11:15:18 | 44.62520 | 8.66167 | 89° | 55km/h | 17323m | 4.1m/s | -58.6°C | 5.5% | 0hPa | 2.6V | 08:30:00 | 01:38:37 | 00:00:00 | |
| IW2NTF | 2026-09-01 11:15:11 | 44.62513 | 8.65977 | 90° | 49km/h | 17280m | 4.5m/s | -58.4°C | 5.3% | 0hPa | 2.7V | 08:30:00 | 01:38:27 | 00:00:00 | |
| DB0UT-7 | 2026-09-01 11:15:06 | 44.62513 | 8.65995 | 89° | 44km/h | 17285m | 4.6m/s | 0°C | 0% | 0hPa | 2.6V | 00:00:00 | 00:00:00 | 00:00:00 | |
| IW2NTF | 2026-09-01 11:15:00 | 44.62512 | 8.65812 | 83° | 49km/h | 17236m | 4.2m/s | -58.4°C | 5.2% | 0hPa | 2.6V | 08:30:00 | 01:38:17 | 00:00:00 | |
| IW2NTF | 2026-09-01 11:14:47 | 44.62505 | 8.65653 | 86° | 40km/h | 17193m | 3.5m/s | -58.1°C | 5.1% | 0hPa | 2.6V | 08:30:00 | 01:38:07 | 00:00:00 | |
| IW2NTF | 2026-09-01 11:14:40 | 44.62496 | 8.65512 | 91° | 37km/h | 17150m | 4.8m/s | -57.8°C | 5.1% | 0hPa | 2.7V | 08:30:00 | 01:37:57 | 00:00:00 | |
| DB0UT-7 | 2026-09-01 11:14:36 | 44.62496 | 8.65525 | 90° | 33km/h | 17154m | 3.9m/s | 0°C | 0% | 0hPa | 2.6V | 00:00:00 | 01:37:58 | 00:00:00 | |
| IW2NTF | 2026-09-01 11:14:30 | 44.62488 | 8.65384 | 87° | 33km/h | 17109m | 4.6m/s | -58.2°C | 5.3% | 0hPa | 2.6V | 08:30:00 | 01:37:47 | 00:00:00 | |
| IW2NTF | 2026-09-01 11:14:18 | 44.62495 | 8.65280 | 92° | 31km/h | 17066m | 3.4m/s | -58.2°C | 5.3% | 0hPa | 2.7V | 08:30:00 | 01:37:37 | 00:00:00 | |
| IW2NTF | 2026-09-01 11:14:10 | 44.62491 | 8.65169 | 92° | 29km/h | 17024m | 3.8m/s | -58.4°C | 5.3% | 0hPa | 2.7V | 08:30:00 | 01:37:27 | 00:00:00 | |
| DB0UT-7 | 2026-09-01 11:14:06 | 44.62491 | 8.65179 | 91° | 35km/h | 17028m | 3.4m/s | 0°C | 0% | 0hPa | 2.6V | 00:00:00 | 00:00:00 | 00:00:00 | |
| IW2NTF | 2026-09-01 11:14:00 | 44.62477 | 8.65045 | 77° | 40km/h | 16981m | 4.8m/s | -58.5°C | 5.3% | 0hPa | 2.6V | 08:30:00 | 01:37:17 | 00:00:00 | |
| IW2NTF | 2026-09-01 11:13:48 | 44.62453 | 8.64898 | 73° | 46km/h | 16937m | 3.8m/s | -58.5°C | 5.4% | 0hPa | 2.7V | 08:30:00 | 01:37:07 | 00:00:00 | |
| IW2NTF | 2026-09-01 11:13:41 | 44.62424 | 8.64754 | 72° | 38km/h | 16897m | 3.5m/s | -58.9°C | 5.6% | 0hPa | 2.6V | 08:30:00 | 01:36:57 | 00:00:00 | |
| IW2NTF | 2026-09-01 11:13:29 | 44.62396 | 8.64585 | 81° | 47km/h | 16849m | 3.7m/s | -58.5°C | 5.6% | 0hPa | 2.6V | 08:30:00 | 01:36:45 | 00:00:00 | |
| IW2NTF | 2026-09-01 11:13:17 | 44.62384 | 8.64434 | 85° | 38km/h | 16808m | 3.9m/s | -58.8°C | 5.6% | 0hPa | 2.7V | 08:30:00 | 01:36:35 | 00:00:00 | |
| IW2NTF | 2026-09-01 11:13:05 | 44.62376 | 8.64275 | 84° | 46km/h | 16767m | 3.9m/s | -58.9°C | 5.7% | 0hPa | 2.7V | 08:30:00 | 01:36:25 | 00:00:00 | |
| IW2NTF | 2026-09-01 11:12:59 | 44.62361 | 8.64124 | 79° | 42km/h | 16725m | 4.8m/s | -58.7°C | 5.5% | 0hPa | 2.6V | 08:30:00 | 01:36:15 | 00:00:00 | |
| IW2NTF | 2026-09-01 11:12:47 | 44.62334 | 8.63972 | 74° | 46km/h | 16684m | 3.8m/s | -58.6°C | 5.8% | 0hPa | 2.7V | 08:30:00 | 01:36:05 | 00:00:00 | |
| IW2NTF | 2026-09-01 11:12:35 | 44.62298 | 8.63810 | 69° | 49km/h | 16645m | 4.2m/s | -58.8°C | 5.6% | 0hPa | 2.6V | 08:30:00 | 01:35:55 | 00:00:00 | |
| IW2NTF | 2026-09-01 11:12:28 | 44.62269 | 8.63661 | 78° | 42km/h | 16605m | 3.6m/s | -58.3°C | 5.6% | 0hPa | 2.7V | 08:30:00 | 01:35:45 | 00:00:00 | |
| IW2NTF | 2026-09-01 11:12:17 | 44.62243 | 8.63527 | 75° | 38km/h | 16564m | 3.8m/s | -58.9°C | 5.6% | 0hPa | 2.7V | 08:30:00 | 01:35:35 | 00:00:00 | |
| IW2NTF | 2026-09-01 11:12:04 | 44.62225 | 8.63400 | 85° | 37km/h | 16523m | 4.2m/s | -59.2°C | 5.8% | 0hPa | 2.7V | 08:30:00 | 01:35:25 | 00:00:00 | |
| IW2NTF | 2026-09-01 11:11:58 | 44.62217 | 8.63271 | 82° | 38km/h | 16485m | 4m/s | -59.5°C | 5.8% | 0hPa | 2.6V | 08:30:00 | 01:35:15 | 00:00:00 | |
| DB0UT-7 | 2026-09-01 11:11:56 | 44.62220 | 8.63312 | 87° | 47km/h | 16496m | 4.2m/s | 0°C | 0% | 0hPa | 2.6V | 00:00:00 | 01:35:18 | 00:00:00 | |
| IW2NTF | 2026-09-01 11:11:47 | 44.62219 | 8.63094 | 96° | 42km/h | 16439m | 3.9m/s | -59.6°C | 6% | 0hPa | 2.6V | 08:30:00 | 01:35:03 | 00:00:00 | |
| IW2NTF | 2026-09-01 11:11:35 | 44.62215 | 8.62930 | 87° | 47km/h | 16400m | 4.2m/s | -59.6°C | 5.9% | 0hPa | 2.6V | 08:30:00 | 01:34:53 | 00:00:00 | |
| IW2NTF | 2026-09-01 11:11:22 | 44.62204 | 8.62722 | 84° | 47km/h | 16352m | 3.3m/s | -59.5°C | 5.9% | 0hPa | 2.6V | 08:30:00 | 01:34:41 | 00:00:00 | |
| IW2NTF | 2026-09-01 11:11:11 | 44.62193 | 8.62543 | 86° | 55km/h | 16311m | 4m/s | -59.9°C | 6% | 0hPa | 2.7V | 08:30:00 | 01:34:31 | 00:00:00 | |
| IW2NTF | 2026-09-01 11:11:04 | 44.62175 | 8.62313 | 82° | 60km/h | 16264m | 4.2m/s | -59.6°C | 6% | 0hPa | 2.6V | 08:30:00 | 01:34:19 | 00:00:00 | |
| IW2NTF | 2026-09-01 11:10:51 | 44.62150 | 8.62114 | 75° | 51km/h | 16222m | 4.8m/s | -59.5°C | 6.1% | 0hPa | 2.7V | 08:30:00 | 01:34:09 | 00:00:00 | |
| IW2NTF | 2026-09-01 11:10:37 | 44.62121 | 8.61913 | 74° | 60km/h | 16182m | 3.9m/s | -59.3°C | 5.9% | 0hPa | 2.7V | 08:30:00 | 01:33:59 | 00:00:00 | |
| IW2NTF | 2026-09-01 11:10:31 | 44.62077 | 8.61729 | 74° | 57km/h | 16145m | 4.2m/s | -59.1°C | 5.9% | 0hPa | 2.6V | 08:30:00 | 01:33:49 | 00:00:00 | |
| IW2NTF | 2026-09-01 11:10:20 | 44.62028 | 8.61539 | 68° | 58km/h | 16104m | 3.7m/s | -59.2°C | 5.7% | 0hPa | 2.7V | 08:30:00 | 01:33:39 | 00:00:00 | |
| IW2NTF | 2026-09-01 11:10:07 | 44.61979 | 8.61361 | 65° | 53km/h | 16064m | 4.6m/s | -59.2°C | 5.6% | 0hPa | 2.7V | 08:30:00 | 01:33:29 | 00:00:00 | |
| IW2NTF | 2026-09-01 11:10:01 | 44.61916 | 8.61132 | 67° | 58km/h | 16015m | 3.3m/s | -59.6°C | 6% | 0hPa | 2.7V | 08:30:00 | 01:33:17 | 00:00:00 | |
| IW2NTF | 2026-09-01 11:09:50 | 44.61869 | 8.60955 | 73° | 64km/h | 15982m | 4.1m/s | -59.5°C | 6% | 0hPa | 2.7V | 08:30:00 | 01:33:08 | 00:00:00 | |
| IW2NTF | 2026-09-01 11:09:37 | 44.61824 | 8.60736 | 75° | 66km/h | 15944m | 3.7m/s | -59.3°C | 5.9% | 0hPa | 2.8V | 08:30:00 | 01:32:58 | 00:00:00 | |
| IW2NTF | 2026-09-01 11:09:32 | 44.61772 | 8.60529 | 72° | 60km/h | 15905m | 3.1m/s | -59.3°C | 6% | 0hPa | 2.6V | 08:30:00 | 01:32:48 | 00:00:00 | |
| IW2NTF | 2026-09-01 11:09:20 | 44.61727 | 8.60332 | 65° | 57km/h | 15867m | 4.1m/s | -59°C | 5.9% | 0hPa | 2.7V | 08:30:00 | 01:32:38 | 00:00:00 | |
| IW2NTF | 2026-09-01 11:09:07 | 44.61685 | 8.60147 | 75° | 55km/h | 15830m | 4.1m/s | -58.7°C | 5.8% | 0hPa | 2.8V | 08:30:00 | 01:32:28 | 00:00:00 | |
| IW2NTF | 2026-09-01 11:09:01 | 44.61647 | 8.59955 | 78° | 49km/h | 15792m | 3m/s | -58.7°C | 5.7% | 0hPa | 2.7V | 08:30:00 | 01:32:18 | 00:00:00 | |
| IW2NTF | 2026-09-01 11:08:51 | 44.61615 | 8.59776 | 76° | 53km/h | 15754m | 4.4m/s | -58.6°C | 5.9% | 0hPa | 2.7V | 08:30:00 | 01:32:08 | 00:00:00 | |
| IW2NTF | 2026-09-01 11:08:38 | 44.61594 | 8.59597 | 76° | 55km/h | 15717m | 3.7m/s | -58.4°C | 5.8% | 0hPa | 2.8V | 08:30:00 | 01:31:58 | 00:00:00 | |
| IW2NTF | 2026-09-01 11:08:27 | 44.61557 | 8.59417 | 75° | 53km/h | 15679m | 4.3m/s | -58.2°C | 5.9% | 0hPa | 2.7V | 08:30:00 | 01:31:48 | 00:00:00 | |
| IW2NTF | 2026-09-01 11:08:20 | 44.61512 | 8.59223 | 69° | 55km/h | 15642m | 3.6m/s | -58.4°C | 5.7% | 0hPa | 2.7V | 08:30:00 | 01:31:38 | 00:00:00 | |
| IW2NTF | 2026-09-01 11:08:08 | 44.61471 | 8.59017 | 71° | 60km/h | 15605m | 4m/s | -58.6°C | 5.9% | 0hPa | 2.8V | 08:30:00 | 01:31:28 | 00:00:00 | |
| IW2NTF | 2026-09-01 11:08:02 | 44.61432 | 8.58822 | 80° | 60km/h | 15567m | 3.5m/s | -58.6°C | 6.1% | 0hPa | 2.7V | 08:30:00 | 01:31:18 | 00:00:00 | |
| IW2NTF | 2026-09-01 11:07:50 | 44.61407 | 8.58611 | 77° | 57km/h | 15530m | 3.2m/s | -58.4°C | 5.8% | 0hPa | 2.8V | 08:30:00 | 01:31:08 | 00:00:00 | |
| IW2NTF | 2026-09-01 11:07:39 | 44.61373 | 8.58388 | 78° | 69km/h | 15493m | 4.4m/s | -58.2°C | 5.9% | 0hPa | 2.8V | 08:30:00 | 01:30:58 | 00:00:00 | |
| IW2NTF | 2026-09-01 11:07:31 | 44.61338 | 8.58164 | 75° | 68km/h | 15455m | 3.4m/s | -58.4°C | 6% | 0hPa | 2.7V | 08:30:00 | 01:30:48 | 00:00:00 | |
| IW2NTF | 2026-09-01 11:07:14 | 44.61284 | 8.57875 | 75° | 68km/h | 15409m | 3m/s | -58.6°C | 6.1% | 0hPa | 2.7V | 08:30:00 | 01:30:36 | 00:00:00 | |
| IW2NTF | 2026-09-01 11:07:08 | 44.61238 | 8.57577 | 75° | 71km/h | 15364m | 3.1m/s | -58.3°C | 6% | 0hPa | 2.7V | 08:30:00 | 01:30:24 | 00:00:00 | |
| IW2NTF | 2026-09-01 11:06:57 | 44.61185 | 8.57329 | 72° | 73km/h | 15325m | 4.5m/s | -58.6°C | 6.3% | 0hPa | 2.8V | 08:30:00 | 01:30:14 | 00:00:00 | |
| IW2NTF | 2026-09-01 11:06:47 | 44.61121 | 8.57082 | 66° | 78km/h | 15285m | 4.8m/s | -58.5°C | 6.2% | 0hPa | 2.8V | 08:30:00 | 01:30:04 | 00:00:00 | |
| IW2NTF | 2026-09-01 11:06:35 | 44.61047 | 8.56840 | 67° | 71km/h | 15244m | 3.4m/s | -58.7°C | 6.4% | 0hPa | 2.7V | 08:30:00 | 01:29:54 | 00:00:00 | |
| IW2NTF | 2026-09-01 11:06:27 | 44.60981 | 8.56587 | 71° | 77km/h | 15205m | 4.4m/s | -58.5°C | 6.3% | 0hPa | 2.8V | 08:30:00 | 01:29:44 | 00:00:00 | |
| IW2NTF | 2026-09-01 11:06:16 | 44.60926 | 8.56338 | 73° | 71km/h | 15166m | 4.1m/s | -58.1°C | 6.3% | 0hPa | 2.8V | 08:30:00 | 01:29:34 | 00:00:00 | |
| IW2NTF | 2026-09-01 11:06:04 | 44.60876 | 8.56093 | 74° | 68km/h | 15126m | 4.3m/s | -57.9°C | 6% | 0hPa | 2.7V | 08:30:00 | 01:29:24 | 00:00:00 | |
| IW2NTF | 2026-09-01 11:05:58 | 44.60830 | 8.55862 | 74° | 71km/h | 15087m | 4m/s | -58°C | 6.3% | 0hPa | 2.8V | 08:30:00 | 01:29:14 | 00:00:00 | |
| IW2NTF | 2026-09-01 11:05:47 | 44.60787 | 8.55636 | 74° | 64km/h | 15049m | 3.3m/s | -58.1°C | 6.3% | 0hPa | 2.8V | 08:30:00 | 01:29:04 | 00:00:00 | |
| IW2NTF | 2026-09-01 11:05:35 | 44.60743 | 8.55359 | 79° | 69km/h | 15002m | 4.7m/s | -58.1°C | 6.3% | 0hPa | 2.8V | 08:30:00 | 01:28:52 | 00:00:00 | |
| IW2NTF | 2026-09-01 11:05:26 | 44.60712 | 8.55104 | 78° | 77km/h | 14962m | 3.4m/s | -57.8°C | 6.3% | 0hPa | 2.7V | 08:30:00 | 01:28:42 | 00:00:00 | |
| IW2NTF | 2026-09-01 11:05:14 | 44.60675 | 8.54781 | 80° | 78km/h | 14915m | 3.6m/s | -57.5°C | 6.2% | 0hPa | 2.7V | 08:30:00 | 01:28:30 | 00:00:00 | |
| IW2NTF | 2026-09-01 11:05:02 | 44.60651 | 8.54507 | 83° | 77km/h | 14875m | 4.1m/s | -57.1°C | 6.1% | 0hPa | 2.8V | 08:30:00 | 01:28:20 | 00:00:00 | |
| IW2NTF | 2026-09-01 11:04:51 | 44.60630 | 8.54236 | 82° | 80km/h | 14834m | 4.7m/s | -57.1°C | 6.2% | 0hPa | 2.7V | 08:30:00 | 01:28:10 | 00:00:00 | |
| IW2NTF | 2026-09-01 11:04:43 | 44.60605 | 8.53950 | 83° | 78km/h | 14795m | 3.7m/s | -57.2°C | 6% | 0hPa | 2.8V | 08:30:00 | 01:28:00 | 00:00:00 | |
| IW2NTF | 2026-09-01 11:04:32 | 44.60577 | 8.53656 | 84° | 84km/h | 14757m | 3.3m/s | -57.5°C | 6.5% | 0hPa | 2.7V | 08:30:00 | 01:27:50 | 00:00:00 | |
| IW2NTF | 2026-09-01 11:04:21 | 44.60556 | 8.53365 | 83° | 84km/h | 14717m | 3.7m/s | -57.7°C | 6.6% | 0hPa | 2.7V | 08:30:00 | 01:27:40 | 00:00:00 | |
| IW2NTF | 2026-09-01 11:04:13 | 44.60526 | 8.53072 | 80° | 82km/h | 14679m | 4.3m/s | -57.5°C | 6.5% | 0hPa | 2.7V | 08:30:00 | 01:27:30 | 00:00:00 | |
| IW2NTF | 2026-09-01 11:04:02 | 44.60489 | 8.52781 | 78° | 82km/h | 14640m | 2.5m/s | -57.5°C | 6.6% | 0hPa | 2.8V | 08:30:00 | 01:27:20 | 00:00:00 | |
| IW2NTF | 2026-09-01 11:03:50 | 44.60453 | 8.52488 | 79° | 86km/h | 14603m | 4m/s | -57.5°C | 6.6% | 0hPa | 2.8V | 08:30:00 | 01:27:10 | 00:00:00 | |
| IW2NTF | 2026-09-01 11:03:39 | 44.60415 | 8.52198 | 81° | 88km/h | 14566m | 2.6m/s | -57.3°C | 6.8% | 0hPa | 2.7V | 08:30:00 | 01:27:00 | 00:00:00 | |
| IW2NTF | 2026-09-01 11:03:32 | 44.60376 | 8.51912 | 81° | 84km/h | 14527m | 4.2m/s | -57.4°C | 6.7% | 0hPa | 2.8V | 08:30:00 | 01:26:50 | 00:00:00 | |
| IW2NTF | 2026-09-01 11:03:20 | 44.60344 | 8.51617 | 78° | 82km/h | 14490m | 3.6m/s | -57.4°C | 7% | 0hPa | 2.7V | 08:30:00 | 01:26:40 | 00:00:00 | |
| IW2NTF | 2026-09-01 11:03:14 | 44.60306 | 8.51316 | 79° | 86km/h | 14453m | 4.2m/s | -57.4°C | 6.9% | 0hPa | 2.7V | 08:30:00 | 01:26:30 | 00:00:00 | |
| IW2NTF | 2026-09-01 11:03:03 | 44.60265 | 8.51022 | 81° | 82km/h | 14417m | 3.6m/s | -57.2°C | 6.8% | 0hPa | 2.7V | 08:30:00 | 01:26:20 | 00:00:00 | |
| IW2NTF | 2026-09-01 11:02:50 | 44.60231 | 8.50716 | 79° | 91km/h | 14380m | 4.1m/s | -57.1°C | 6.7% | 0hPa | 2.7V | 08:30:00 | 01:26:10 | 00:00:00 | |
| IW2NTF | 2026-09-01 11:02:43 | 44.60189 | 8.50412 | 77° | 88km/h | 14344m | 3.1m/s | -56.9°C | 6.7% | 0hPa | 2.7V | 08:30:00 | 01:26:00 | 00:00:00 | |
| IW2NTF | 2026-09-01 11:02:33 | 44.60151 | 8.50097 | 79° | 86km/h | 14310m | 3.3m/s | -57.4°C | 6.6% | 0hPa | 2.8V | 08:30:00 | 01:25:50 | 00:00:00 | |
| IW2NTF | 2026-09-01 11:02:24 | 44.60104 | 8.49798 | 78° | 88km/h | 14275m | 3.5m/s | -57.7°C | 6.6% | 0hPa | 2.8V | 08:30:00 | 01:25:40 | 00:00:00 | |
| IW2NTF | 2026-09-01 11:02:13 | 44.60058 | 8.49481 | 75° | 93km/h | 14239m | 4.3m/s | -57.8°C | 6.6% | 0hPa | 2.7V | 08:30:00 | 01:25:30 | 00:00:00 | |
| IW2NTF | 2026-09-01 11:02:04 | 44.59999 | 8.49162 | 75° | 89km/h | 14200m | 3.3m/s | -57.8°C | 6.5% | 0hPa | 2.8V | 08:30:00 | 01:25:20 | 00:00:00 | |
| IW2NTF | 2026-09-01 11:01:53 | 44.59936 | 8.48854 | 74° | 88km/h | 14163m | 3.3m/s | -57.7°C | 6.3% | 0hPa | 2.7V | 08:30:00 | 01:25:10 | 00:00:00 | |
| IW2NTF | 2026-09-01 11:01:44 | 44.59882 | 8.48547 | 77° | 91km/h | 14127m | 4.1m/s | -57.5°C | 6.5% | 0hPa | 2.8V | 08:30:00 | 01:25:00 | 00:00:00 | |
| IW2NTF | 2026-09-01 11:01:34 | 44.59821 | 8.48237 | 75° | 93km/h | 14089m | 4.4m/s | -57.4°C | 6.3% | 0hPa | 2.8V | 08:30:00 | 01:24:50 | 00:00:00 | |
| IW2NTF | 2026-09-01 11:01:23 | 44.59755 | 8.47915 | 70° | 93km/h | 14050m | 3.5m/s | -57.4°C | 6.3% | 0hPa | 2.7V | 08:30:00 | 01:24:40 | 00:00:00 | |
| IW2NTF | 2026-09-01 11:01:13 | 44.59679 | 8.47582 | 72° | 100km/h | 14013m | 4m/s | -57.3°C | 6.1% | 0hPa | 2.8V | 08:30:00 | 01:24:30 | 00:00:00 | |
| IW2NTF | 2026-09-01 11:01:03 | 44.59597 | 8.47248 | 72° | 100km/h | 13974m | 3.8m/s | -57.3°C | 6.5% | 0hPa | 2.8V | 08:30:00 | 01:24:20 | 00:00:00 | |
| IW2NTF | 2026-09-01 11:00:53 | 44.59522 | 8.46908 | 74° | 102km/h | 13935m | 3.2m/s | -57.1°C | 6.3% | 0hPa | 2.8V | 08:30:00 | 01:24:10 | 00:00:00 | |
| IW2NTF | 2026-09-01 11:00:43 | 44.59452 | 8.46552 | 75° | 99km/h | 13897m | 4.1m/s | -56.9°C | 6.3% | 0hPa | 2.8V | 08:30:00 | 01:24:00 | 00:00:00 | |
| IW2NTF | 2026-09-01 11:00:33 | 44.59386 | 8.46212 | 75° | 100km/h | 13860m | 3.5m/s | -57.4°C | 6.6% | 0hPa | 2.7V | 08:30:00 | 01:23:50 | 00:00:00 | |
| IW2NTF | 2026-09-01 11:00:23 | 44.59318 | 8.45875 | 74° | 97km/h | 13824m | 2.5m/s | -57.3°C | 6.8% | 0hPa | 2.8V | 08:30:00 | 01:23:40 | 00:00:00 | |
| IW2NTF | 2026-09-01 11:00:13 | 44.59248 | 8.45535 | 74° | 102km/h | 13787m | 3.5m/s | -57.4°C | 7.1% | 0hPa | 2.7V | 08:30:00 | 01:23:30 | 00:00:00 | |
| IW2NTF | 2026-09-01 11:00:03 | 44.59181 | 8.45192 | 72° | 102km/h | 13749m | 3.5m/s | -57.6°C | 7.2% | 0hPa | 2.7V | 08:30:00 | 01:23:20 | 00:00:00 | |
| IW2NTF | 2026-09-01 10:59:53 | 44.59117 | 8.44835 | 79° | 104km/h | 13711m | 4.2m/s | -57.4°C | 7.3% | 0hPa | 2.7V | 08:30:00 | 01:23:10 | 00:00:00 | |
| IW2NTF | 2026-09-01 10:59:43 | 44.59067 | 8.44470 | 78° | 104km/h | 13673m | 2.8m/s | -57.4°C | 7.6% | 0hPa | 2.7V | 08:30:00 | 01:23:00 | 00:00:00 | |
| IW2NTF | 2026-09-01 10:59:33 | 44.59007 | 8.44106 | 73° | 102km/h | 13636m | 3.8m/s | -57.5°C | 7.6% | 0hPa | 2.7V | 08:30:00 | 01:22:50 | 00:00:00 | |
| IW2NTF | 2026-09-01 10:59:24 | 44.58929 | 8.43749 | 74° | 104km/h | 13600m | 4.3m/s | -57.5°C | 7.9% | 0hPa | 2.7V | 08:30:00 | 01:22:40 | 00:00:00 | |
| IW2NTF | 2026-09-01 10:59:14 | 44.58848 | 8.43393 | 73° | 110km/h | 13563m | 3.1m/s | -57.3°C | 8.1% | 0hPa | 2.7V | 08:30:00 | 01:22:30 | 00:00:00 | |
| IW2NTF | 2026-09-01 10:59:03 | 44.58772 | 8.43029 | 73° | 104km/h | 13529m | 3.6m/s | -57.3°C | 8.2% | 0hPa | 2.7V | 08:30:00 | 01:22:20 | 00:00:00 | |
| IW2NTF | 2026-09-01 10:58:53 | 44.58692 | 8.42674 | 73° | 104km/h | 13493m | 4m/s | -57.4°C | 8.7% | 0hPa | 2.7V | 08:30:00 | 01:22:10 | 00:00:00 | |
| IW2NTF | 2026-09-01 10:58:44 | 44.58617 | 8.42306 | 71° | 106km/h | 13457m | 3m/s | -57.5°C | 8.6% | 0hPa | 2.8V | 08:30:00 | 01:22:00 | 00:00:00 | |
| IW2NTF | 2026-09-01 10:58:33 | 44.58539 | 8.41942 | 73° | 110km/h | 13421m | 3.1m/s | -58°C | 10% | 0hPa | 2.7V | 08:30:00 | 01:21:50 | 00:00:00 | |
| IW2NTF | 2026-09-01 10:58:23 | 44.58463 | 8.41574 | 77° | 111km/h | 13384m | 4.5m/s | -58.2°C | 10.2% | 0hPa | 2.8V | 08:30:00 | 01:21:40 | 00:00:00 | |
| IW2NTF | 2026-09-01 10:58:13 | 44.58399 | 8.41205 | 77° | 106km/h | 13347m | 3.2m/s | -57.9°C | 10.4% | 0hPa | 2.8V | 08:30:00 | 01:21:30 | 00:00:00 | |
| IW2NTF | 2026-09-01 10:58:03 | 44.58337 | 8.40838 | 74° | 106km/h | 13310m | 3.9m/s | -58.1°C | 11.6% | 0hPa | 2.8V | 08:30:00 | 01:21:20 | 00:00:00 | |
| IW2NTF | 2026-09-01 10:57:53 | 44.58266 | 8.40481 | 74° | 102km/h | 13273m | 3.6m/s | -58.2°C | 11.8% | 0hPa | 2.8V | 08:30:00 | 01:21:10 | 00:00:00 | |
| IW2NTF | 2026-09-01 10:57:43 | 44.58198 | 8.40112 | 76° | 110km/h | 13234m | 4m/s | -58.3°C | 12.7% | 0hPa | 2.7V | 08:30:00 | 01:21:00 | 00:00:00 | |
| IW2NTF | 2026-09-01 10:57:33 | 44.58139 | 8.39725 | 77° | 119km/h | 13196m | 4.6m/s | -58.6°C | 14.1% | 0hPa | 2.7V | 08:30:00 | 01:20:50 | 00:00:00 | |
| IW2NTF | 2026-09-01 10:57:23 | 44.58078 | 8.39313 | 78° | 119km/h | 13158m | 3.4m/s | -58.5°C | 14.5% | 0hPa | 2.7V | 08:30:00 | 01:20:40 | 00:00:00 | |
| IW2NTF | 2026-09-01 10:57:13 | 44.58014 | 8.38907 | 79° | 119km/h | 13119m | 3.6m/s | -58.5°C | 16.4% | 0hPa | 2.8V | 08:30:00 | 01:20:30 | 00:00:00 | |
| IW2NTF | 2026-09-01 10:57:03 | 44.57949 | 8.38491 | 76° | 119km/h | 13080m | 3.7m/s | -58.6°C | 16.7% | 0hPa | 2.8V | 08:30:00 | 01:20:20 | 00:00:00 | |
| IW2NTF | 2026-09-01 10:56:54 | 44.57884 | 8.38075 | 78° | 126km/h | 13044m | 3.6m/s | -58.4°C | 17.6% | 0hPa | 2.8V | 08:30:00 | 01:20:10 | 00:00:00 | |
| IW2NTF | 2026-09-01 10:56:43 | 44.57828 | 8.37638 | 79° | 122km/h | 13006m | 3.8m/s | -58.3°C | 18.4% | 0hPa | 2.7V | 08:30:00 | 01:20:00 | 00:00:00 | |
| IW2NTF | 2026-09-01 10:56:33 | 44.57769 | 8.37190 | 80° | 131km/h | 12967m | 3.2m/s | -58.1°C | 18.8% | 0hPa | 2.7V | 08:30:00 | 01:19:50 | 00:00:00 | |
| IW2NTF | 2026-09-01 10:56:23 | 44.57701 | 8.36743 | 77° | 130km/h | 12930m | 3m/s | -57.9°C | 18.5% | 0hPa | 2.8V | 08:30:00 | 01:19:40 | 00:00:00 | |
| IW2NTF | 2026-09-01 10:56:13 | 44.57636 | 8.36300 | 77° | 130km/h | 12892m | 3.1m/s | -57.6°C | 20.3% | 0hPa | 2.7V | 08:30:00 | 01:19:30 | 00:00:00 | |
| IW2NTF | 2026-09-01 10:56:03 | 44.57574 | 8.35857 | 79° | 126km/h | 12855m | 3.8m/s | -57.8°C | 24.1% | 0hPa | 2.8V | 08:30:00 | 01:19:20 | 00:00:00 | |
| IW2NTF | 2026-09-01 10:55:53 | 44.57508 | 8.35426 | 77° | 124km/h | 12818m | 3.5m/s | -58.2°C | 28% | 0hPa | 2.7V | 08:30:00 | 01:19:10 | 00:00:00 | |
| IW2NTF | 2026-09-01 10:55:44 | 44.57438 | 8.34999 | 77° | 131km/h | 12782m | 3.4m/s | -58.2°C | 29.3% | 0hPa | 2.8V | 08:30:00 | 01:19:00 | 00:00:00 | |
| IW2NTF | 2026-09-01 10:55:33 | 44.57374 | 8.34550 | 79° | 126km/h | 12749m | 2.8m/s | -58.1°C | 29.4% | 0hPa | 2.8V | 08:30:00 | 01:18:50 | 00:00:00 | |
| IW2NTF | 2026-09-01 10:55:23 | 44.57315 | 8.34095 | 80° | 133km/h | 12715m | 3.6m/s | -58°C | 30.2% | 0hPa | 2.7V | 08:30:00 | 01:18:40 | 00:00:00 | |
| IW2NTF | 2026-09-01 10:55:15 | 44.57256 | 8.33638 | 79° | 135km/h | 12682m | 3m/s | -58.2°C | 32.7% | 0hPa | 2.8V | 08:30:00 | 01:18:30 | 00:00:00 | |
| IW2NTF | 2026-09-01 10:55:03 | 44.57196 | 8.33165 | 80° | 133km/h | 12651m | 3.3m/s | -58°C | 31.9% | 0hPa | 2.7V | 08:30:00 | 01:18:20 | 00:00:00 | |
| IW2NTF | 2026-09-01 10:54:53 | 44.57132 | 8.32701 | 79° | 133km/h | 12618m | 3m/s | -57.9°C | 32.4% | 0hPa | 2.8V | 08:30:00 | 01:18:10 | 00:00:00 | |
| IW2NTF | 2026-09-01 10:54:44 | 44.57067 | 8.32248 | 78° | 130km/h | 12586m | 3m/s | -57.9°C | 32.4% | 0hPa | 2.7V | 08:30:00 | 01:18:00 | 00:00:00 | |
| IW2NTF | 2026-09-01 10:54:31 | 44.56981 | 8.31705 | 76° | 130km/h | 12548m | 3.9m/s | -57.8°C | 32.3% | 0hPa | 2.8V | 08:30:00 | 01:17:48 | 00:00:00 | |
| IW2NTF | 2026-09-01 10:54:21 | 44.56901 | 8.31260 | 77° | 131km/h | 12514m | 2.7m/s | -57.6°C | 31.8% | 0hPa | 2.8V | 08:30:00 | 01:17:38 | 00:00:00 | |
| IW2NTF | 2026-09-01 10:54:11 | 44.56814 | 8.30803 | 75° | 131km/h | 12483m | 2.8m/s | -57.5°C | 31.5% | 0hPa | 2.8V | 08:30:00 | 01:17:28 | 00:00:00 | |
| IW2NTF | 2026-09-01 10:54:03 | 44.56732 | 8.30361 | 75° | 137km/h | 12454m | 2.6m/s | -57.3°C | 30.9% | 0hPa | 2.8V | 08:30:00 | 01:17:18 | 00:00:00 | |
| IW2NTF | 2026-09-01 10:53:53 | 44.56649 | 8.29905 | 76° | 124km/h | 12422m | 3m/s | -57°C | 30.1% | 0hPa | 2.8V | 08:30:00 | 01:17:08 | 00:00:00 | |
| IW2NTF | 2026-09-01 10:53:01 | 44.56260 | 8.27672 | 78° | 130km/h | 12257m | 3.4m/s | -56.3°C | 33.3% | 0hPa | 2.7V | 08:30:00 | 01:16:18 | 00:00:00 | |
| IW2NTF | 2026-09-01 10:52:51 | 44.56191 | 8.27222 | 78° | 128km/h | 12225m | 3.4m/s | -56.1°C | 34% | 0hPa | 2.7V | 08:30:00 | 01:16:08 | 00:00:00 | |
| IW2NTF | 2026-09-01 10:52:41 | 44.56133 | 8.26779 | 81° | 128km/h | 12189m | 2.9m/s | -56.2°C | 35.3% | 0hPa | 2.7V | 08:30:00 | 01:15:58 | 00:00:00 | |
| IW2NTF | 2026-09-01 10:52:33 | 44.56083 | 8.26333 | 81° | 133km/h | 12153m | 4.2m/s | -56.2°C | 33.4% | 0hPa | 2.7V | 08:30:00 | 01:15:48 | 00:00:00 | |
| IW2NTF | 2026-09-01 10:52:21 | 44.56037 | 8.25877 | 83° | 124km/h | 12117m | 3.5m/s | -55.9°C | 31.8% | 0hPa | 2.7V | 08:30:00 | 01:15:38 | 00:00:00 | |
| IW2NTF | 2026-09-01 10:52:11 | 44.55993 | 8.25422 | 83° | 131km/h | 12079m | 2.9m/s | -55.9°C | 30% | 0hPa | 2.8V | 08:30:00 | 01:15:28 | 00:00:00 | |
| IW2NTF | 2026-09-01 10:52:01 | 44.55944 | 8.24985 | 77° | 122km/h | 12037m | 4.6m/s | -55.6°C | 26.5% | 0hPa | 2.8V | 08:30:00 | 01:15:18 | 00:00:00 | |
| IW2NTF | 2026-09-01 10:51:54 | 44.55903 | 8.24555 | 83° | 120km/h | 11996m | 4.2m/s | -55.6°C | 26.1% | 0hPa | 2.8V | 08:30:00 | 01:15:08 | 00:00:00 | |
| IW2NTF | 2026-09-01 10:51:41 | 44.55876 | 8.24137 | 85° | 120km/h | 11950m | 4.2m/s | -55.7°C | 25.8% | 0hPa | 2.8V | 08:30:00 | 01:14:58 | 00:00:00 | |
| IW2NTF | 2026-09-01 10:51:32 | 44.55846 | 8.23742 | 84° | 111km/h | 11906m | 5.2m/s | -55.8°C | 27.4% | 0hPa | 2.8V | 08:30:00 | 01:14:48 | 00:00:00 | |
| IW2NTF | 2026-09-01 10:51:21 | 44.55820 | 8.23357 | 84° | 108km/h | 11864m | 3.1m/s | -55.6°C | 28.9% | 0hPa | 2.8V | 08:30:00 | 01:14:38 | 00:00:00 | |
| IW2NTF | 2026-09-01 10:51:12 | 44.55801 | 8.22987 | 84° | 102km/h | 11825m | 4.5m/s | -55.7°C | 29.7% | 0hPa | 2.7V | 08:30:00 | 01:14:28 | 00:00:00 | |
| IW2NTF | 2026-09-01 10:51:01 | 44.55775 | 8.22637 | 86° | 97km/h | 11786m | 4.3m/s | -55.3°C | 29.7% | 0hPa | 2.7V | 08:30:00 | 01:14:18 | 00:00:00 | |
| IW2NTF | 2026-09-01 10:50:51 | 44.55749 | 8.22302 | 86° | 89km/h | 11744m | 3.6m/s | -55.2°C | 31.7% | 0hPa | 2.7V | 08:30:00 | 01:14:08 | 00:00:00 | |
| IW2NTF | 2026-09-01 10:50:42 | 44.55721 | 8.21973 | 84° | 93km/h | 11702m | 4.9m/s | -54.9°C | 30.8% | 0hPa | 2.8V | 08:30:00 | 01:13:58 | 00:00:00 | |
| IW2NTF | 2026-09-01 10:50:31 | 44.55698 | 8.21671 | 84° | 86km/h | 11659m | 4m/s | -54.7°C | 29.8% | 0hPa | 2.8V | 08:30:00 | 01:13:48 | 00:00:00 | |
| IW2NTF | 2026-09-01 10:50:21 | 44.55681 | 8.21370 | 85° | 84km/h | 11617m | 3.5m/s | -54.3°C | 29.2% | 0hPa | 2.8V | 08:30:00 | 01:13:38 | 00:00:00 | |
| IW2NTF | 2026-09-01 10:50:11 | 44.55661 | 8.21079 | 87° | 82km/h | 11578m | 3.2m/s | -54.1°C | 29% | 0hPa | 2.8V | 08:30:00 | 01:13:28 | 00:00:00 | |
| IW2NTF | 2026-09-01 10:50:01 | 44.55647 | 8.20797 | 85° | 78km/h | 11538m | 4.6m/s | -53.8°C | 28.1% | 0hPa | 2.7V | 08:30:00 | 01:13:18 | 00:00:00 | |
| IW2NTF | 2026-09-01 10:49:51 | 44.55642 | 8.20516 | 89° | 77km/h | 11499m | 3.7m/s | -53.5°C | 27% | 0hPa | 2.8V | 08:30:00 | 01:13:08 | 00:00:00 | |
| IW2NTF | 2026-09-01 10:49:41 | 44.55639 | 8.20233 | 89° | 80km/h | 11460m | 3.4m/s | -53°C | 25.8% | 0hPa | 2.8V | 08:30:00 | 01:12:58 | 00:00:00 | |
| IW2NTF | 2026-09-01 10:49:32 | 44.55635 | 8.19948 | 89° | 78km/h | 11422m | 4.2m/s | -52.7°C | 25.8% | 0hPa | 2.8V | 08:30:00 | 01:12:48 | 00:00:00 | |
| IW2NTF | 2026-09-01 10:49:22 | 44.55635 | 8.19664 | 89° | 82km/h | 11385m | 4m/s | -52.4°C | 24.7% | 0hPa | 2.8V | 08:30:00 | 01:12:38 | 00:00:00 | |
| IW2NTF | 2026-09-01 10:49:11 | 44.55640 | 8.19380 | 91° | 82km/h | 11347m | 3.8m/s | -52°C | 24.4% | 0hPa | 2.7V | 08:30:00 | 01:12:28 | 00:00:00 | |
| IW2NTF | 2026-09-01 10:49:01 | 44.55645 | 8.19098 | 90° | 78km/h | 11309m | 3.5m/s | -51.8°C | 23.2% | 0hPa | 2.8V | 08:30:00 | 01:12:18 | 00:00:00 | |
| IW2NTF | 2026-09-01 10:48:51 | 44.55653 | 8.18798 | 92° | 80km/h | 11271m | 4.1m/s | -51.4°C | 22.8% | 0hPa | 2.8V | 08:30:00 | 01:12:08 | 00:00:00 | |
| IW2NTF | 2026-09-01 10:48:41 | 44.55656 | 8.18507 | 92° | 88km/h | 11233m | 4.3m/s | -51.2°C | 21.2% | 0hPa | 2.8V | 08:30:00 | 01:11:58 | 00:00:00 | |
| IW2NTF | 2026-09-01 10:48:31 | 44.55663 | 8.18215 | 89° | 84km/h | 11196m | 3.3m/s | -50.9°C | 22.1% | 0hPa | 2.8V | 08:30:00 | 01:11:48 | 00:00:00 | |
| IW2NTF | 2026-09-01 10:48:22 | 44.55669 | 8.17921 | 93° | 86km/h | 11159m | 4.5m/s | -50.8°C | 21% | 0hPa | 2.9V | 08:30:00 | 01:11:38 | 00:00:00 | |
| IW2NTF | 2026-09-01 10:48:12 | 44.55668 | 8.17628 | 90° | 84km/h | 11123m | 2.7m/s | -50.4°C | 20.9% | 0hPa | 2.8V | 08:30:00 | 01:11:28 | 00:00:00 | |
| IW2NTF | 2026-09-01 10:48:01 | 44.55669 | 8.17320 | 89° | 84km/h | 11087m | 4.3m/s | -50.2°C | 20.4% | 0hPa | 2.8V | 08:30:00 | 01:11:18 | 00:00:00 | |
| IW2NTF | 2026-09-01 10:47:49 | 44.55661 | 8.16963 | 89° | 86km/h | 11046m | 3.5m/s | -49.9°C | 20.8% | 0hPa | 2.8V | 08:30:00 | 01:11:06 | 00:00:00 | |
| IW2NTF | 2026-09-01 10:47:39 | 44.55655 | 8.16666 | 87° | 78km/h | 11013m | 4.7m/s | -49.6°C | 21% | 0hPa | 2.9V | 08:30:00 | 01:10:56 | 00:00:00 | |
| IW2NTF | 2026-09-01 10:47:29 | 44.55642 | 8.16374 | 86° | 80km/h | 10989m | 3.3m/s | -49.4°C | 20.8% | 0hPa | 2.8V | 08:30:00 | 01:10:46 | 00:00:00 | |
| IW2NTF | 2026-09-01 10:47:21 | 44.55633 | 8.16097 | 86° | 78km/h | 10962m | 5.5m/s | -49.1°C | 18.5% | 0hPa | 2.9V | 08:30:00 | 01:10:36 | 00:00:00 | |
| IW2NTF | 2026-09-01 10:47:09 | 44.55621 | 8.15825 | 86° | 73km/h | 10897m | 4m/s | -48.8°C | 18.3% | 0hPa | 2.9V | 08:30:00 | 01:10:26 | 00:00:00 | |
| IW2NTF | 2026-09-01 10:46:57 | 44.55610 | 8.15495 | 87° | 78km/h | 10853m | 3.3m/s | -48.4°C | 18.7% | 0hPa | 2.9V | 08:30:00 | 01:10:14 | 00:00:00 | |
| IW2NTF | 2026-09-01 10:46:47 | 44.55601 | 8.15230 | 83° | 73km/h | 10817m | 3.1m/s | -48.2°C | 17.7% | 0hPa | 2.8V | 08:30:00 | 01:10:04 | 00:00:00 | |
| IW2NTF | 2026-09-01 10:46:37 | 44.55597 | 8.14960 | 88° | 78km/h | 10782m | 4.3m/s | -47.7°C | 17.7% | 0hPa | 2.9V | 08:30:00 | 01:09:54 | 00:00:00 | |
| IW2NTF | 2026-09-01 10:46:27 | 44.55588 | 8.14697 | 90° | 77km/h | 10747m | 2.9m/s | -47.5°C | 17.2% | 0hPa | 2.8V | 08:30:00 | 01:09:44 | 00:00:00 | |
| IW2NTF | 2026-09-01 10:46:17 | 44.55585 | 8.14440 | 86° | 68km/h | 10710m | 3.6m/s | -47.1°C | 16.7% | 0hPa | 2.9V | 08:30:00 | 01:09:34 | 00:00:00 | |
| IW2NTF | 2026-09-01 10:46:07 | 44.55582 | 8.14183 | 90° | 71km/h | 10674m | 4m/s | -46.9°C | 16.4% | 0hPa | 2.8V | 08:30:00 | 01:09:24 | 00:00:00 | |
| IW2NTF | 2026-09-01 10:45:57 | 44.55583 | 8.13925 | 90° | 73km/h | 10637m | 4.5m/s | -46.5°C | 16.1% | 0hPa | 2.8V | 08:30:00 | 01:09:14 | 00:00:00 | |
| IW2NTF | 2026-09-01 10:45:47 | 44.55590 | 8.13664 | 90° | 73km/h | 10600m | 4.4m/s | -46.2°C | 15.7% | 0hPa | 2.9V | 08:30:00 | 01:09:04 | 00:00:00 | |
| IW2NTF | 2026-09-01 10:45:41 | 44.55589 | 8.13406 | 94° | 73km/h | 10563m | 4.7m/s | -45.9°C | 15.1% | 0hPa | 2.9V | 08:30:00 | 01:08:54 | 00:00:00 | |
| IW2NTF | 2026-09-01 10:45:27 | 44.55592 | 8.13149 | 89° | 71km/h | 10527m | 3.4m/s | -45.5°C | 14.9% | 0hPa | 2.9V | 08:30:00 | 01:08:44 | 00:00:00 | |
| IW2NTF | 2026-09-01 10:45:17 | 44.55597 | 8.12890 | 91° | 75km/h | 10490m | 4m/s | -45.2°C | 14.9% | 0hPa | 2.9V | 08:30:00 | 01:08:34 | 00:00:00 | |
| IW2NTF | 2026-09-01 10:45:07 | 44.55606 | 8.12629 | 93° | 73km/h | 10453m | 3.7m/s | -44.9°C | 13.7% | 0hPa | 2.9V | 08:30:00 | 01:08:24 | 00:00:00 | |
| IW2NTF | 2026-09-01 10:44:57 | 44.55612 | 8.12374 | 93° | 73km/h | 10415m | 3.5m/s | -44.5°C | 13.4% | 0hPa | 2.9V | 08:30:00 | 01:08:14 | 00:00:00 | |
| IW2NTF | 2026-09-01 10:44:47 | 44.55622 | 8.12117 | 91° | 73km/h | 10378m | 3.4m/s | -44.2°C | 12.6% | 0hPa | 2.8V | 08:30:00 | 01:08:04 | 00:00:00 | |
| IW2NTF | 2026-09-01 10:44:37 | 44.55633 | 8.11861 | 93° | 71km/h | 10339m | 4.5m/s | -43.9°C | 12.5% | 0hPa | 2.9V | 08:30:00 | 01:07:54 | 00:00:00 | |
| IW2NTF | 2026-09-01 10:44:28 | 44.55650 | 8.11603 | 97° | 73km/h | 10300m | 3.6m/s | -43.6°C | 12.1% | 0hPa | 2.8V | 08:30:00 | 01:07:44 | 00:00:00 | |
| IW2NTF | 2026-09-01 10:44:17 | 44.55663 | 8.11349 | 88° | 82km/h | 10260m | 3.4m/s | -43.3°C | 11.8% | 0hPa | 2.9V | 08:30:00 | 01:07:34 | 00:00:00 | |
| IW2NTF | 2026-09-01 10:44:05 | 44.55672 | 8.11042 | 102° | 71km/h | 10206m | 5.7m/s | -42.9°C | 11.5% | 0hPa | 2.8V | 08:30:00 | 01:07:22 | 00:00:00 | |
| IW2NTF | 2026-09-01 10:43:55 | 44.55689 | 8.10769 | 83° | 68km/h | 10153m | 3.7m/s | -42.4°C | 10.7% | 0hPa | 2.9V | 08:30:00 | 01:07:12 | 00:00:00 | |
| IW2NTF | 2026-09-01 10:43:47 | 44.55674 | 8.10502 | 88° | 77km/h | 10115m | 4m/s | -42°C | 10.7% | 0hPa | 2.8V | 08:30:00 | 01:07:02 | 00:00:00 | |
| IW2NTF | 2026-09-01 10:43:35 | 44.55683 | 8.10233 | 95° | 82km/h | 10073m | 4.1m/s | -41.7°C | 10% | 0hPa | 2.9V | 08:30:00 | 01:06:52 | 00:00:00 | |
| IW2NTF | 2026-09-01 10:43:25 | 44.55668 | 8.09952 | 84° | 80km/h | 10036m | 4.7m/s | -41.5°C | 9.9% | 0hPa | 2.8V | 08:30:00 | 01:06:42 | 00:00:00 | |
| IW2NTF | 2026-09-01 10:43:15 | 44.55655 | 8.09673 | 84° | 80km/h | 9998m | 4.2m/s | -41.3°C | 9.6% | 0hPa | 2.9V | 08:30:00 | 01:06:32 | 00:00:00 | |
| IW2NTF | 2026-09-01 10:43:05 | 44.55632 | 8.09376 | 85° | 78km/h | 9965m | 3.5m/s | -41°C | 9.3% | 0hPa | 2.9V | 08:30:00 | 01:06:22 | 00:00:00 | |
| IW2NTF | 2026-09-01 10:42:53 | 44.55613 | 8.09026 | 85° | 86km/h | 9925m | 3.2m/s | -40.7°C | 9.1% | 0hPa | 2.9V | 08:30:00 | 01:06:10 | 00:00:00 | |
| IW2NTF | 2026-09-01 10:42:43 | 44.55597 | 8.08729 | 82° | 86km/h | 9892m | 3.4m/s | -40.5°C | 8.9% | 0hPa | 2.9V | 08:30:00 | 01:06:00 | 00:00:00 | |
| IW2NTF | 2026-09-01 10:42:33 | 44.55585 | 8.08425 | 87° | 89km/h | 9857m | 3.6m/s | -40.4°C | 8.8% | 0hPa | 2.8V | 08:30:00 | 01:05:50 | 00:00:00 | |
| IW2NTF | 2026-09-01 10:42:23 | 44.55564 | 8.08123 | 86° | 84km/h | 9823m | 3.7m/s | -40.1°C | 8.5% | 0hPa | 2.9V | 08:30:00 | 01:05:40 | 00:00:00 | |
| IW2NTF | 2026-09-01 10:42:14 | 44.55554 | 8.07808 | 85° | 88km/h | 9789m | 3.4m/s | -39.8°C | 8.5% | 0hPa | 2.9V | 08:30:00 | 01:05:30 | 00:00:00 | |
| IW2NTF | 2026-09-01 10:42:04 | 44.55536 | 8.07496 | 88° | 91km/h | 9752m | 4m/s | -39.7°C | 8.5% | 0hPa | 2.9V | 08:30:00 | 01:05:20 | 00:00:00 | |
| IW2NTF | 2026-09-01 10:41:53 | 44.55517 | 8.07173 | 84° | 89km/h | 9716m | 3.6m/s | -39.4°C | 8.1% | 0hPa | 2.9V | 08:30:00 | 01:05:10 | 00:00:00 | |
| IW2NTF | 2026-09-01 10:41:43 | 44.55491 | 8.06840 | 82° | 97km/h | 9678m | 3.6m/s | -39.1°C | 8.2% | 0hPa | 2.8V | 08:30:00 | 01:05:00 | 00:00:00 | |
| IW2NTF | 2026-09-01 10:41:31 | 44.55454 | 8.06443 | 83° | 97km/h | 9638m | 3.2m/s | -38.9°C | 8.1% | 0hPa | 2.9V | 08:30:00 | 01:04:48 | 00:00:00 | |
| IW2NTF | 2026-09-01 10:41:21 | 44.55426 | 8.06115 | 84° | 95km/h | 9605m | 3.4m/s | -38.7°C | 8.3% | 0hPa | 2.9V | 08:30:00 | 01:04:38 | 00:00:00 | |
| IW2NTF | 2026-09-01 10:41:11 | 44.55401 | 8.05782 | 84° | 93km/h | 9574m | 3.2m/s | -38.6°C | 8.3% | 0hPa | 2.8V | 08:30:00 | 01:04:28 | 00:00:00 | |
| IW2NTF | 2026-09-01 10:41:01 | 44.55382 | 8.05446 | 85° | 93km/h | 9541m | 3.1m/s | -38.4°C | 8.2% | 0hPa | 2.8V | 08:30:00 | 01:04:18 | 00:00:00 | |
| IW2NTF | 2026-09-01 10:40:51 | 44.55366 | 8.05115 | 86° | 91km/h | 9509m | 3.1m/s | -38.2°C | 8.7% | 0hPa | 2.9V | 08:30:00 | 01:04:08 | 00:00:00 | |
| IW2NTF | 2026-09-01 10:40:41 | 44.55346 | 8.04793 | 85° | 91km/h | 9477m | 2.8m/s | -38°C | 9.2% | 0hPa | 2.9V | 08:30:00 | 01:03:58 | 00:00:00 | |
| IW2NTF | 2026-09-01 10:40:32 | 44.55333 | 8.04459 | 84° | 93km/h | 9444m | 3m/s | -37.8°C | 10.5% | 0hPa | 2.9V | 08:30:00 | 01:03:48 | 00:00:00 | |
| IW2NTF | 2026-09-01 10:40:21 | 44.55320 | 8.04124 | 86° | 99km/h | 9412m | 3.5m/s | -37.4°C | 12.5% | 0hPa | 2.9V | 08:30:00 | 01:03:38 | 00:00:00 | |
| IW2NTF | 2026-09-01 10:40:11 | 44.55306 | 8.03787 | 87° | 97km/h | 9381m | 3.7m/s | -37.3°C | 15.2% | 0hPa | 2.9V | 08:30:00 | 01:03:28 | 00:00:00 | |
| IW2NTF | 2026-09-01 10:40:01 | 44.55287 | 8.03428 | 86° | 100km/h | 9350m | 3.5m/s | -37.2°C | 19.9% | 0hPa | 2.9V | 08:30:00 | 01:03:18 | 00:00:00 | |
| IW2NTF | 2026-09-01 10:39:51 | 44.55273 | 8.03069 | 86° | 102km/h | 9316m | 4.1m/s | -37°C | 22% | 0hPa | 2.9V | 08:30:00 | 01:03:08 | 00:00:00 | |
| IW2NTF | 2026-09-01 10:39:41 | 44.55257 | 8.02708 | 85° | 104km/h | 9284m | 2.7m/s | -36.7°C | 24.9% | 0hPa | 2.9V | 08:30:00 | 01:02:58 | 00:00:00 | |
| IW2NTF | 2026-09-01 10:39:31 | 44.55240 | 8.02347 | 86° | 100km/h | 9250m | 3.2m/s | -36.7°C | 32.8% | 0hPa | 2.8V | 08:30:00 | 01:02:48 | 00:00:00 | |
| IW2NTF | 2026-09-01 10:39:21 | 44.55221 | 8.01985 | 82° | 106km/h | 9217m | 2.6m/s | -36.5°C | 34.6% | 0hPa | 2.9V | 08:30:00 | 01:02:38 | 00:00:00 | |
| IW2NTF | 2026-09-01 10:39:12 | 44.55199 | 8.01623 | 86° | 102km/h | 9184m | 3.6m/s | -36.2°C | 36.5% | 0hPa | 2.8V | 08:30:00 | 01:02:28 | 00:00:00 | |
| IW2NTF | 2026-09-01 10:39:01 | 44.55173 | 8.01255 | 87° | 102km/h | 9149m | 3.1m/s | -36.1°C | 51.8% | 0hPa | 2.8V | 08:30:00 | 01:02:18 | 00:00:00 | |
| IW2NTF | 2026-09-01 10:38:51 | 44.55153 | 8.00889 | 83° | 104km/h | 9115m | 3.6m/s | -36°C | 55.7% | 0hPa | 2.9V | 08:30:00 | 01:02:08 | 00:00:00 | |
| IW2NTF | 2026-09-01 10:38:42 | 44.55130 | 8.00521 | 84° | 102km/h | 9079m | 4.1m/s | -35.7°C | 54.8% | 0hPa | 2.8V | 08:30:00 | 01:01:58 | 00:00:00 | |
| IW2NTF | 2026-09-01 10:38:31 | 44.55109 | 8.00155 | 84° | 104km/h | 9043m | 3.6m/s | -35.3°C | 53% | 0hPa | 2.8V | 08:30:00 | 01:01:48 | 00:00:00 | |
| IW2NTF | 2026-09-01 10:38:22 | 44.55084 | 7.99798 | 86° | 104km/h | 9008m | 3.9m/s | -35.1°C | 52.4% | 0hPa | 2.9V | 08:30:00 | 01:01:38 | 00:00:00 | |
| IW2NTF | 2026-09-01 10:38:11 | 44.55063 | 7.99435 | 85° | 100km/h | 8971m | 3.2m/s | -34.8°C | 57.1% | 0hPa | 2.9V | 08:30:00 | 01:01:28 | 00:00:00 | |
| IW2NTF | 2026-09-01 10:38:01 | 44.55042 | 7.99073 | 84° | 102km/h | 8933m | 3.9m/s | -34.7°C | 65.9% | 0hPa | 2.9V | 08:30:00 | 01:01:18 | 00:00:00 | |
| IW2NTF | 2026-09-01 10:37:51 | 44.55016 | 7.98714 | 82° | 106km/h | 8895m | 3.3m/s | -34.4°C | 77.2% | 0hPa | 2.8V | 08:30:00 | 01:01:08 | 00:00:00 | |
| IW2NTF | 2026-09-01 10:37:41 | 44.54988 | 7.98354 | 83° | 100km/h | 8861m | 3.5m/s | -34°C | 77.7% | 0hPa | 2.9V | 08:30:00 | 01:00:58 | 00:00:00 | |
| IW2NTF | 2026-09-01 10:37:31 | 44.54960 | 7.97991 | 84° | 100km/h | 8824m | 3.2m/s | -33.7°C | 76.2% | 0hPa | 2.8V | 08:30:00 | 01:00:48 | 00:00:00 | |
| IW2NTF | 2026-09-01 10:37:21 | 44.54932 | 7.97629 | 82° | 106km/h | 8788m | 3.9m/s | -33.4°C | 74.4% | 0hPa | 2.9V | 08:30:00 | 01:00:38 | 00:00:00 | |
| IW2NTF | 2026-09-01 10:37:13 | 44.54904 | 7.97271 | 83° | 102km/h | 8753m | 3.3m/s | -33°C | 72.8% | 0hPa | 2.9V | 08:30:00 | 01:00:28 | 00:00:00 | |
| IW2NTF | 2026-09-01 10:37:01 | 44.54876 | 7.96912 | 85° | 102km/h | 8717m | 3.4m/s | -32.7°C | 70.8% | 0hPa | 2.9V | 08:30:00 | 01:00:18 | 00:00:00 | |
| IW2NTF | 2026-09-01 10:36:51 | 44.54847 | 7.96561 | 84° | 99km/h | 8681m | 3.8m/s | -32.4°C | 69.9% | 0hPa | 2.9V | 08:30:00 | 01:00:08 | 00:00:00 | |
| IW2NTF | 2026-09-01 10:36:41 | 44.54821 | 7.96197 | 83° | 106km/h | 8647m | 3.8m/s | -32°C | 68.1% | 0hPa | 2.9V | 08:30:00 | 00:59:58 | 00:00:00 | |
| IW2NTF | 2026-09-01 10:36:31 | 44.54794 | 7.95833 | 84° | 106km/h | 8611m | 3.6m/s | -31.8°C | 63.2% | 0hPa | 2.9V | 08:30:00 | 00:59:48 | 00:00:00 | |
| IW2NTF | 2026-09-01 10:36:21 | 44.54773 | 7.95469 | 84° | 99km/h | 8576m | 3.9m/s | -31.5°C | 54.9% | 0hPa | 2.9V | 08:30:00 | 00:59:38 | 00:00:00 | |
| IW2NTF | 2026-09-01 10:36:11 | 44.54757 | 7.95118 | 87° | 102km/h | 8540m | 3.2m/s | -31.2°C | 50% | 0hPa | 2.9V | 08:30:00 | 00:59:28 | 00:00:00 | |
| IW2NTF | 2026-09-01 10:36:01 | 44.54739 | 7.94765 | 87° | 97km/h | 8505m | 4.4m/s | -30.9°C | 47.6% | 0hPa | 2.8V | 08:30:00 | 00:59:18 | 00:00:00 | |
| IW2NTF | 2026-09-01 10:35:52 | 44.54725 | 7.94427 | 86° | 97km/h | 8470m | 3.7m/s | -30.5°C | 45.8% | 0hPa | 2.9V | 08:30:00 | 00:59:08 | 00:00:00 | |
| IW2NTF | 2026-09-01 10:35:41 | 44.54709 | 7.94083 | 85° | 95km/h | 8434m | 3.1m/s | -30.2°C | 45.8% | 0hPa | 2.9V | 08:30:00 | 00:58:58 | 00:00:00 | |
| IW2NTF | 2026-09-01 10:35:31 | 44.54695 | 7.93746 | 86° | 102km/h | 8397m | 4.5m/s | -29.8°C | 44.7% | 0hPa | 2.9V | 08:30:00 | 00:58:48 | 00:00:00 | |
| IW2NTF | 2026-09-01 10:35:21 | 44.54672 | 7.93413 | 83° | 97km/h | 8358m | 4.1m/s | -29.5°C | 45.3% | 0hPa | 2.9V | 08:30:00 | 00:58:38 | 00:00:00 | |
| IW2NTF | 2026-09-01 10:35:11 | 44.54656 | 7.93075 | 85° | 91km/h | 8320m | 4.6m/s | -29.2°C | 46.4% | 0hPa | 2.9V | 08:30:00 | 00:58:28 | 00:00:00 | |
| IW2NTF | 2026-09-01 10:35:01 | 44.54637 | 7.92762 | 83° | 89km/h | 8283m | 3.3m/s | -28.9°C | 45.1% | 0hPa | 2.8V | 08:30:00 | 00:58:18 | 00:00:00 | |
| IW2NTF | 2026-09-01 10:34:51 | 44.54617 | 7.92441 | 84° | 89km/h | 8246m | 3.5m/s | -28.5°C | 45% | 0hPa | 2.9V | 08:30:00 | 00:58:08 | 00:00:00 | |
| IW2NTF | 2026-09-01 10:34:41 | 44.54599 | 7.92128 | 84° | 89km/h | 8209m | 3m/s | -28.2°C | 46% | 0hPa | 2.9V | 08:30:00 | 00:57:58 | 00:00:00 | |
| IW2NTF | 2026-09-01 10:34:31 | 44.54584 | 7.91815 | 84° | 88km/h | 8173m | 3.6m/s | -27.9°C | 45.8% | 0hPa | 2.9V | 08:30:00 | 00:57:48 | 00:00:00 | |
| IW2NTF | 2026-09-01 10:34:23 | 44.54564 | 7.91509 | 86° | 86km/h | 8138m | 4.2m/s | -27.6°C | 45.8% | 0hPa | 2.9V | 08:30:00 | 00:57:38 | 00:00:00 | |
| IW2NTF | 2026-09-01 10:34:11 | 44.54544 | 7.91200 | 85° | 86km/h | 8104m | 3m/s | -27.4°C | 47.4% | 0hPa | 2.9V | 08:30:00 | 00:57:28 | 00:00:00 | |
| IW2NTF | 2026-09-01 10:34:01 | 44.54519 | 7.90896 | 85° | 86km/h | 8068m | 4.4m/s | -27.2°C | 52.3% | 0hPa | 2.9V | 08:30:00 | 00:57:18 | 00:00:00 | |
| IW2NTF | 2026-09-01 10:33:51 | 44.54495 | 7.90596 | 83° | 82km/h | 8034m | 3.8m/s | -26.9°C | 57.1% | 0hPa | 2.9V | 08:30:00 | 00:57:08 | 00:00:00 | |
| IW2NTF | 2026-09-01 10:33:41 | 44.54477 | 7.90302 | 82° | 82km/h | 8000m | 2.7m/s | -26.6°C | 57.2% | 0hPa | 2.9V | 08:30:00 | 00:56:58 | 00:00:00 | |
| IW2NTF | 2026-09-01 10:33:31 | 44.54455 | 7.90011 | 84° | 82km/h | 7966m | 2.9m/s | -26.3°C | 56.6% | 0hPa | 2.8V | 08:30:00 | 00:56:48 | 00:00:00 | |
| IW2NTF | 2026-09-01 10:33:22 | 44.54436 | 7.89718 | 83° | 84km/h | 7932m | 3.4m/s | -26°C | 57.1% | 0hPa | 2.9V | 08:30:00 | 00:56:38 | 00:00:00 | |
| IW2NTF | 2026-09-01 10:33:11 | 44.54422 | 7.89426 | 86° | 80km/h | 7898m | 3.5m/s | -25.7°C | 57.4% | 0hPa | 2.9V | 08:30:00 | 00:56:28 | 00:00:00 | |
| IW2NTF | 2026-09-01 10:33:01 | 44.54402 | 7.89136 | 86° | 80km/h | 7865m | 3.5m/s | -25.4°C | 55.8% | 0hPa | 2.9V | 08:30:00 | 00:56:18 | 00:00:00 | |
| IW2NTF | 2026-09-01 10:32:51 | 44.54385 | 7.88858 | 84° | 82km/h | 7829m | 3.6m/s | -25.1°C | 56.1% | 0hPa | 2.9V | 08:30:00 | 00:56:08 | 00:00:00 | |
| IW2NTF | 2026-09-01 10:32:41 | 44.54361 | 7.88568 | 82° | 77km/h | 7793m | 3.3m/s | -24.8°C | 54.9% | 0hPa | 2.9V | 08:30:00 | 00:55:58 | 00:00:00 | |
| IW2NTF | 2026-09-01 10:32:31 | 44.54340 | 7.88290 | 81° | 80km/h | 7758m | 3.5m/s | -24.4°C | 46.1% | 0hPa | 2.9V | 08:30:00 | 00:55:48 | 00:00:00 | |
| IW2NTF | 2026-09-01 10:32:21 | 44.54310 | 7.88003 | 81° | 82km/h | 7727m | 3.8m/s | -24.1°C | 48.3% | 0hPa | 2.9V | 08:30:00 | 00:55:38 | 00:00:00 | |
| IW2NTF | 2026-09-01 10:32:12 | 44.54288 | 7.87729 | 81° | 82km/h | 7693m | 2.6m/s | -23.8°C | 42.3% | 0hPa | 2.9V | 08:30:00 | 00:55:28 | 00:00:00 | |
| IW2NTF | 2026-09-01 10:32:02 | 44.54263 | 7.87450 | 84° | 77km/h | 7660m | 2.6m/s | -23.5°C | 47.9% | 0hPa | 2.9V | 08:30:00 | 00:55:18 | 00:00:00 | |
| IW2NTF | 2026-09-01 10:31:51 | 44.54235 | 7.87173 | 84° | 80km/h | 7627m | 3.1m/s | -23.3°C | 58.2% | 0hPa | 2.9V | 08:30:00 | 00:55:08 | 00:00:00 | |
| IW2NTF | 2026-09-01 10:31:44 | 44.54208 | 7.86893 | 81° | 78km/h | 7594m | 3.3m/s | -23°C | 50.4% | 0hPa | 2.9V | 08:30:00 | 00:54:58 | 00:00:00 | |
| IW2NTF | 2026-09-01 10:31:31 | 44.54180 | 7.86610 | 80° | 80km/h | 7561m | 3.3m/s | -22.7°C | 39% | 0hPa | 2.9V | 08:30:00 | 00:54:48 | 00:00:00 | |
| IW2NTF | 2026-09-01 10:31:21 | 44.54152 | 7.86331 | 81° | 80km/h | 7527m | 3.4m/s | -22.5°C | 40.9% | 0hPa | 2.9V | 08:30:00 | 00:54:38 | 00:00:00 | |
| IW2NTF | 2026-09-01 10:31:11 | 44.54115 | 7.86051 | 81° | 78km/h | 7493m | 3.9m/s | -22.4°C | 57% | 0hPa | 3V | 08:30:00 | 00:54:28 | 00:00:00 | |
| IW2NTF | 2026-09-01 10:31:01 | 44.54086 | 7.85769 | 78° | 82km/h | 7461m | 3m/s | -22.4°C | 60.7% | 0hPa | 3V | 08:30:00 | 00:54:18 | 00:00:00 | |
| IW2NTF | 2026-09-01 10:30:51 | 44.54053 | 7.85492 | 81° | 80km/h | 7429m | 3.4m/s | -22.1°C | 59.5% | 0hPa | 3V | 08:30:00 | 00:54:08 | 00:00:00 | |
| IW2NTF | 2026-09-01 10:30:42 | 44.54026 | 7.85220 | 85° | 78km/h | 7396m | 2.7m/s | -21.8°C | 59% | 0hPa | 2.9V | 08:30:00 | 00:53:58 | 00:00:00 | |
| IW2NTF | 2026-09-01 10:30:31 | 44.54008 | 7.84945 | 83° | 77km/h | 7365m | 3.6m/s | -21.5°C | 59.5% | 0hPa | 2.9V | 08:30:00 | 00:53:48 | 00:00:00 | |
| IW2NTF | 2026-09-01 10:30:21 | 44.53984 | 7.84666 | 84° | 78km/h | 7333m | 3.2m/s | -21.2°C | 56.1% | 0hPa | 3V | 08:30:00 | 00:53:38 | 00:00:00 | |
| IW2NTF | 2026-09-01 10:30:09 | 44.53956 | 7.84337 | 83° | 80km/h | 7294m | 3.9m/s | -21°C | 50.4% | 0hPa | 3V | 08:30:00 | 00:53:26 | 00:00:00 | |
| IW2NTF | 2026-09-01 10:29:59 | 44.53932 | 7.84061 | 84° | 80km/h | 7261m | 3.3m/s | -20.7°C | 46.3% | 0hPa | 3V | 08:30:00 | 00:53:16 | 00:00:00 | |
| IW2NTF | 2026-09-01 10:29:48 | 44.53914 | 7.83761 | 85° | 77km/h | 7226m | 2.5m/s | -20.4°C | 47.1% | 0hPa | 3V | 08:30:00 | 00:53:05 | 00:00:00 | |
| IW2NTF | 2026-09-01 10:29:38 | 44.53898 | 7.83485 | 86° | 77km/h | 7196m | 3.6m/s | -20.1°C | 49.4% | 0hPa | 3V | 08:30:00 | 00:52:55 | 00:00:00 | |
| IW2NTF | 2026-09-01 10:29:28 | 44.53889 | 7.83216 | 88° | 73km/h | 7163m | 4.2m/s | -19.9°C | 46.3% | 0hPa | 3V | 08:30:00 | 00:52:45 | 00:00:00 | |
| IW2NTF | 2026-09-01 10:29:18 | 44.53880 | 7.82941 | 88° | 77km/h | 7131m | 3.4m/s | -19.6°C | 39% | 0hPa | 3V | 08:30:00 | 00:52:35 | 00:00:00 | |
| IW2NTF | 2026-09-01 10:29:08 | 44.53872 | 7.82671 | 88° | 80km/h | 7098m | 2.9m/s | -19.3°C | 39.8% | 0hPa | 3V | 08:30:00 | 00:52:25 | 00:00:00 | |
| IW2NTF | 2026-09-01 10:28:58 | 44.53864 | 7.82392 | 88° | 75km/h | 7065m | 3m/s | -19.1°C | 33.6% | 0hPa | 3V | 08:30:00 | 00:52:15 | 00:00:00 | |
| IW2NTF | 2026-09-01 10:28:48 | 44.53856 | 7.82119 | 87° | 77km/h | 7033m | 3m/s | -18.9°C | 31.3% | 0hPa | 3V | 08:30:00 | 00:52:05 | 00:00:00 | |
| IW2NTF | 2026-09-01 10:28:38 | 44.53844 | 7.81849 | 85° | 78km/h | 7001m | 3.5m/s | -18.8°C | 36.6% | 0hPa | 3V | 08:30:00 | 00:51:55 | 00:00:00 | |
| IW2NTF | 2026-09-01 10:28:28 | 44.53829 | 7.81582 | 87° | 75km/h | 6970m | 2.6m/s | -18.6°C | 29.4% | 0hPa | 3V | 08:30:00 | 00:51:45 | 00:00:00 | |
| IW2NTF | 2026-09-01 10:28:18 | 44.53816 | 7.81314 | 87° | 75km/h | 6939m | 3.2m/s | -18.5°C | 28.5% | 0hPa | 3V | 08:30:00 | 00:51:35 | 00:00:00 | |
| IW2NTF | 2026-09-01 10:28:09 | 44.53807 | 7.81050 | 86° | 77km/h | 6908m | 3.2m/s | -18.3°C | 38.2% | 0hPa | 3V | 08:30:00 | 00:51:25 | 00:00:00 | |
| IW2NTF | 2026-09-01 10:27:57 | 44.53795 | 7.80764 | 84° | 75km/h | 6874m | 2.9m/s | -18.1°C | 46.9% | 0hPa | 3V | 08:30:00 | 00:51:14 | 00:00:00 | |
| IW2NTF | 2026-09-01 10:27:47 | 44.53780 | 7.80505 | 86° | 71km/h | 6842m | 3.8m/s | -18°C | 50.1% | 0hPa | 3V | 08:30:00 | 00:51:04 | 00:00:00 | |
| IW2NTF | 2026-09-01 10:27:37 | 44.53772 | 7.80262 | 84° | 68km/h | 6812m | 2.3m/s | -17.8°C | 52.3% | 0hPa | 3V | 08:30:00 | 00:50:54 | 00:00:00 | |
| IW2NTF | 2026-09-01 10:27:27 | 44.53756 | 7.80011 | 87° | 68km/h | 6780m | 2.9m/s | -17.6°C | 54% | 0hPa | 2.9V | 08:30:00 | 00:50:44 | 00:00:00 | |
| IW2NTF | 2026-09-01 10:27:17 | 44.53741 | 7.79764 | 85° | 69km/h | 6748m | 3.9m/s | -17.4°C | 54.7% | 0hPa | 3V | 08:30:00 | 00:50:34 | 00:00:00 | |
| IW2NTF | 2026-09-01 10:27:08 | 44.53733 | 7.79521 | 86° | 71km/h | 6715m | 3.5m/s | -17.2°C | 49.4% | 0hPa | 3V | 08:30:00 | 00:50:24 | 00:00:00 | |
| IW2NTF | 2026-09-01 10:26:55 | 44.53719 | 7.79220 | 87° | 69km/h | 6676m | 3.8m/s | -16.9°C | 48.4% | 0hPa | 3V | 08:30:00 | 00:50:12 | 00:00:00 | |
| IW2NTF | 2026-09-01 10:26:45 | 44.53709 | 7.78970 | 88° | 69km/h | 6646m | 3.2m/s | -16.7°C | 49.5% | 0hPa | 3V | 08:30:00 | 00:50:02 | 00:00:00 | |
| IW2NTF | 2026-09-01 10:26:35 | 44.53690 | 7.78724 | 84° | 71km/h | 6614m | 2.8m/s | -16.5°C | 53.7% | 0hPa | 3V | 08:30:00 | 00:49:52 | 00:00:00 | |
| IW2NTF | 2026-09-01 10:26:25 | 44.53675 | 7.78484 | 83° | 69km/h | 6582m | 3.4m/s | -16.3°C | 60.3% | 0hPa | 3V | 08:30:00 | 00:49:42 | 00:00:00 | |
| IW2NTF | 2026-09-01 10:26:16 | 44.53663 | 7.78248 | 86° | 68km/h | 6551m | 3.8m/s | -16°C | 61.3% | 0hPa | 3V | 08:30:00 | 00:49:32 | 00:00:00 | |
| IW2NTF | 2026-09-01 10:26:05 | 44.53648 | 7.78012 | 87° | 66km/h | 6518m | 3.8m/s | -15.7°C | 59.6% | 0hPa | 3V | 08:30:00 | 00:49:22 | 00:00:00 | |
| IW2NTF | 2026-09-01 10:25:55 | 44.53636 | 7.77782 | 84° | 64km/h | 6486m | 3m/s | -15.4°C | 58.3% | 0hPa | 3V | 08:30:00 | 00:49:12 | 00:00:00 | |
| IW2NTF | 2026-09-01 10:25:45 | 44.53622 | 7.77548 | 86° | 66km/h | 6454m | 3.7m/s | -15.1°C | 55.4% | 0hPa | 3V | 08:30:00 | 00:49:02 | 00:00:00 | |
| IW2NTF | 2026-09-01 10:25:35 | 44.53609 | 7.77316 | 81° | 66km/h | 6422m | 3.5m/s | -14.8°C | 42.6% | 0hPa | 3V | 08:30:00 | 00:48:52 | 00:00:00 | |
| IW2NTF | 2026-09-01 10:25:25 | 44.53593 | 7.77086 | 86° | 68km/h | 6391m | 3m/s | -14.6°C | 42.5% | 0hPa | 3V | 08:30:00 | 00:48:42 | 00:00:00 | |
| IW2NTF | 2026-09-01 10:25:15 | 44.53585 | 7.76848 | 87° | 68km/h | 6358m | 3m/s | -14.3°C | 37.2% | 0hPa | 3V | 08:30:00 | 00:48:32 | 00:00:00 | |
| IW2NTF | 2026-09-01 10:25:05 | 44.53574 | 7.76604 | 87° | 71km/h | 6326m | 3.6m/s | -14.1°C | 34% | 0hPa | 3V | 08:30:00 | 00:48:22 | 00:00:00 | |
| IW2NTF | 2026-09-01 10:24:55 | 44.53566 | 7.76364 | 88° | 69km/h | 6293m | 3.3m/s | -13.9°C | 24.4% | 0hPa | 3V | 08:30:00 | 00:48:12 | 00:00:00 | |
| IW2NTF | 2026-09-01 10:24:45 | 44.53555 | 7.76115 | 85° | 69km/h | 6261m | 4m/s | -13.8°C | 39.9% | 0hPa | 3V | 08:30:00 | 00:48:02 | 00:00:00 | |
| IW2NTF | 2026-09-01 10:24:35 | 44.53545 | 7.75872 | 84° | 69km/h | 6226m | 4m/s | -13.7°C | 45.9% | 0hPa | 3V | 08:30:00 | 00:47:52 | 00:00:00 | |
| IW2NTF | 2026-09-01 10:24:25 | 44.53531 | 7.75625 | 88° | 71km/h | 6190m | 3.7m/s | -13.4°C | 48.5% | 0hPa | 3V | 08:30:00 | 00:47:42 | 00:00:00 | |
| IW2NTF | 2026-09-01 10:24:15 | 44.53518 | 7.75380 | 85° | 68km/h | 6157m | 4m/s | -13.2°C | 41.2% | 0hPa | 3V | 08:30:00 | 00:47:32 | 00:00:00 | |
| IW2NTF | 2026-09-01 10:24:05 | 44.53506 | 7.75139 | 87° | 68km/h | 6123m | 2.8m/s | -12.9°C | 38.9% | 0hPa | 3V | 08:30:00 | 00:47:22 | 00:00:00 | |
| IW2NTF | 2026-09-01 10:23:55 | 44.53499 | 7.74898 | 88° | 69km/h | 6091m | 3.9m/s | -12.7°C | 31.4% | 0hPa | 3V | 08:30:00 | 00:47:12 | 00:00:00 | |
| IW2NTF | 2026-09-01 10:23:45 | 44.53490 | 7.74657 | 85° | 64km/h | 6057m | 3.2m/s | -12.4°C | 26.6% | 0hPa | 3V | 08:30:00 | 00:47:02 | 00:00:00 | |
| IW2NTF | 2026-09-01 10:23:35 | 44.53484 | 7.74414 | 87° | 69km/h | 6024m | 4m/s | -12.3°C | 29.4% | 0hPa | 3V | 08:30:00 | 00:46:52 | 00:00:00 | |
| IW2NTF | 2026-09-01 10:23:25 | 44.53480 | 7.74172 | 91° | 69km/h | 5989m | 4.2m/s | -12°C | 39.5% | 0hPa | 3V | 08:30:00 | 00:46:42 | 00:00:00 | |
| IW2NTF | 2026-09-01 10:23:15 | 44.53477 | 7.73925 | 89° | 68km/h | 5955m | 3.9m/s | -11.8°C | 40.2% | 0hPa | 3V | 08:30:00 | 00:46:32 | 00:00:00 | |
| IW2NTF | 2026-09-01 10:23:02 | 44.53483 | 7.73618 | 91° | 68km/h | 5909m | 4m/s | -11.4°C | 35.7% | 0hPa | 3V | 08:30:00 | 00:46:19 | 00:00:00 | |
| IW2NTF | 2026-09-01 10:22:52 | 44.53488 | 7.73380 | 91° | 66km/h | 5875m | 4.3m/s | -11.1°C | 36.9% | 0hPa | 3V | 08:30:00 | 00:46:09 | 00:00:00 | |
| IW2NTF | 2026-09-01 10:22:42 | 44.53498 | 7.73149 | 91° | 66km/h | 5839m | 4.1m/s | -10.8°C | 37.2% | 0hPa | 3V | 08:30:00 | 00:45:59 | 00:00:00 | |
| IW2NTF | 2026-09-01 10:22:32 | 44.53506 | 7.72926 | 95° | 64km/h | 5807m | 2.9m/s | -10.5°C | 39.3% | 0hPa | 3V | 08:30:00 | 00:45:49 | 00:00:00 | |
| IW2NTF | 2026-09-01 10:22:22 | 44.53515 | 7.72703 | 92° | 64km/h | 5772m | 3.4m/s | -10.3°C | 43.2% | 0hPa | 3V | 08:30:00 | 00:45:39 | 00:00:00 | |
| IW2NTF | 2026-09-01 10:22:12 | 44.53523 | 7.72483 | 93° | 62km/h | 5739m | 4.1m/s | -10°C | 39.7% | 0hPa | 3V | 08:30:00 | 00:45:29 | 00:00:00 | |
| IW2NTF | 2026-09-01 10:22:02 | 44.53533 | 7.72268 | 93° | 58km/h | 5705m | 3.8m/s | -9.8°C | 40.1% | 0hPa | 3V | 08:30:00 | 00:45:19 | 00:00:00 | |
| IW2NTF | 2026-09-01 10:21:51 | 44.53543 | 7.72040 | 94° | 60km/h | 5668m | 3.3m/s | -9.4°C | 31.5% | 0hPa | 3V | 08:30:00 | 00:45:08 | 00:00:00 | |
| IW2NTF | 2026-09-01 10:21:40 | 44.53552 | 7.71814 | 91° | 60km/h | 5632m | 3.6m/s | -9.1°C | 23.3% | 0hPa | 3V | 08:30:00 | 00:44:57 | 00:00:00 | |
| IW2NTF | 2026-09-01 10:21:30 | 44.53558 | 7.71599 | 90° | 57km/h | 5599m | 3.5m/s | -8.9°C | 26% | 0hPa | 3V | 08:30:00 | 00:44:47 | 00:00:00 | |
| IW2NTF | 2026-09-01 10:21:20 | 44.53565 | 7.71392 | 96° | 60km/h | 5567m | 3.8m/s | -8.6°C | 16.2% | 0hPa | 3V | 08:30:00 | 00:44:37 | 00:00:00 | |
| IW2NTF | 2026-09-01 10:21:10 | 44.53576 | 7.71187 | 94° | 57km/h | 5533m | 3.7m/s | -8.5°C | 20.3% | 0hPa | 3V | 08:30:00 | 00:44:27 | 00:00:00 | |
| IW2NTF | 2026-09-01 10:21:00 | 44.53585 | 7.70985 | 94° | 57km/h | 5500m | 3.2m/s | -8.3°C | 12.9% | 0hPa | 3V | 08:30:00 | 00:44:17 | 00:00:00 | |
| IW2NTF | 2026-09-01 10:20:50 | 44.53588 | 7.70789 | 90° | 58km/h | 5465m | 4.2m/s | -8.1°C | 18% | 0hPa | 3V | 08:30:00 | 00:44:07 | 00:00:00 | |
| IW2NTF | 2026-09-01 10:20:40 | 44.53591 | 7.70602 | 95° | 51km/h | 5431m | 3.9m/s | -7.8°C | 17.3% | 0hPa | 3V | 08:30:00 | 00:43:57 | 00:00:00 | |
| IW2NTF | 2026-09-01 10:20:30 | 44.53595 | 7.70416 | 91° | 49km/h | 5399m | 3.4m/s | -7.5°C | 17.1% | 0hPa | 3V | 08:30:00 | 00:43:47 | 00:00:00 | |
| IW2NTF | 2026-09-01 10:20:22 | 44.53602 | 7.70238 | 93° | 51km/h | 5364m | 4.4m/s | -7.3°C | 17.2% | 0hPa | 3V | 08:30:00 | 00:43:37 | 00:00:00 | |
| IW2NTF | 2026-09-01 10:20:10 | 44.53611 | 7.70055 | 92° | 51km/h | 5331m | 3.1m/s | -7°C | 15.7% | 0hPa | 3V | 08:30:00 | 00:43:27 | 00:00:00 | |
| IW2NTF | 2026-09-01 10:20:00 | 44.53620 | 7.69878 | 91° | 49km/h | 5298m | 2.7m/s | -6.7°C | 13.5% | 0hPa | 3V | 08:30:00 | 00:43:17 | 00:00:00 | |
| IW2NTF | 2026-09-01 10:19:45 | 44.53631 | 7.69632 | 95° | 53km/h | 5252m | 3.8m/s | -6.3°C | 9.7% | 0hPa | 3V | 08:30:00 | 00:43:03 | 00:00:00 | |
| IW2NTF | 2026-09-01 10:19:45 | 44.53633 | 7.69525 | 89° | 51km/h | 5232m | 2.5m/s | -6.2°C | 8.2% | 0hPa | 3V | 08:30:00 | 00:42:57 | 00:00:00 | |
| IW2NTF | 2026-09-01 10:19:32 | 44.53636 | 7.69348 | 88° | 51km/h | 5200m | 3.1m/s | -6°C | 6.7% | 0hPa | 3V | 08:30:00 | 00:42:47 | 00:00:00 | |
| IW2NTF | 2026-09-01 10:19:21 | 44.53635 | 7.69166 | 87° | 51km/h | 5166m | 3.1m/s | -5.7°C | 6.8% | 0hPa | 3V | 08:30:00 | 00:42:37 | 00:00:00 | |
| IW2NTF | 2026-09-01 10:19:10 | 44.53630 | 7.68981 | 88° | 51km/h | 5132m | 3.2m/s | -5.4°C | 6.6% | 0hPa | 3V | 08:30:00 | 00:42:27 | 00:00:00 | |
| IW2NTF | 2026-09-01 10:19:00 | 44.53627 | 7.68800 | 87° | 51km/h | 5101m | 2.9m/s | -5.1°C | 6.3% | 0hPa | 3V | 08:30:00 | 00:42:17 | 00:00:00 | |
| IW2NTF | 2026-09-01 10:18:50 | 44.53624 | 7.68614 | 84° | 51km/h | 5066m | 3.5m/s | -4.8°C | 6% | 0hPa | 3V | 08:30:00 | 00:42:07 | 00:00:00 | |
| IW2NTF | 2026-09-01 10:18:40 | 44.53621 | 7.68434 | 89° | 51km/h | 5033m | 3.9m/s | -4.6°C | 5.8% | 0hPa | 3V | 08:30:00 | 00:41:57 | 00:00:00 | |
| IW2NTF | 2026-09-01 10:18:30 | 44.53617 | 7.68251 | 89° | 53km/h | 4998m | 3.2m/s | -4.3°C | 5.9% | 0hPa | 3V | 08:30:00 | 00:41:47 | 00:00:00 | |
| IW2NTF | 2026-09-01 10:18:25 | 44.53613 | 7.68144 | 86° | 51km/h | 4978m | 3.2m/s | -4.1°C | 5.7% | 0hPa | 3V | 08:30:00 | 00:41:41 | 00:00:00 | |
| IW2NTF | 2026-09-01 10:18:18 | 44.53614 | 7.68035 | 92° | 53km/h | 4958m | 4.2m/s | -4°C | 5.6% | 0hPa | 3V | 08:30:00 | 00:41:35 | 00:00:00 | |
| IW2NTF | 2026-09-01 10:18:12 | 44.53614 | 7.67926 | 87° | 51km/h | 4937m | 4.3m/s | -3.8°C | 5.6% | 0hPa | 3V | 08:30:00 | 00:41:29 | 00:00:00 | |
| IW2NTF | 2026-09-01 10:18:06 | 44.53609 | 7.67814 | 88° | 53km/h | 4918m | 3.4m/s | -3.7°C | 5.5% | 0hPa | 3V | 08:30:00 | 00:41:23 | 00:00:00 | |
| IW2NTF | 2026-09-01 10:18:00 | 44.53605 | 7.67703 | 84° | 51km/h | 4897m | 3.6m/s | -3.5°C | 5.5% | 0hPa | 3V | 08:30:00 | 00:41:17 | 00:00:00 | |
| IW2NTF | 2026-09-01 10:17:54 | 44.53601 | 7.67598 | 85° | 49km/h | 4877m | 2.6m/s | -3.3°C | 8.5% | 0hPa | 3V | 08:30:00 | 00:41:11 | 00:00:00 | |
| IW2NTF | 2026-09-01 10:17:49 | 44.53595 | 7.67486 | 84° | 51km/h | 4858m | 3m/s | -3.2°C | 9.1% | 0hPa | 3V | 08:30:00 | 00:41:05 | 00:00:00 | |
| IW2NTF | 2026-09-01 10:17:37 | 44.53590 | 7.67382 | 85° | 46km/h | 4836m | 4.2m/s | -3°C | 4.6% | 0hPa | 3V | 08:30:00 | 00:40:59 | 00:00:00 | |
| IW2NTF | 2026-09-01 10:17:37 | 44.53584 | 7.67295 | 87° | 51km/h | 4819m | 3.4m/s | -2.9°C | 5% | 0hPa | 3V | 08:30:00 | 00:40:54 | 00:00:00 | |
| IW2NTF | 2026-09-01 10:17:31 | 44.53573 | 7.67188 | 82° | 51km/h | 4796m | 5.6m/s | -2.8°C | 3.7% | 0hPa | 3V | 08:30:00 | 00:40:48 | 00:00:00 | |
| IW2NTF | 2026-09-01 10:17:25 | 44.53571 | 7.67090 | 90° | 42km/h | 4772m | 5.6m/s | -2.6°C | 3.5% | 0hPa | 3V | 08:30:00 | 00:40:42 | 00:00:00 | |
| IW2NTF | 2026-09-01 10:17:19 | 44.53571 | 7.66973 | 88° | 58km/h | 4744m | 4.1m/s | -2.4°C | 3.2% | 0hPa | 3V | 08:30:00 | 00:40:36 | 00:00:00 | |
| IW2NTF | 2026-09-01 10:17:13 | 44.53572 | 7.66849 | 92° | 55km/h | 4716m | 6.4m/s | -2.2°C | 3.5% | 0hPa | 3V | 08:30:00 | 00:40:30 | 00:00:00 | |
| IW2NTF | 2026-09-01 10:17:07 | 44.53574 | 7.66735 | 86° | 51km/h | 4684m | 4.8m/s | -2.1°C | 4% | 0hPa | 3V | 08:30:00 | 00:40:24 | 00:00:00 | |
| IW2NTF | 2026-09-01 10:17:01 | 44.53577 | 7.66626 | 95° | 53km/h | 4654m | 4.8m/s | -1.8°C | 4.2% | 0hPa | 3V | 08:30:00 | 00:40:18 | 00:00:00 | |
| IW2NTF | 2026-09-01 10:16:56 | 44.53576 | 7.66508 | 82° | 53km/h | 4625m | 5.3m/s | -1.5°C | 4.7% | 0hPa | 3V | 08:30:00 | 00:40:12 | 00:00:00 | |
| IW2NTF | 2026-09-01 10:16:49 | 44.53566 | 7.66410 | 86° | 47km/h | 4595m | 6.6m/s | -1.3°C | 5.1% | 0hPa | 3V | 08:30:00 | 00:40:06 | 00:00:00 | |
| IW2NTF | 2026-09-01 10:16:43 | 44.53574 | 7.66309 | 94° | 44km/h | 4560m | 5.7m/s | -1.1°C | 5.3% | 0hPa | 3V | 08:30:00 | 00:40:00 | 00:00:00 | |
| IW2NTF | 2026-09-01 10:16:37 | 44.53572 | 7.66218 | 88° | 38km/h | 4531m | 4.2m/s | -0.8°C | 5.3% | 0hPa | 3V | 08:30:00 | 00:39:54 | 00:00:00 | |
| IW2NTF | 2026-09-01 10:16:31 | 44.53564 | 7.66136 | 82° | 40km/h | 4502m | 3.7m/s | -0.6°C | 5.9% | 0hPa | 3V | 08:30:00 | 00:39:48 | 00:00:00 | |
| IW2NTF | 2026-09-01 10:16:25 | 44.53555 | 7.66036 | 81° | 51km/h | 4473m | 6m/s | -0.4°C | 6.3% | 0hPa | 3V | 08:30:00 | 00:39:42 | 00:00:00 | |
| IW2NTF | 2026-09-01 10:16:19 | 44.53548 | 7.65939 | 91° | 42km/h | 4442m | 5.8m/s | -0.2°C | 6.8% | 0hPa | 3V | 08:30:00 | 00:39:36 | 00:00:00 | |
| IW2NTF | 2026-09-01 10:16:13 | 44.53557 | 7.65848 | 100° | 46km/h | 4411m | 3.9m/s | -0°C | 7% | 0hPa | 3V | 08:30:00 | 00:39:30 | 00:00:00 | |
| IW2NTF | 2026-09-01 10:16:07 | 44.53565 | 7.65744 | 96° | 55km/h | 4382m | 6.3m/s | 0.2°C | 6.7% | 0hPa | 3V | 08:30:00 | 00:39:24 | 00:00:00 | |
| IW2NTF | 2026-09-01 10:16:01 | 44.53573 | 7.65639 | 86° | 42km/h | 4351m | 5.8m/s | 0.4°C | 6.5% | 0hPa | 3V | 08:30:00 | 00:39:18 | 00:00:00 | |
| IW2NTF | 2026-09-01 10:15:56 | 44.53569 | 7.65555 | 89° | 40km/h | 4324m | 6.3m/s | 0.7°C | 6.4% | 0hPa | 3V | 08:30:00 | 00:39:12 | 00:00:00 | |
| IW2NTF | 2026-09-01 10:15:47 | 44.53562 | 7.65437 | 84° | 40km/h | 4283m | 3.7m/s | 1.1°C | 6.1% | 0hPa | 3V | 08:30:00 | 00:39:04 | 00:00:00 | |
| IW2NTF | 2026-09-01 10:15:41 | 44.53556 | 7.65354 | 86° | 46km/h | 4253m | 6.1m/s | 1.3°C | 6.1% | 0hPa | 3V | 08:30:00 | 00:38:58 | 00:00:00 | |
| IW2NTF | 2026-09-01 10:15:35 | 44.53560 | 7.65247 | 101° | 51km/h | 4220m | 6.7m/s | 1.5°C | 6.4% | 0hPa | 3V | 08:30:00 | 00:38:52 | 00:00:00 | |
| IW2NTF | 2026-09-01 10:15:29 | 44.53569 | 7.65152 | 83° | 42km/h | 4191m | 6.8m/s | 1.7°C | 6.5% | 0hPa | 3V | 08:30:00 | 00:38:46 | 00:00:00 | |
| IW2NTF | 2026-09-01 10:15:23 | 44.53558 | 7.65066 | 78° | 40km/h | 4162m | 5m/s | 1.9°C | 6.4% | 0hPa | 3V | 08:30:00 | 00:38:40 | 00:00:00 | |
| IW2NTF | 2026-09-01 10:15:18 | 44.53555 | 7.64964 | 91° | 51km/h | 4131m | 4.8m/s | 2.1°C | 7.1% | 0hPa | 3V | 08:30:00 | 00:38:34 | 00:00:00 | |
| IW2NTF | 2026-09-01 10:15:11 | 44.53545 | 7.64861 | 81° | 47km/h | 4103m | 5m/s | 2.4°C | 7.3% | 0hPa | 3V | 08:30:00 | 00:38:28 | 00:00:00 | |
| IW2NTF | 2026-09-01 10:15:05 | 44.53537 | 7.64761 | 81° | 49km/h | 4074m | 5m/s | 2.6°C | 7.3% | 0hPa | 3V | 08:30:00 | 00:38:22 | 00:00:00 | |
| IW2NTF | 2026-09-01 10:14:59 | 44.53529 | 7.64659 | 84° | 47km/h | 4044m | 5.2m/s | 2.8°C | 7.5% | 0hPa | 3V | 08:30:00 | 00:38:16 | 00:00:00 | |
| IW2NTF | 2026-09-01 10:14:53 | 44.53521 | 7.64557 | 90° | 47km/h | 4013m | 4.4m/s | 2.9°C | 7.5% | 0hPa | 3V | 08:30:00 | 00:38:10 | 00:00:00 | |
| IW2NTF | 2026-09-01 10:14:47 | 44.53523 | 7.64455 | 81° | 44km/h | 3984m | 4.2m/s | 3.2°C | 7.1% | 0hPa | 3V | 08:30:00 | 00:38:04 | 00:00:00 | |
| IW2NTF | 2026-09-01 10:14:41 | 44.53516 | 7.64359 | 96° | 49km/h | 3957m | 4.6m/s | 3.4°C | 6.9% | 0hPa | 3V | 08:30:00 | 00:37:58 | 00:00:00 | |
| IW2NTF | 2026-09-01 10:14:34 | 44.53523 | 7.64246 | 82° | 42km/h | 3922m | 4.1m/s | 3.7°C | 6.9% | 0hPa | 3V | 08:30:00 | 00:37:51 | 00:00:00 | |
| IW2NTF | 2026-09-01 10:14:28 | 44.53516 | 7.64148 | 85° | 47km/h | 3894m | 5.7m/s | 3.9°C | 6.8% | 0hPa | 3V | 08:30:00 | 00:37:45 | 00:00:00 | |
| IW2NTF | 2026-09-01 10:14:22 | 44.53510 | 7.64062 | 85° | 37km/h | 3866m | 4.2m/s | 4.2°C | 6.7% | 0hPa | 3V | 08:30:00 | 00:37:39 | 00:00:00 | |
| IW2NTF | 2026-09-01 10:14:16 | 44.53512 | 7.63988 | 101° | 38km/h | 3838m | 4.7m/s | 4.4°C | 6.6% | 0hPa | 3V | 08:30:00 | 00:37:33 | 00:00:00 | |
| IW2NTF | 2026-09-01 10:14:10 | 44.53522 | 7.63889 | 98° | 51km/h | 3806m | 4.8m/s | 4.7°C | 6.6% | 0hPa | 3V | 08:30:00 | 00:37:27 | 00:00:00 | |
| IW2NTF | 2026-09-01 10:14:04 | 44.53534 | 7.63794 | 99° | 42km/h | 3774m | 3.9m/s | 5°C | 6.7% | 0hPa | 3V | 08:30:00 | 00:37:21 | 00:00:00 | |
| IW2NTF | 2026-09-01 10:13:56 | 44.53548 | 7.63672 | 94° | 49km/h | 3734m | 6.5m/s | 5.2°C | 6.6% | 0hPa | 3V | 08:30:00 | 00:37:13 | 00:00:00 | |
| IW2NTF | 2026-09-01 10:13:50 | 44.53559 | 7.63573 | 102° | 44km/h | 3703m | 3.9m/s | 5.5°C | 6.6% | 0hPa | 3V | 08:30:00 | 00:37:07 | 00:00:00 | |
| IW2NTF | 2026-09-01 10:13:44 | 44.53582 | 7.63473 | 103° | 55km/h | 3677m | 2.7m/s | 5.7°C | 6.5% | 0hPa | 3V | 08:30:00 | 00:37:01 | 00:00:00 | |
| IW2NTF | 2026-09-01 10:13:38 | 44.53597 | 7.63370 | 114° | 40km/h | 3653m | 4.6m/s | 5.9°C | 6.4% | 0hPa | 3V | 08:30:00 | 00:36:55 | 00:00:00 | |
| IW2NTF | 2026-09-01 10:13:33 | 44.53619 | 7.63289 | 100° | 46km/h | 3626m | 4.2m/s | 6.1°C | 6.5% | 0hPa | 3V | 08:30:00 | 00:36:49 | 00:00:00 | |
| IW2NTF | 2026-09-01 10:13:26 | 44.53632 | 7.63191 | 111° | 49km/h | 3604m | 3.2m/s | 6.1°C | 6.4% | 0hPa | 3V | 08:30:00 | 00:36:43 | 00:00:00 | |
| IW2NTF | 2026-09-01 10:13:20 | 44.53657 | 7.63113 | 105° | 26km/h | 3576m | 6m/s | 6.2°C | 6.2% | 0hPa | 3V | 08:30:00 | 00:36:37 | 00:00:00 | |
| IW2NTF | 2026-09-01 10:13:14 | 44.53667 | 7.63067 | 116° | 26km/h | 3551m | 3.7m/s | 6.2°C | 5.8% | 0hPa | 3V | 08:30:00 | 00:36:31 | 00:00:00 | |
| IW2NTF | 2026-09-01 10:13:08 | 44.53685 | 7.63005 | 104° | 33km/h | 3521m | 4.5m/s | 6.5°C | 5.7% | 0hPa | 3V | 08:30:00 | 00:36:25 | 00:00:00 | |
| IW2NTF | 2026-09-01 10:13:02 | 44.53698 | 7.62940 | 102° | 33km/h | 3499m | 3.1m/s | 6.5°C | 4.6% | 0hPa | 3V | 08:30:00 | 00:36:19 | 00:00:00 | |
| IW2NTF | 2026-09-01 10:12:56 | 44.53712 | 7.62871 | 108° | 33km/h | 3480m | 4m/s | 6.5°C | 5% | 0hPa | 3V | 08:30:00 | 00:36:13 | 00:00:00 | |
| IW2NTF | 2026-09-01 10:12:50 | 44.53726 | 7.62804 | 106° | 33km/h | 3461m | 4.1m/s | 6.5°C | 5% | 0hPa | 3V | 08:30:00 | 00:36:07 | 00:00:00 | |
| IW2NTF | 2026-09-01 10:12:44 | 44.53736 | 7.62739 | 102° | 33km/h | 3441m | 3.7m/s | 6.5°C | 5.2% | 0hPa | 3V | 08:30:00 | 00:36:01 | 00:00:00 | |
| IW2NTF | 2026-09-01 10:12:36 | 44.53755 | 7.62646 | 102° | 33km/h | 3414m | 3.5m/s | 6.6°C | 5.8% | 0hPa | 3V | 08:30:00 | 00:35:53 | 00:00:00 | |
| IW2NTF | 2026-09-01 10:12:30 | 44.53767 | 7.62576 | 107° | 35km/h | 3393m | 4.1m/s | 6.8°C | 6.2% | 0hPa | 3V | 08:30:00 | 00:35:47 | 00:00:00 | |
| IW2NTF | 2026-09-01 10:12:24 | 44.53784 | 7.62503 | 110° | 37km/h | 3374m | 3.4m/s | 6.9°C | 6.2% | 0hPa | 3V | 08:30:00 | 00:35:41 | 00:00:00 | |
| IW2NTF | 2026-09-01 10:12:18 | 44.53799 | 7.62430 | 101° | 37km/h | 3354m | 4.1m/s | 6.9°C | 6.7% | 0hPa | 3V | 08:30:00 | 00:35:35 | 00:00:00 | |
| IW2NTF | 2026-09-01 10:12:12 | 44.53809 | 7.62351 | 102° | 38km/h | 3333m | 3.7m/s | 6.9°C | 7.4% | 0hPa | 3V | 08:30:00 | 00:35:29 | 00:00:00 | |
| IW2NTF | 2026-09-01 10:12:06 | 44.53821 | 7.62291 | 106° | 20km/h | 3312m | 3.2m/s | 7°C | 7.7% | 0hPa | 3V | 08:30:00 | 00:35:23 | 00:00:00 | |
| IW2NTF | 2026-09-01 10:11:58 | 44.53811 | 7.62208 | 81° | 40km/h | 3274m | 5.5m/s | 7.3°C | 7.9% | 0hPa | 3V | 08:30:00 | 00:35:15 | 00:00:00 | |
| IW2NTF | 2026-09-01 10:11:52 | 44.53817 | 7.62123 | 102° | 38km/h | 3245m | 4.6m/s | 7.2°C | 9.4% | 0hPa | 3V | 08:30:00 | 00:35:09 | 00:00:00 | |
| IW2NTF | 2026-09-01 10:11:46 | 44.53820 | 7.62058 | 72° | 18km/h | 3216m | 4.5m/s | 7.3°C | 10.5% | 0hPa | 3V | 08:30:00 | 00:35:03 | 00:00:00 | |
| IW2NTF | 2026-09-01 10:11:40 | 44.53819 | 7.62013 | 98° | 27km/h | 3189m | 4.6m/s | 7.3°C | 12.3% | 0hPa | 3V | 08:30:00 | 00:34:57 | 00:00:00 | |
| IW2NTF | 2026-09-01 10:11:34 | 44.53812 | 7.61952 | 70° | 33km/h | 3155m | 5.2m/s | 7.4°C | 12.8% | 0hPa | 3V | 08:30:00 | 00:34:51 | 00:00:00 | |
| IW2NTF | 2026-09-01 10:11:29 | 44.53799 | 7.61883 | 77° | 29km/h | 3121m | 5.9m/s | 7.6°C | 14% | 0hPa | 3V | 08:30:00 | 00:34:45 | 00:00:00 | |
| IW2NTF | 2026-09-01 10:11:23 | 44.53800 | 7.61828 | 98° | 29km/h | 3089m | 4.7m/s | 7.7°C | 12.8% | 0hPa | 3V | 08:30:00 | 00:34:39 | 00:00:00 | |
| IW2NTF | 2026-09-01 10:11:16 | 44.53791 | 7.61767 | 58° | 27km/h | 3061m | 6.8m/s | 7.9°C | 11.4% | 0hPa | 3V | 08:30:00 | 00:34:33 | 00:00:00 | |
| IW2NTF | 2026-09-01 10:11:10 | 44.53780 | 7.61726 | 85° | 22km/h | 3030m | 4.1m/s | 8.1°C | 10.6% | 0hPa | 3V | 08:30:00 | 00:34:27 | 00:00:00 | |
| IW2NTF | 2026-09-01 10:11:04 | 44.53774 | 7.61688 | 68° | 13km/h | 2999m | 4.5m/s | 8.4°C | 10.8% | 0hPa | 3V | 08:30:00 | 00:34:21 | 00:00:00 | |
| IW2NTF | 2026-09-01 10:10:58 | 44.53766 | 7.61649 | 72° | 26km/h | 2969m | 4.5m/s | 8.7°C | 11.3% | 0hPa | 3V | 08:30:00 | 00:34:15 | 00:00:00 | |
| IW2NTF | 2026-09-01 10:10:52 | 44.53755 | 7.61609 | 54° | 20km/h | 2940m | 4.3m/s | 8.9°C | 11.2% | 0hPa | 3V | 08:30:00 | 00:34:09 | 00:00:00 | |
| IW2NTF | 2026-09-01 10:10:46 | 44.53742 | 7.61566 | 76° | 20km/h | 2916m | 5.1m/s | 9.1°C | 11.1% | 0hPa | 3V | 08:30:00 | 00:34:03 | 00:00:00 | |
| IW2NTF | 2026-09-01 10:10:40 | 44.53730 | 7.61532 | 66° | 13km/h | 2893m | 4.1m/s | 9.3°C | 11.1% | 0hPa | 3V | 08:30:00 | 00:33:57 | 00:00:00 | |
| IW2NTF | 2026-09-01 10:10:34 | 44.53715 | 7.61502 | 53° | 20km/h | 2868m | 4.6m/s | 9.4°C | 11.2% | 0hPa | 3V | 08:30:00 | 00:33:51 | 00:00:00 | |
| IW2NTF | 2026-09-01 10:10:28 | 44.53702 | 7.61470 | 75° | 13km/h | 2845m | 4.4m/s | 9.5°C | 11.9% | 0hPa | 3V | 08:30:00 | 00:33:45 | 00:00:00 | |
| IW2NTF | 2026-09-01 10:10:23 | 44.53687 | 7.61443 | 50° | 20km/h | 2825m | 4m/s | 9.6°C | 12.8% | 0hPa | 3V | 08:30:00 | 00:33:39 | 00:00:00 | |
| IW2NTF | 2026-09-01 10:10:16 | 44.53669 | 7.61408 | 59° | 22km/h | 2803m | 3.4m/s | 9.8°C | 14.3% | 0hPa | 3V | 08:30:00 | 00:33:33 | 00:00:00 | |
| IW2NTF | 2026-09-01 10:10:11 | 44.53654 | 7.61369 | 68° | 20km/h | 2782m | 4.2m/s | 10°C | 13.8% | 0hPa | 3V | 08:30:00 | 00:33:27 | 00:00:00 | |
| IW2NTF | 2026-09-01 10:10:04 | 44.53645 | 7.61332 | 61° | 15km/h | 2760m | 3.4m/s | 10.1°C | 13.7% | 0hPa | 3V | 08:30:00 | 00:33:21 | 00:00:00 | |
| IW2NTF | 2026-09-01 10:09:58 | 44.53630 | 7.61298 | 59° | 22km/h | 2739m | 3.9m/s | 10.3°C | 14.1% | 0hPa | 3V | 08:30:00 | 00:33:15 | 00:00:00 | |
| IW2NTF | 2026-09-01 10:09:51 | 44.53614 | 7.61247 | 71° | 16km/h | 2713m | 3.5m/s | 10.5°C | 13.7% | 0hPa | 3V | 08:30:00 | 00:33:07 | 00:00:00 | |
| IW2NTF | 2026-09-01 10:09:44 | 44.53603 | 7.61212 | 62° | 20km/h | 2694m | 3.9m/s | 10.7°C | 12.4% | 0hPa | 3V | 08:30:00 | 00:33:01 | 00:00:00 | |
| IW2NTF | 2026-09-01 10:09:38 | 44.53587 | 7.61182 | 49° | 13km/h | 2675m | 3.7m/s | 10.8°C | 12.6% | 0hPa | 3V | 08:30:00 | 00:32:55 | 00:00:00 | |
| IW2NTF | 2026-09-01 10:09:32 | 44.53570 | 7.61154 | 47° | 16km/h | 2655m | 3.3m/s | 10.9°C | 12.1% | 0hPa | 3V | 08:30:00 | 00:32:49 | 00:00:00 | |
| IW2NTF | 2026-09-01 10:09:26 | 44.53556 | 7.61124 | 54° | 16km/h | 2637m | 3.5m/s | 11.1°C | 12.1% | 0hPa | 3V | 08:30:00 | 00:32:43 | 00:00:00 | |
| IW2NTF | 2026-09-01 10:09:20 | 44.53540 | 7.61095 | 52° | 16km/h | 2618m | 3.5m/s | 10.8°C | 17.1% | 0hPa | 3V | 08:30:00 | 00:32:37 | 00:00:00 | |
| IW2NTF | 2026-09-01 10:09:14 | 44.53527 | 7.61057 | 92° | 16km/h | 2598m | 3.9m/s | 10.8°C | 19.4% | 0hPa | 3V | 08:30:00 | 00:32:31 | 00:00:00 | |
| IW2NTF | 2026-09-01 10:09:08 | 44.53521 | 7.61037 | 28° | 20km/h | 2574m | 4.7m/s | 11.1°C | 18.9% | 0hPa | 3V | 08:30:00 | 00:32:25 | 00:00:00 | |
| IW2NTF | 2026-09-01 10:09:02 | 44.53507 | 7.61023 | 107° | 9km/h | 2548m | 5.4m/s | 0°C | 0% | 0hPa | 3V | 08:30:00 | 00:32:19 | 00:00:00 | |
| IW2NTF | 2026-09-01 10:08:56 | 44.53499 | 7.60994 | 31° | 20km/h | 2521m | 4.4m/s | 0°C | 0% | 0hPa | 3V | 08:30:00 | 00:32:13 | 00:00:00 | |
| IW2NTF | 2026-09-01 10:08:50 | 44.53479 | 7.60990 | 27° | 5km/h | 2494m | 5.6m/s | 0°C | 0% | 0hPa | 3V | 08:30:00 | 00:32:07 | 00:00:00 | |
| IW2NTF | 2026-09-01 10:08:44 | 44.53474 | 7.60987 | 284° | 4km/h | 2464m | 3.9m/s | 0°C | 0% | 0hPa | 3V | 08:30:00 | 00:32:01 | 00:00:00 | |
| IW2NTF | 2026-09-01 10:08:38 | 44.53474 | 7.60985 | 31° | 4km/h | 2441m | 4m/s | 0°C | 0% | 0hPa | 3V | 08:30:00 | 00:31:55 | 00:00:00 | |
| IW2NTF | 2026-09-01 10:08:32 | 44.53470 | 7.60982 | 247° | 5km/h | 2422m | 5.6m/s | 0°C | 0% | 0hPa | 3V | 08:30:00 | 00:31:49 | 00:00:00 | |
| IW2NTF | 2026-09-01 10:08:26 | 44.53468 | 7.60978 | 322° | 2km/h | 2394m | 4.5m/s | 0°C | 0% | 0hPa | 3V | 08:30:00 | 00:31:43 | 00:00:00 | |
| IW2NTF | 2026-09-01 10:08:20 | 44.53465 | 7.60996 | 306° | 11km/h | 2373m | 3.3m/s | 0°C | 0% | 0hPa | 3V | 08:30:00 | 00:31:37 | 00:00:00 | |
| IW2NTF | 2026-09-01 10:08:14 | 44.53453 | 7.60990 | 61° | 13km/h | 2345m | 5.1m/s | 0°C | 0% | 0hPa | 3V | 08:30:00 | 00:31:31 | 00:00:00 | |
| IW2NTF | 2026-09-01 10:08:09 | 44.53447 | 7.60971 | 2° | 4km/h | 2320m | 7.1m/s | 0°C | 0% | 0hPa | 3V | 00:00:00 | 00:31:25 | 00:00:00 | |
| IW2NTF | 2026-09-01 10:08:02 | 44.53444 | 7.60979 | 127° | 2km/h | 2288m | 3.2m/s | 0°C | 0% | 0hPa | 3V | 00:00:00 | 00:31:19 | 00:00:00 | |
| IW2NTF | 2026-09-01 10:07:56 | 44.53436 | 7.60971 | 11° | 9km/h | 2262m | 3.9m/s | 0°C | 0% | 0hPa | 3V | 00:00:00 | 00:31:13 | 00:00:00 | |
| IW2NTF | 2026-09-01 10:07:50 | 44.53432 | 7.60964 | 145° | 0km/h | 2235m | 5.6m/s | 0°C | 0% | 0hPa | 3V | 00:00:00 | 00:31:07 | 00:00:00 | |
| IW2NTF | 2026-09-01 10:07:44 | 44.53428 | 7.60980 | 280° | 11km/h | 2212m | 4.6m/s | 0°C | 0% | 0hPa | 3V | 00:00:00 | 00:31:01 | 00:00:00 | |
| IW2NTF | 2026-09-01 10:07:38 | 44.53422 | 7.60999 | 290° | 5km/h | 2187m | 3.8m/s | 0°C | 0% | 0hPa | 3V | 00:00:00 | 00:30:55 | 00:00:00 | |
| IW2NTF | 2026-09-01 10:07:32 | 44.53426 | 7.61007 | 233° | 5km/h | 2155m | 4.4m/s | 0°C | 0% | 0hPa | 3V | 00:00:00 | 00:30:49 | 00:00:00 | |
| IW2NTF | 2026-09-01 10:07:26 | 44.53428 | 7.61001 | 66° | 11km/h | 2127m | 4.9m/s | 0°C | 0% | 0hPa | 3V | 00:00:00 | 00:30:43 | 00:00:00 | |
| IW2NTF | 2026-09-01 10:07:20 | 44.53414 | 7.60995 | 318° | 9km/h | 2099m | 5.9m/s | 0°C | 0% | 0hPa | 3V | 00:00:00 | 00:30:37 | 00:00:00 | |
| IW2NTF | 2026-09-01 10:07:14 | 44.53408 | 7.61010 | 313° | 7km/h | 2076m | 4.7m/s | 0°C | 0% | 0hPa | 3V | 00:00:00 | 00:30:31 | 00:00:00 | |
| IW2NTF | 2026-09-01 10:07:09 | 44.53392 | 7.61002 | 12° | 11km/h | 2049m | 4.4m/s | 0°C | 0% | 0hPa | 3V | 00:00:00 | 00:30:25 | 00:00:00 | |
| IW2NTF | 2026-09-01 10:07:02 | 44.53382 | 7.60998 | 54° | 9km/h | 2020m | 4m/s | 0°C | 0% | 0hPa | 3V | 00:00:00 | 00:30:19 | 00:00:00 | |
| IW2NTF | 2026-09-01 10:06:56 | 44.53373 | 7.60987 | 51° | 7km/h | 1995m | 4.1m/s | 0°C | 0% | 0hPa | 3V | 00:00:00 | 00:30:13 | 00:00:00 | |
| IW2NTF | 2026-09-01 10:06:50 | 44.53371 | 7.60982 | 56° | 7km/h | 1989m | 3.7m/s | 0°C | 0% | 0hPa | 3V | 00:00:00 | 00:30:11 | 00:00:00 | |
| IW2NTF | 2026-09-01 10:06:50 | 44.53367 | 7.60977 | 31° | 15km/h | 1981m | 2.9m/s | 0°C | 0% | 0hPa | 3V | 00:00:00 | 00:30:09 | 00:00:00 | |
| IW2NTF | 2026-09-01 10:06:50 | 44.53360 | 7.60971 | 30° | 18km/h | 1976m | 2.6m/s | 0°C | 0% | 0hPa | 3V | 00:00:00 | 00:30:07 | 00:00:00 | |
| IW2NTF | 2026-09-01 10:06:44 | 44.53352 | 7.60964 | 37° | 16km/h | 1970m | 3m/s | 0°C | 0% | 0hPa | 3V | 00:00:00 | 00:30:05 | 00:00:00 | |
| IW2NTF | 2026-09-01 10:06:44 | 44.53347 | 7.60956 | 54° | 11km/h | 1964m | 3.9m/s | 0°C | 0% | 0hPa | 3V | 00:00:00 | 00:30:03 | 00:00:00 | |
| IW2NTF | 2026-09-01 10:06:44 | 44.53346 | 7.60952 | 141° | 4km/h | 1955m | 5.2m/s | 0°C | 0% | 0hPa | 3V | 00:00:00 | 00:30:01 | 00:00:00 | |
| IW2NTF | 2026-09-01 10:06:38 | 44.53347 | 7.60952 | 194° | 2km/h | 1944m | 5.4m/s | 0°C | 0% | 0hPa | 3V | 00:00:00 | 00:29:59 | 00:00:00 | |
| IW2NTF | 2026-09-01 10:06:38 | 44.53346 | 7.60951 | 27° | 5km/h | 1935m | 3.4m/s | 0°C | 0% | 0hPa | 3V | 00:00:00 | 00:29:57 | 00:00:00 | |
| IW2NTF | 2026-09-01 10:06:38 | 44.53344 | 7.60948 | 47° | 5km/h | 1929m | 3.4m/s | 0°C | 0% | 0hPa | 3V | 00:00:00 | 00:29:55 | 00:00:00 |